[[{"header":{"parameterUnit":"m.s-1","parameterCategory":1,"la1":30.6,"la2":29.2853,"lo1":-89.7004,"lo2":-87.6739,"dy":0.0162,"dx":0.0183,"nx":112,"ny":82,"refTime":"2024-08-15T18:00:00:Z","depth":0,"parameterNumber":2,"parameterNumberName":"U-component_of_WINDS"},"data":[0.0,0.0,0.0,0.0,0.0,0.0,0.0,0.0,0.0,0.0,0.0,0.0,0.0,0.0,0.0,0.0,0.0,0.0,0.0,0.0,0.0,0.0,0.0,0.0,0.0,0.0,0.0,0.0,0.0,0.0,0.0,0.0,0.0,0.0,0.0,0.0,0.0,0.0,0.0,0.0,0.0,0.0,0.0,0.0,0.0,0.0,0.0,0.0,0.0,0.0,0.0,0.0,0.0,0.0,0.0,0.0,0.0,0.0,0.0,0.0,0.0,0.0,0.0,0.0,0.0,0.0,0.0,0.0,0.0,0.0,0.0,0.0,0.0,0.0,0.0,0.0,0.0,0.0,0.0,0.0,0.0,0.0,0.0,0.0,0.0,0.0,0.0,0.0,0.0,0.0,3.0891,3.1793,3.116,3.0637,3.0616,3.0051,2.9379,2.8619,0.0,0.0,0.0,0.0,0.0,0.0,0.0,0.0,0.0,0.0,0.0,0.0,0.0,0.0,0.0,0.0,0.0,0.0,0.0,0.0,0.0,0.0,0.0,0.0,0.0,0.0,0.0,0.0,0.0,0.0,0.0,0.0,0.0,0.0,0.0,0.0,0.0,0.0,0.0,0.0,0.0,0.0,0.0,0.0,0.0,0.0,0.0,0.0,0.0,0.0,0.0,0.0,0.0,0.0,0.0,0.0,0.0,0.0,0.0,0.0,0.0,0.0,0.0,0.0,0.0,0.0,0.0,0.0,0.0,0.0,0.0,0.0,0.0,0.0,0.0,0.0,0.0,0.0,0.0,0.0,0.0,0.0,0.0,0.0,0.0,0.0,0.0,0.0,0.0,0.0,0.0,0.0,0.0,0.0,0.0,0.0,0.0,0.0,0.0,0.0,0.0,0.0,0.0,0.0,2.9416,3.0256,3.0162,2.9859,2.9401,2.9121,2.8659,2.7973,0.0,0.0,0.0,0.0,0.0,0.0,0.0,0.0,0.0,0.0,0.0,0.0,0.0,0.0,0.0,0.0,0.0,0.0,0.0,0.0,0.0,0.0,0.0,0.0,0.0,0.0,0.0,0.0,0.0,0.0,0.0,0.0,0.0,0.0,0.0,0.0,0.0,0.0,0.0,0.0,0.0,0.0,0.0,0.0,0.0,0.0,0.0,0.0,0.0,0.0,0.0,0.0,0.0,0.0,0.0,0.0,0.0,0.0,0.0,0.0,0.0,0.0,0.0,0.0,0.0,0.0,0.0,0.0,0.0,0.0,0.0,0.0,0.0,0.0,0.0,0.0,0.0,0.0,0.0,0.0,0.0,0.0,0.0,0.0,0.0,0.0,0.0,0.0,0.0,0.0,0.0,0.0,0.0,0.0,0.0,0.0,0.0,0.0,0.0,0.0,0.0,0.0,0.0,2.969,2.9513,2.9892,2.9627,2.933,2.91,2.8657,2.808,2.742,2.6877,0.0,0.0,0.0,0.0,0.0,0.0,0.0,0.0,0.0,0.0,0.0,0.0,0.0,0.0,0.0,0.0,0.0,0.0,0.0,0.0,0.0,0.0,0.0,0.0,0.0,0.0,0.0,0.0,0.0,0.0,0.0,0.0,0.0,0.0,0.0,0.0,0.0,0.0,0.0,0.0,0.0,0.0,0.0,0.0,0.0,0.0,0.0,0.0,0.0,0.0,0.0,0.0,0.0,0.0,0.0,0.0,0.0,0.0,0.0,0.0,0.0,0.0,0.0,0.0,0.0,0.0,0.0,0.0,0.0,0.0,0.0,0.0,0.0,0.0,0.0,0.0,0.0,0.0,0.0,0.0,0.0,0.0,0.0,0.0,0.0,0.0,0.0,0.0,0.0,0.0,0.0,0.0,0.0,0.0,0.0,0.0,0.0,0.0,0.0,0.0,0.0,0.0,3.0196,2.9816,2.9728,2.918,2.8744,2.8628,2.793,2.73,2.6753,2.5768,0.0,0.0,0.0,0.0,0.0,0.0,0.0,0.0,0.0,0.0,0.0,0.0,0.0,0.0,0.0,0.0,0.0,0.0,0.0,0.0,0.0,0.0,0.0,0.0,0.0,0.0,0.0,0.0,0.0,0.0,0.0,0.0,0.0,0.0,0.0,0.0,0.0,0.0,0.0,0.0,0.0,0.0,0.0,0.0,0.0,0.0,0.0,0.0,0.0,0.0,0.0,0.0,0.0,0.0,0.0,0.0,0.0,0.0,0.0,0.0,0.0,0.0,0.0,0.0,0.0,0.0,0.0,0.0,0.0,0.0,0.0,0.0,0.0,0.0,0.0,0.0,0.0,0.0,0.0,0.0,0.0,0.0,0.0,0.0,0.0,0.0,0.0,0.0,0.0,0.0,0.0,0.0,0.0,0.0,0.0,0.0,0.0,0.0,0.0,0.0,0.0,0.0,2.9634,2.9807,2.9293,2.8595,2.7896,2.7276,2.651,2.6019,2.5968,2.4509,0.0,0.0,0.0,0.0,0.0,0.0,0.0,0.0,0.0,0.0,0.0,0.0,0.0,0.0,0.0,0.0,0.0,0.0,0.0,0.0,0.0,0.0,0.0,0.0,0.0,0.0,0.0,0.0,0.0,0.0,0.0,0.0,0.0,0.0,0.0,0.0,0.0,0.0,0.0,0.0,0.0,0.0,0.0,0.0,0.0,0.0,0.0,0.0,0.0,0.0,0.0,0.0,0.0,0.0,0.0,0.0,0.0,0.0,0.0,0.0,0.0,0.0,0.0,0.0,0.0,0.0,0.0,0.0,0.0,0.0,0.0,0.0,0.0,0.0,0.0,0.0,0.0,0.0,0.0,0.0,0.0,0.0,0.0,0.0,0.0,0.0,0.0,0.0,0.0,0.0,0.0,0.0,0.0,0.0,0.0,0.0,0.0,0.0,0.0,0.0,0.0,0.0,2.9251,2.9316,2.9155,2.8527,2.7844,2.7154,2.6813,2.6265,2.5369,0.0,0.0,0.0,0.0,0.0,0.0,0.0,0.0,0.0,0.0,0.0,0.0,0.0,0.0,0.0,0.0,0.0,0.0,0.0,0.0,0.0,0.0,0.0,0.0,0.0,0.0,0.0,0.0,0.0,0.0,0.0,0.0,0.0,0.0,0.0,0.0,0.0,0.0,0.0,0.0,0.0,0.0,0.0,0.0,0.0,0.0,0.0,0.0,0.0,0.0,0.0,0.0,0.0,0.0,0.0,0.0,0.0,0.0,0.0,0.0,0.0,0.0,0.0,0.0,0.0,0.0,0.0,0.0,0.0,0.0,0.0,0.0,0.0,0.0,0.0,0.0,0.0,0.0,0.0,0.0,0.0,0.0,0.0,0.0,0.0,0.0,0.0,0.0,0.0,0.0,0.0,0.0,0.0,0.0,0.0,0.0,0.0,0.0,0.0,0.0,0.0,0.0,2.8972,2.9379,2.9496,2.9532,2.8733,2.8063,2.7594,2.6888,2.6061,2.5074,0.0,0.0,0.0,0.0,0.0,0.0,0.0,0.0,0.0,0.0,0.0,0.0,0.0,0.0,0.0,0.0,0.0,0.0,0.0,0.0,0.0,0.0,0.0,0.0,0.0,0.0,0.0,0.0,0.0,0.0,0.0,0.0,0.0,0.0,0.0,0.0,0.0,0.0,0.0,0.0,0.0,0.0,0.0,0.0,0.0,0.0,0.0,0.0,0.0,0.0,0.0,0.0,0.0,0.0,0.0,0.0,0.0,0.0,0.0,0.0,0.0,0.0,0.0,0.0,0.0,0.0,0.0,0.0,0.0,0.0,0.0,0.0,0.0,0.0,0.0,0.0,0.0,0.0,0.0,0.0,0.0,0.0,0.0,0.0,0.0,0.0,0.0,0.0,0.0,0.0,0.0,0.0,0.0,0.0,0.0,0.0,0.0,0.0,0.0,0.0,0.0,0.0,2.9076,2.9985,3.0518,3.0518,2.9316,2.8481,2.8481,2.642,2.5092,0.0,0.0,0.0,0.0,0.0,0.0,0.0,0.0,0.0,0.0,0.0,0.0,0.0,0.0,0.0,0.0,0.0,0.0,0.0,0.0,0.0,0.0,0.0,0.0,0.0,0.0,0.0,0.0,0.0,0.0,0.0,0.0,0.0,0.0,0.0,0.0,0.0,0.0,0.0,0.0,0.0,0.0,0.0,0.0,0.0,0.0,0.0,0.0,0.0,0.0,0.0,0.0,0.0,0.0,0.0,0.0,0.0,0.0,0.0,0.0,0.0,0.0,0.0,0.0,0.0,0.0,0.0,0.0,0.0,0.0,0.0,0.0,0.0,0.0,0.0,0.0,0.0,0.0,0.0,0.0,0.0,0.0,0.0,0.0,0.0,0.0,0.0,0.0,0.0,0.0,0.0,0.0,0.0,0.0,0.0,0.0,0.0,0.0,0.0,0.0,0.0,0.0,0.0,2.8915,2.9894,3.0518,3.0518,2.9299,2.8483,2.8418,2.6887,2.5687,2.504,0.0,0.0,0.0,0.0,0.0,0.0,0.0,0.0,0.0,0.0,0.0,0.0,0.0,0.0,0.0,0.0,0.0,0.0,0.0,0.0,0.0,0.0,0.0,0.0,0.0,0.0,0.0,0.0,0.0,0.0,0.0,0.0,0.0,0.0,0.0,0.0,0.0,0.0,0.0,0.0,0.0,0.0,0.0,0.0,0.0,0.0,0.0,0.0,0.0,0.0,0.0,0.0,0.0,0.0,0.0,0.0,0.0,0.0,0.0,0.0,0.0,0.0,0.0,0.0,0.0,0.0,0.0,0.0,0.0,0.0,0.0,0.0,0.0,0.0,0.0,0.0,0.0,0.0,0.0,0.0,0.0,0.0,0.0,0.0,0.0,0.0,0.0,0.0,0.0,0.0,0.0,0.0,0.0,0.0,0.0,0.0,0.0,0.0,0.0,0.0,0.0,0.0,2.8914,3.0223,3.1057,3.1057,2.9867,2.8999,2.8918,2.7269,2.5794,2.4816,0.0,0.0,0.0,0.0,0.0,0.0,0.0,0.0,0.0,0.0,0.0,0.0,0.0,0.0,0.0,0.0,0.0,0.0,0.0,0.0,0.0,0.0,0.0,0.0,0.0,0.0,0.0,0.0,0.0,0.0,0.0,0.0,0.0,0.0,0.0,0.0,0.0,0.0,0.0,0.0,0.0,0.0,0.0,0.0,0.0,0.0,0.0,0.0,0.0,0.0,0.0,0.0,0.0,0.0,0.0,0.0,0.0,0.0,0.0,0.0,0.0,0.0,0.0,0.0,0.0,0.0,0.0,0.0,0.0,0.0,0.0,0.0,0.0,0.0,0.0,0.0,0.0,0.0,0.0,0.0,0.0,0.0,0.0,0.0,0.0,0.0,0.0,0.0,0.0,0.0,0.0,0.0,0.0,0.0,0.0,0.0,0.0,0.0,0.0,0.0,0.0,0.0,2.9104,3.0761,3.1858,3.1858,3.0698,2.9828,2.9539,2.7454,2.5637,2.4418,0.0,0.0,0.0,0.0,0.0,0.0,0.0,0.0,0.0,0.0,0.0,0.0,0.0,0.0,0.0,0.0,0.0,0.0,0.0,0.0,0.0,0.0,0.0,0.0,0.0,0.0,0.0,0.0,0.0,0.0,0.0,0.0,0.0,0.0,0.0,0.0,0.0,0.0,0.0,0.0,0.0,0.0,0.0,0.0,0.0,0.0,0.0,0.0,0.0,0.0,0.0,0.0,0.0,0.0,0.0,0.0,0.0,0.0,0.0,0.0,2.5631,2.5229,0.0,0.0,0.0,0.0,0.0,0.0,0.0,0.0,0.0,0.0,0.0,0.0,0.0,0.0,0.0,0.0,0.0,0.0,0.0,0.0,0.0,0.0,0.0,0.0,0.0,0.0,0.0,0.0,0.0,0.0,0.0,0.0,0.0,0.0,0.0,0.0,0.0,0.0,0.0,0.0,2.9962,3.0974,3.1576,3.1576,3.0717,2.9566,2.8181,2.7249,2.5929,2.4033,2.3962,0.0,0.0,0.0,0.0,0.0,0.0,0.0,0.0,0.0,0.0,0.0,0.0,0.0,0.0,0.0,0.0,0.0,0.0,0.0,0.0,0.0,0.0,0.0,0.0,0.0,0.0,0.0,0.0,0.0,0.0,0.0,0.0,0.0,0.0,0.0,0.0,0.0,0.0,0.0,0.0,0.0,0.0,0.0,0.0,0.0,0.0,0.0,0.0,0.0,0.0,0.0,0.0,0.0,0.0,0.0,0.0,0.0,0.0,0.0,2.7904,2.7342,0.0,0.0,0.0,0.0,0.0,0.0,0.0,0.0,0.0,0.0,0.0,0.0,0.0,0.0,0.0,0.0,0.0,0.0,0.0,0.0,0.0,0.0,0.0,0.0,0.0,0.0,0.0,0.0,0.0,0.0,0.0,0.0,0.0,0.0,0.0,0.0,0.0,0.0,0.0,0.0,3.0691,3.1206,3.1637,3.1995,3.1039,2.9805,2.8308,2.755,2.6232,2.4118,2.4125,0.0,0.0,0.0,0.0,0.0,0.0,0.0,0.0,0.0,0.0,0.0,0.0,0.0,0.0,0.0,0.0,0.0,0.0,0.0,0.0,0.0,0.0,0.0,0.0,0.0,0.0,0.0,0.0,0.0,0.0,0.0,0.0,0.0,0.0,0.0,0.0,0.0,0.0,0.0,0.0,0.0,0.0,0.0,0.0,0.0,0.0,0.0,0.0,0.0,0.0,0.0,0.0,0.0,3.1742,3.1907,3.2219,3.1021,3.0724,3.1037,3.0402,3.0011,2.9887,3.0185,0.0,0.0,0.0,0.0,0.0,0.0,0.0,0.0,0.0,0.0,0.0,0.0,0.0,0.0,0.0,0.0,0.0,0.0,0.0,0.0,0.0,0.0,3.0214,2.9706,3.0398,3.0927,3.0133,0.0,0.0,0.0,0.0,0.0,0.0,0.0,0.0,0.0,0.0,0.0,3.1275,3.1516,3.182,3.2196,3.1223,2.9972,2.8589,2.7927,2.659,2.4249,2.4393,2.4153,0.0,0.0,0.0,0.0,0.0,0.0,0.0,0.0,0.0,0.0,0.0,0.0,0.0,0.0,0.0,0.0,0.0,0.0,0.0,0.0,0.0,0.0,0.0,0.0,0.0,0.0,0.0,0.0,0.0,0.0,0.0,0.0,2.6185,2.6736,0.0,0.0,0.0,0.0,0.0,0.0,0.0,0.0,0.0,0.0,0.0,0.0,0.0,3.0482,3.0517,3.1233,3.1632,3.1705,3.2254,3.2375,3.2047,3.1857,3.1625,3.1374,3.2294,0.0,3.1526,2.9801,0.0,0.0,0.0,0.0,0.0,0.0,0.0,0.0,0.0,0.0,0.0,0.0,0.0,0.0,0.0,0.0,0.0,0.0,0.0,0.0,0.0,0.0,3.299,3.1784,3.1643,3.1784,3.1851,3.0432,2.9499,3.0545,2.986,2.9058,0.0,0.0,0.0,0.0,0.0,0.0,3.155,3.2039,3.1958,3.0883,3.046,2.9403,2.7334,2.7843,2.6965,2.3873,2.4869,2.5358,2.4802,2.4823,0.0,0.0,0.0,0.0,0.0,0.0,0.0,0.0,0.0,0.0,0.0,0.0,0.0,0.0,0.0,0.0,0.0,0.0,0.0,0.0,0.0,0.0,0.0,0.0,0.0,0.0,0.0,0.0,0.0,2.6143,2.7831,2.707,2.8905,2.9795,0.0,0.0,0.0,0.0,0.0,0.0,0.0,0.0,0.0,3.1266,3.1665,3.2038,3.2215,3.3139,3.3594,3.3504,3.3756,3.3716,3.3417,3.2835,3.2501,3.2329,3.2446,3.2554,3.2468,3.1524,3.1071,3.0919,0.0,0.0,0.0,0.0,3.0529,3.0259,3.0514,3.0392,3.0006,2.9585,0.0,0.0,0.0,0.0,0.0,0.0,0.0,3.0366,3.0613,3.1259,3.1825,3.1864,3.1754,3.1829,3.2379,3.1738,3.1197,3.1753,3.1368,3.0887,3.0664,3.0575,0.0,0.0,0.0,3.1742,3.2272,3.1785,3.1353,3.1185,3.0456,2.9361,2.775,2.8003,2.7367,2.5373,2.5796,2.6035,2.5814,2.5725,2.5725,0.0,0.0,0.0,0.0,0.0,0.0,0.0,0.0,0.0,0.0,0.0,0.0,0.0,0.0,0.0,0.0,0.0,0.0,0.0,0.0,0.0,0.0,0.0,0.0,0.0,0.0,0.0,0.0,2.7405,2.899,2.8032,3.0467,3.1432,0.0,0.0,0.0,0.0,0.0,0.0,3.1608,3.1876,3.2143,3.2403,3.2994,3.3433,3.3678,3.4523,3.4851,3.4594,3.4496,3.4301,3.3987,3.3145,3.2734,3.2641,3.215,3.2213,3.2607,3.2437,3.1905,3.118,3.0897,3.0954,3.1239,3.1669,3.1581,3.1234,3.1692,3.1571,3.1071,3.0477,3.0111,2.9833,2.935,0.0,0.0,0.0,0.0,2.9852,3.0402,3.0345,3.0308,3.0773,3.1036,3.1332,3.1927,3.2317,3.2569,3.2669,3.2649,3.26,3.2244,3.2038,0.0,3.1753,3.1934,3.2207,3.2625,3.1677,3.105,3.1262,3.0296,2.9239,2.8299,2.8205,2.77,2.659,2.6579,2.6641,2.6596,2.6489,2.6352,2.6244,0.0,0.0,0.0,0.0,0.0,0.0,0.0,0.0,0.0,0.0,0.0,0.0,0.0,0.0,0.0,0.0,0.0,0.0,0.0,0.0,0.0,0.0,0.0,0.0,0.0,0.0,0.0,0.0,0.0,3.0845,3.153,0.0,0.0,0.0,0.0,3.175,3.2614,3.3292,3.3822,3.466,3.4935,3.4574,3.4719,3.4704,3.4448,3.448,3.425,3.3745,3.3642,3.3102,3.2342,3.2231,3.2094,3.1841,3.1841,3.1727,3.1552,3.1061,3.1682,3.2695,3.1125,3.1076,3.189,3.1507,3.142,3.1447,3.1219,3.1102,3.1131,3.1203,3.0815,3.0253,3.0107,2.9185,0.0,0.0,2.932,2.926,2.9047,2.948,2.9665,2.8684,2.936,3.0199,3.0229,3.1526,3.284,3.3336,3.3441,3.3442,3.3475,0.0,3.3505,3.3483,3.3691,3.3432,3.2179,3.2015,3.1544,3.0323,2.9563,2.8881,2.8255,2.8311,2.7828,2.6576,2.7026,2.7287,2.7178,2.7052,2.6972,2.6957,2.6672,0.0,0.0,0.0,0.0,0.0,0.0,0.0,0.0,0.0,0.0,0.0,0.0,0.0,0.0,0.0,0.0,0.0,0.0,0.0,0.0,0.0,0.0,0.0,0.0,0.0,0.0,0.0,0.0,3.1449,3.2757,0.0,3.1885,3.226,3.2701,3.2994,3.3644,3.4126,3.4312,3.4607,3.4739,3.4691,3.4756,3.4756,3.4739,3.4739,3.4497,3.3949,3.3163,3.2426,3.1697,3.1509,3.1344,3.1207,3.1702,3.1883,3.1781,3.157,3.1595,3.1677,3.0768,3.0827,3.1379,3.0717,3.0878,3.1336,3.1234,3.1307,3.1366,3.1409,3.1302,3.1093,3.118,3.0585,2.99,3.0177,2.9688,2.9007,2.8887,2.8909,2.8813,2.8512,2.8698,2.8971,2.907,3.0439,3.1738,3.1931,3.278,3.3532,3.3739,3.3386,3.2982,3.2874,3.2841,3.2694,3.233,3.1513,3.0833,3.0348,2.9337,2.856,2.8358,2.8386,2.8196,2.7751,2.7904,2.8042,2.7979,2.7834,2.7738,2.7655,2.7134,2.6406,0.0,0.0,0.0,0.0,0.0,0.0,0.0,0.0,0.0,0.0,0.0,0.0,0.0,0.0,0.0,0.0,0.0,0.0,0.0,0.0,0.0,0.0,0.0,0.0,0.0,3.1049,3.205,3.2413,3.3623,3.399,3.2902,3.3461,3.3888,3.3919,3.4267,3.4497,3.4497,3.4497,3.4546,3.4707,3.4691,3.4739,3.4899,3.4508,3.4023,3.3512,3.2339,3.1513,3.0914,3.0997,3.094,3.0915,3.1652,3.1996,3.1955,3.1898,3.1612,3.1219,3.0817,3.0849,3.1204,3.0702,3.0863,3.1351,3.1351,3.1409,3.1539,3.1597,3.1582,3.164,3.1784,3.1336,3.0778,3.0322,2.9397,2.8493,2.7907,2.7589,2.7355,2.7301,2.7598,2.7826,2.7925,2.9652,3.1146,3.1146,3.2452,3.3682,3.4091,3.3562,3.3033,3.294,3.268,3.2492,3.2428,3.1428,3.0751,3.0751,2.975,2.8996,2.8814,2.8735,2.8642,2.846,2.846,2.8504,2.8735,2.8192,2.8015,2.8338,2.7686,2.7134,2.6811,0.0,0.0,0.0,0.0,0.0,0.0,0.0,0.0,0.0,0.0,0.0,0.0,0.0,0.0,0.0,0.0,0.0,0.0,0.0,0.0,0.0,0.0,0.0,3.2893,3.3128,3.3395,3.3856,3.4134,3.4072,3.3514,3.4104,3.453,3.453,3.4562,3.4579,3.4579,3.4562,3.4611,3.4773,3.474,3.4772,3.4932,3.3696,3.2869,3.239,3.1138,3.0381,2.9993,3.0646,3.0934,3.0964,3.1647,3.1879,3.1724,3.1879,3.1766,3.1437,3.1321,3.1394,3.1467,3.1321,3.1394,3.1482,3.1482,3.1482,3.1539,3.1727,3.1799,3.1799,3.1784,3.1437,3.072,2.9314,2.8517,2.7679,2.6007,2.5593,2.5491,2.5084,2.5951,2.6849,2.6863,2.9188,3.1232,3.1261,3.2556,3.3879,3.4587,3.4135,3.3729,3.3834,3.3465,0.0,3.2475,3.1797,3.1382,3.1382,3.0797,3.0202,2.9689,2.9543,2.92,2.8651,2.8475,2.8735,2.9381,2.8054,2.7832,2.9021,2.8384,2.8303,2.8822,0.0,0.0,0.0,0.0,0.0,0.0,0.0,0.0,0.0,0.0,0.0,0.0,0.0,0.0,0.0,0.0,0.0,0.0,0.0,0.0,0.0,3.3354,3.437,3.3298,3.3455,3.381,3.4136,3.417,3.4169,3.4218,3.4708,3.5031,3.5149,3.5551,3.5808,3.5808,3.5896,3.6034,3.6137,3.5612,3.5449,3.5694,3.3958,3.2869,3.2374,3.0903,2.9859,2.928,2.9565,2.9642,2.9598,3.0266,3.0555,3.05,3.0555,3.0719,3.0919,3.0919,3.1162,3.1422,3.0914,3.1049,3.1482,3.1482,3.1482,3.1539,3.1727,3.1841,3.194,3.2038,3.1637,3.0881,2.9609,2.8505,2.7335,2.5959,2.5401,2.5151,2.5046,2.524,2.577,2.6708,2.8209,2.9717,3.0615,3.1807,3.2935,3.3955,3.3666,3.3358,3.3401,3.2936,3.2557,3.2413,3.1797,3.1382,3.1382,3.1042,3.0678,3.0202,3.0425,3.018,2.9231,2.9135,2.9261,2.9546,2.8993,2.8992,2.9705,2.9082,2.8875,0.0,0.0,0.0,0.0,0.0,0.0,0.0,0.0,0.0,0.0,0.0,0.0,0.0,0.0,0.0,0.0,0.0,0.0,0.0,0.0,0.0,0.0,3.469,3.5687,3.4517,3.452,3.4571,3.4228,3.4203,3.4137,3.3974,3.4772,3.521,3.4951,3.5568,3.5808,3.5551,3.5622,3.5724,3.5875,3.5465,3.5333,3.5545,3.3811,3.2885,3.2755,3.1195,3.0092,2.9446,2.9774,2.9658,2.9139,2.9809,3.0046,3.0008,3.0008,3.0167,3.0422,0.0,0.0,0.0,0.0,3.1195,3.1482,3.1482,3.1482,3.1539,3.1784,3.1955,3.1936,3.1535,3.1189,3.0552,2.8713,2.7753,2.6942,2.567,2.5148,2.5005,2.5005,2.5422,2.5979,2.6736,2.8264,2.9681,3.0432,3.1496,0.0,3.3142,3.3016,3.2879,3.3154,3.2716,3.2398,3.2398,3.2044,3.1852,3.2066,3.1762,3.156,3.1483,3.1517,0.0,0.0,0.0,3.0359,2.9929,3.0247,0.0,0.0,0.0,0.0,0.0,0.0,0.0,0.0,2.8084,2.8533,0.0,0.0,0.0,0.0,0.0,0.0,0.0,0.0,0.0,0.0,0.0,0.0,0.0,0.0,0.0,0.0,3.5115,3.6266,3.5942,3.5642,3.5186,3.427,3.4197,3.3942,3.3388,3.4627,3.5165,3.4529,3.5132,3.5313,3.4775,3.4743,0.0,0.0,0.0,3.4871,3.5015,3.3486,3.2951,3.3273,3.1804,3.0714,3.002,3.0633,3.0242,2.9154,2.9766,2.9922,2.9833,2.9833,2.9879,2.9963,3.0458,3.1009,3.1435,3.1509,3.1482,3.1482,3.1539,0.0,0.0,3.194,3.2053,3.1819,3.0878,3.0582,3.0071,2.7527,2.6891,2.661,2.5324,2.5005,2.5005,2.5005,2.5854,2.675,2.7046,2.8834,3.0488,3.0764,3.1652,3.2398,3.2398,3.2287,3.2446,3.3043,3.2726,3.2398,3.2398,3.2398,3.2563,3.2873,3.2711,0.0,3.2998,3.2702,3.2247,3.1626,3.2111,3.1878,3.0782,3.1741,3.1748,3.0555,3.1044,3.1304,3.1334,3.0748,3.0176,2.9651,2.7837,2.842,0.0,0.0,0.0,0.0,0.0,0.0,0.0,0.0,0.0,0.0,0.0,0.0,0.0,0.0,0.0,3.4719,3.5209,3.5543,3.5871,3.4921,3.4304,3.4764,3.4112,3.3744,3.4186,3.502,3.5478,3.5347,3.5969,3.6313,3.6217,3.6352,3.647,3.647,3.5893,3.563,3.5794,3.3942,3.3145,3.3273,3.2096,0.0,3.0004,3.013,2.959,2.8547,2.8686,2.8747,2.8698,2.8698,2.8955,2.9449,3.0332,3.0764,3.0904,3.133,3.1482,3.1539,3.167,3.1727,3.1784,3.2094,3.2135,3.212,3.2023,3.1319,0.0,2.8735,2.7611,2.661,2.5324,2.5005,2.5005,2.5005,2.5199,2.5938,2.7909,2.872,2.9651,3.1637,3.225,3.2398,3.2398,3.2398,3.2388,3.2527,3.2475,3.2398,3.2398,3.2398,3.2453,3.2508,3.314,3.3511,3.3165,3.3792,3.3843,3.2907,3.3177,3.3206,3.2675,3.2977,3.2977,3.2619,3.2206,3.2053,3.216,3.0793,3.0268,3.0643,2.9948,2.9957,0.0,0.0,0.0,0.0,0.0,0.0,0.0,0.0,0.0,0.0,0.0,3.0328,3.1872,0.0,3.3738,3.4267,3.4779,3.5019,3.4565,3.438,3.4353,3.449,3.3894,3.3641,3.4019,3.5054,3.5547,3.5169,3.5793,3.604,3.5778,3.5828,3.5894,3.5894,3.553,3.5397,3.5446,3.4284,3.3828,3.41,3.334,3.2498,3.1678,3.1678,3.1054,2.9989,2.9418,2.923,2.915,2.8632,2.8547,2.8897,2.9635,3.028,3.0734,3.1009,3.1297,3.167,3.1784,3.1841,3.194,3.215,3.2191,3.213,3.1668,3.1112,3.0302,2.9049,2.825,2.7668,2.7018,2.6877,2.6877,2.6877,2.7342,2.8136,2.9392,3.0127,3.0935,3.2149,3.2453,3.2453,3.2398,3.2523,3.2648,3.2523,3.2453,3.2398,3.2523,3.2453,3.2602,3.3102,3.3403,3.3799,3.4301,3.4955,3.5168,3.4601,3.4565,3.4166,3.3315,3.3341,3.3187,3.2808,3.2471,3.212,3.1709,3.0555,3.0045,3.0073,2.9862,3.0054,0.0,0.0,0.0,0.0,0.0,0.0,0.0,2.8648,2.9157,3.0101,3.0762,3.1626,3.2798,3.3452,3.3703,3.3433,3.4184,3.4415,3.3178,3.3617,3.3943,3.3756,3.3785,3.3868,3.3848,3.4985,3.5431,3.4789,3.53,3.5415,3.4932,3.4899,3.4899,3.4899,3.4899,3.4899,3.4899,3.4594,3.4594,3.4899,3.4546,3.4023,3.3289,3.3289,3.2675,3.155,3.0529,3.0085,3.0037,2.8948,2.8493,2.8539,2.8882,2.9666,3.0579,3.0644,3.1106,3.1603,3.1796,3.1898,3.2053,3.2191,3.2247,3.2084,3.1203,3.0779,3.0387,2.9378,2.8905,2.8691,2.8691,2.8691,2.8691,2.8691,2.9507,3.0287,3.0533,3.1374,3.2118,3.2367,3.2523,3.2624,3.2638,3.2905,3.2928,3.2609,3.2523,3.2453,3.2523,3.2563,3.2873,3.3678,3.3706,3.4295,3.5756,3.6073,3.62,3.6206,3.5832,3.5149,3.4029,3.3875,3.3552,3.2998,3.2803,3.233,3.1575,3.0812,3.0182,2.9609,2.9507,2.986,2.9623,2.9717,3.0087,3.0995,3.1038,3.1127,0.0,3.1951,3.1436,3.153,3.166,3.1709,3.163,3.2845,3.3746,3.3354,3.3624,3.359,3.2769,3.1879,3.1664,3.2554,3.3967,3.4796,3.4748,3.5182,3.5295,3.4899,3.4965,3.4982,3.4899,3.4899,3.4899,3.4899,3.4899,3.4899,3.4899,3.4851,3.4851,3.4899,3.4851,3.4264,3.3289,3.3289,3.2675,3.155,3.0782,3.0432,3.0368,2.9281,2.8811,2.8826,2.857,2.9134,3.0122,3.0533,3.0734,3.094,3.1728,3.1996,3.2038,3.2302,3.2398,3.2382,3.225,3.1475,3.0548,3.0417,2.9551,2.8691,2.8691,2.8691,2.8691,2.8691,2.8805,2.9192,3.0372,3.0679,3.1127,3.236,3.2578,3.2779,3.3439,3.3619,3.3346,3.2545,3.2523,3.2523,3.2453,3.2857,3.3145,3.3251,3.4535,3.5927,3.7168,3.7068,3.6883,3.6909,3.6554,3.6292,3.6153,3.5568,3.5214,3.5137,3.421,3.3696,3.3577,3.2603,3.164,3.0618,3.0508,3.0308,2.9617,3.0274,3.0805,3.129,3.179,3.2121,3.206,3.1751,3.1524,3.151,3.1612,3.1789,3.1884,3.2515,3.2829,3.2376,3.2696,3.2824,3.2354,3.2313,3.2557,3.3276,3.4631,3.529,3.4779,3.4768,3.4863,3.5008,3.4947,3.4899,3.4899,3.4899,3.4899,3.4899,3.4899,3.4899,3.4899,3.4899,3.4899,3.4899,3.5346,3.5283,3.4759,3.5284,3.4448,3.2546,3.2238,3.1273,2.987,2.9154,2.9093,2.9325,2.9015,2.9363,3.0129,3.035,3.0834,3.1546,3.1931,3.215,3.2247,3.2342,3.2398,3.2398,3.2398,3.2032,3.1637,3.1637,3.1243,3.085,3.085,3.085,3.085,3.085,3.085,3.1051,3.1631,3.1763,3.1965,3.2656,3.2827,3.303,3.3619,3.3839,3.3886,3.364,3.3671,3.3826,3.4076,3.4282,3.4609,3.5178,3.6156,3.7136,3.8037,3.8083,3.792,3.7584,3.7183,3.6611,3.5884,3.5267,3.4891,3.4891,3.4271,3.3819,3.3653,3.2587,3.1738,3.0973,3.0542,3.0132,2.9738,3.051,3.1001,3.1151,3.1626,3.1892,3.1385,3.132,3.1342,3.1134,3.1294,3.1467,3.138,3.1843,3.1951,3.1242,3.1824,3.2214,3.1765,3.2201,3.2846,3.3567,3.4457,3.5,3.4947,3.4985,3.5171,3.5345,3.5211,3.5071,3.5024,3.4947,3.4899,3.4899,3.4899,3.4899,3.4899,3.4899,3.4899,3.4916,3.5596,3.5894,3.5828,3.667,3.5926,3.3973,3.4022,3.2865,3.0962,3.0575,3.064,3.0937,3.0251,3.0402,3.092,3.063,3.109,3.1794,3.2074,3.2231,3.2342,3.2398,3.2398,3.2398,3.2398,3.2398,3.2398,3.2398,3.2398,3.2398,3.2398,3.2398,3.2398,3.2398,3.2398,3.2453,3.2578,3.2594,3.2648,3.2897,3.3146,3.349,3.3954,3.4332,3.4706,3.5158,3.5251,3.5288,3.5338,3.5498,3.6017,3.7077,3.7502,3.807,3.8789,3.8805,3.8565,3.804,3.7588,3.6862,3.5776,3.5177,3.491,3.491,3.444,3.407,3.3913,3.3092,3.2345,3.1623,3.1091,3.0513,3.0433,3.0527,3.0687,3.1116,3.0703,3.0434,3.139,3.1598,3.1406,3.075,3.0792,3.0551,2.9233,3.0658,3.155,3.0195,3.1183,3.1789,3.079,3.0666,3.1177,3.2578,3.2986,3.3873,3.5577,3.6361,3.6539,3.6097,3.5749,3.5543,3.5379,3.5071,3.4899,3.4899,3.4899,3.4899,3.4899,3.4899,3.4899,3.4916,3.5498,3.5795,3.5828,3.6569,3.647,3.5729,3.5877,3.5495,3.4719,3.4382,3.4252,3.4104,3.2593,3.2322,3.2716,3.1689,3.1275,3.132,3.1962,3.2191,3.2247,3.2342,3.2398,3.2398,3.2398,3.2398,3.2398,3.2398,3.2398,3.2398,3.2398,3.2398,3.2398,3.2398,3.2398,3.2453,3.2578,3.2594,3.2703,3.3043,3.3537,3.4098,3.4753,3.5307,3.5991,3.6961,3.7131,3.6644,3.5351,3.6045,3.7077,3.8218,3.8352,3.8652,3.9401,3.9061,3.859,3.8141,3.7663,3.7147,3.6492,3.6165,3.5976,3.5976,3.527,3.4876,3.4876,3.4795,3.423,3.3157,3.2721,3.1933,2.94,3.0051,3.0575,3.0893,3.0459,3.0039,3.0387,3.0141,2.9927,3.0182,3.0533,3.0691,3.0241,3.0659,3.1007,3.0814,3.0825,3.1141,3.1839,3.1524,3.1792,3.3203,3.4138,3.5084,3.6122,3.5966,3.598,3.6474,3.6211,3.5947,3.5804,3.5676,3.5413,3.4916,3.4899,3.4899,3.4899,3.4899,3.5083,3.5498,3.6533,3.7423,3.8127,3.8253,3.7708,3.6687,3.6738,3.6025,3.4899,3.4513,3.4577,3.4799,3.4042,3.4149,3.4564,3.3451,3.3092,3.3061,3.253,3.2342,3.2342,3.2398,3.2398,3.2398,3.2398,3.2398,3.2398,3.2398,3.2398,3.249,3.2839,3.268,3.2613,3.3422,3.3341,3.3239,3.3847,3.3996,3.4053,3.4279,3.4466,3.4727,3.5354,3.5546,3.6157,3.7483,3.7943,3.7939,3.7512,3.8014,3.8573,3.8927,3.9066,3.927,3.9609,3.9573,3.9345,3.8882,3.8108,3.7413,3.6799,3.5991,3.5834,3.6285,3.5355,3.5141,3.5569,3.4873,3.4099,3.3213,3.3073,3.2409,2.955,3.0014,3.022,3.0464,2.996,2.9442,2.9486,2.9231,2.9144,2.9843,3.0384,3.074,3.0601,3.0683,3.0804,3.1004,3.0981,3.1299,3.2451,3.2557,3.3107,3.4628,3.5528,3.6396,3.7422,3.6898,3.6851,3.7617,3.7233,3.6851,3.6582,3.641,3.598,3.535,3.5241,3.5211,3.5211,3.5432,3.5874,3.6602,3.7403,3.8278,3.9094,3.9023,3.8451,3.7465,3.7765,3.7201,3.6108,3.6107,3.6315,3.6519,3.5926,3.5943,3.6107,3.4549,3.4305,3.4525,3.3206,3.2752,3.2752,3.2752,3.2752,3.2705,3.2459,3.2398,3.2398,3.2398,3.2567,3.2859,3.3192,3.3218,3.3367,3.4127,3.4048,3.3964,3.4585,3.4694,3.4736,3.4836,3.5038,3.5291,3.5623,3.6185,3.6837,3.7748,3.8495,3.8969,3.886,3.9164,3.9379,3.9379,3.9484,3.9642,3.9781,3.9833,3.9778,3.9532,3.8618,3.7975,3.7561,3.6496,3.6008,3.6231,3.5495,3.5175,3.5351,3.4738,3.4229,3.4,3.3706,3.3152,3.0587,3.0206,2.9722,2.9777,2.9124,2.8522,2.8773,2.8757,2.8951,2.9756,3.0316,3.0593,3.0208,3.0651,3.1032,3.0834,3.1506,3.2208,3.2588,3.3559,3.4797,3.6492,3.6829,3.7614,3.9288,3.9025,3.9034,3.9552,3.8816,3.8143,3.7715,3.7188,3.6712,3.6251,3.6017,3.5929,3.5902,3.6497,3.7166,3.8002,3.8035,3.8327,3.8805,3.8969,3.8677,3.8084,3.892,3.8891,3.8328,3.899,3.9272,3.9206,3.8122,3.7682,3.7394,3.5147,3.4943,3.5678,3.4104,3.3517,3.3455,3.3398,3.3383,3.3229,3.2582,3.2398,3.2398,3.2428,3.2906,3.3413,3.349,3.3983,3.4491,3.4552,3.4552,3.4596,3.4787,3.4787,3.4845,3.4961,3.5416,3.5763,3.5763,3.7091,3.8042,3.7943,3.8931,3.9623,3.9325,3.9465,3.9551,3.9551,3.9726,3.9847,3.9967,3.9967,4.0027,4.0094,3.9231,3.8697,3.8676,3.7443,3.6516,3.6011,3.5638,3.5125,3.4559,3.453,3.482,3.5415,3.4669,3.4196,2.8779,2.8942,2.9214,2.8426,2.7737,2.747,2.8547,2.8369,2.8336,2.9643,3.051,3.0925,3.0804,3.1523,3.219,3.229,3.2642,3.2984,3.3291,3.3795,3.4329,3.4959,3.6485,3.7843,3.8677,3.9606,4.0389,4.1025,3.9881,3.91,3.8894,3.8755,3.8384,3.7775,3.7712,3.7512,3.7233,3.7503,3.7814,3.816,3.8566,3.8929,3.9148,3.9218,3.9119,3.8954,3.9189,3.9172,3.9007,3.9206,3.9272,3.9255,3.895,3.8884,3.8714,3.7227,3.6891,3.7021,3.6294,3.5086,3.3873,3.3512,3.3059,3.2613,3.2444,3.2398,3.249,3.2998,3.3275,3.3587,3.4482,3.4647,3.4722,3.5585,3.5523,3.5368,3.5922,3.603,3.603,3.6091,3.6457,3.6808,3.6808,3.7483,3.8116,3.8511,3.9208,3.9649,3.9462,3.9984,4.0317,4.0317,4.0817,4.1205,4.1259,4.11,4.0816,4.044,3.9263,3.8394,3.7968,3.6976,3.6603,3.6938,3.6387,3.6228,3.6577,3.6069,3.5909,3.6069,3.5841,3.565,2.8907,2.8982,2.9088,2.7915,2.7424,2.7469,2.8331,2.8445,2.8706,2.9675,3.0617,3.1218,3.1044,3.1732,3.2463,3.2904,3.3505,3.4142,3.4809,3.5538,3.6242,3.6999,3.8088,3.9044,3.9807,4.0487,4.1071,4.156,4.07,4.0072,3.9835,3.9727,3.9381,3.8833,3.8728,3.8687,3.8721,3.8488,3.8587,3.8937,3.9056,3.9202,3.9272,3.9272,3.9272,3.9272,3.9272,3.9272,3.9272,3.9272,3.9272,3.9272,3.9272,3.9272,3.9189,3.8002,3.7937,3.822,3.7222,3.6357,3.5457,3.4507,3.3939,3.351,3.2936,3.2732,3.287,3.3487,3.3826,3.4239,3.5003,3.5217,3.5416,3.5965,3.5936,3.583,3.6212,3.6289,3.6352,3.6723,3.7013,3.7254,3.7476,3.82,3.8869,3.9168,4.0015,4.0568,4.0282,4.0724,4.11,4.11,4.1394,4.1571,4.1571,4.1312,4.114,4.1037,4.0008,3.9234,3.8903,3.8046,3.7477,3.7302,3.6939,3.678,3.6867,3.6489,3.646,3.6751,3.6751,3.6616,2.9766,2.9421,2.8982,2.7688,2.7661,2.8007,2.8135,2.8768,2.9486,2.9913,3.0797,3.1389,3.11,3.1725,3.2468,3.3041,3.4082,3.5215,3.6485,3.744,3.8567,4.0087,4.0027,4.0279,4.1288,4.1248,4.13,4.1542,4.1272,4.0931,4.0656,4.0385,4.0115,3.9805,3.9501,3.9582,4.0155,3.9395,3.9311,3.9901,3.9484,3.9272,3.9272,3.9272,3.9272,3.9272,3.9272,3.9272,3.9272,3.9272,3.9272,3.9272,3.9272,3.9272,3.9189,3.8171,3.8393,3.895,3.767,3.7426,3.7411,3.5904,3.537,3.5052,3.3893,3.3495,3.3517,3.3983,3.4562,3.4987,3.5186,3.5628,3.607,3.5958,3.5973,3.6037,3.6037,3.61,3.6352,3.7013,3.7317,3.7559,3.7972,3.9129,3.9977,3.9862,4.0998,4.1704,4.1305,4.155,4.1737,4.168,4.1617,4.1593,4.1593,4.1245,4.1271,4.1736,4.0944,4.0419,4.0332,3.9565,3.8561,3.7433,3.7433,3.7143,3.6562,3.6562,3.6852,3.7433,3.7433,3.7307,2.9147,2.8525,2.7994,2.6855,2.7153,2.7835,2.8402,2.912,2.9872,3.0508,3.11,3.1428,3.1295,3.2083,3.2986,3.3625,3.4317,3.535,3.6955,3.6758,3.7128,3.8799,3.8901,3.9212,4.0127,4.0798,4.1209,4.1255,4.1408,4.1445,4.1411,4.1153,4.1101,4.1218,4.0871,4.0741,4.0816,4.0067,3.9749,3.9901,3.9484,3.9272,3.9272,3.9272,3.9272,3.9272,3.9272,3.9272,3.9272,3.9272,3.9272,3.9272,3.9272,3.9272,3.9255,3.9069,3.8739,3.846,3.8747,3.8533,3.79,3.6925,3.6182,3.5655,3.5418,3.4998,3.4701,3.5177,3.5064,3.4829,3.5292,3.5439,3.5529,3.5544,3.5864,3.6148,3.6148,3.6538,3.6877,3.6999,3.8027,3.8809,3.8571,3.9742,4.0696,4.0538,4.1157,4.1596,4.164,4.1894,4.2012,4.1759,4.2118,4.2415,4.2369,4.2058,4.1917,4.2029,4.1201,4.0507,4.003,3.9436,3.8752,3.8057,3.8043,3.7984,3.7883,3.7883,3.7941,3.8043,3.8043,3.8026,2.9479,2.892,2.8545,2.7675,2.791,2.8513,2.9256,3.0053,3.0617,3.0773,3.1247,3.1593,3.1331,3.2047,3.2904,3.3775,3.4465,3.5669,3.7781,3.8269,3.8842,4.0062,4.054,4.0784,4.0777,4.1153,4.1408,4.1408,4.1408,4.1453,4.1604,4.1498,4.1453,4.1604,4.1408,4.1318,4.1318,4.0741,4.0468,4.0468,3.9884,3.959,3.959,3.9379,3.9272,3.9272,3.9272,3.9272,3.9272,3.9272,3.9056,3.8725,3.8725,3.8477,3.8195,3.8576,3.851,3.8328,3.9023,3.8933,3.8422,3.8007,3.7229,3.6412,3.5909,3.5524,3.5447,3.5935,3.5845,3.5674,3.5978,3.6054,3.607,3.6006,3.6148,3.6444,3.6781,3.725,3.7685,3.8276,3.8959,3.9486,3.9546,4.0485,4.1195,4.1107,4.163,4.2021,4.1897,4.2021,4.2145,4.219,4.2266,4.2349,4.2365,4.2045,4.1851,4.1851,4.1456,4.0972,4.0409,4.0146,3.9595,3.8649,3.8649,3.8501,3.8202,3.8202,3.8202,3.8202,3.8202,3.8202,3.0125,2.9627,2.9365,2.8783,2.9007,2.9532,3.0145,3.0899,3.1329,3.1069,3.1436,3.1723,3.1472,3.1884,3.2644,3.374,3.4552,3.591,3.8454,3.972,4.0727,4.1655,4.2163,4.2269,4.1751,4.1603,4.1498,4.1498,4.1363,4.1346,4.1498,4.156,4.1604,4.1604,4.1604,4.1604,4.1604,4.1209,4.0977,4.0866,4.0221,3.9849,3.9746,3.9432,3.9272,3.9272,3.9272,3.9272,3.9272,3.9272,3.8941,3.8444,3.8444,3.8079,3.7632,3.8228,3.8292,3.819,3.8917,3.8887,3.8482,3.859,3.8026,3.7239,3.6495,3.6157,3.6146,3.6507,3.6538,3.6476,3.6523,3.6523,3.6569,3.6708,3.6754,3.7002,3.7777,3.8122,3.8607,3.9501,3.9863,4.0082,4.0405,4.1123,4.159,4.1528,4.1979,4.2269,4.2045,4.198,4.2093,4.2333,4.2158,4.198,4.198,4.172,4.1588,4.1588,4.1588,4.139,4.0799,4.0799,4.0231,3.9031,3.9031,3.8723,3.8052,3.8127,3.8142,3.8127,3.8202,3.8202,3.0817,3.0058,2.9486,2.9437,2.9971,3.0557,3.0643,3.1212,3.1763,3.1726,3.1763,3.18,3.1743,3.1869,3.2379,3.3681,3.4639,3.6028,3.8477,3.9458,4.0527,4.2161,4.176,4.1528,4.1916,4.1534,4.1255,4.1255,4.1453,4.1453,4.1255,4.1453,4.1604,4.1604,4.1604,4.1604,4.1604,4.1209,4.0819,4.0449,4.007,3.9694,3.9325,3.9325,3.9272,3.9272,3.9272,3.9272,3.9272,3.9272,3.9239,3.9172,3.9172,3.9139,3.909,3.9156,3.8566,3.7875,3.8597,3.8215,3.7517,3.785,3.81,3.8238,3.8181,3.7748,3.7203,3.7055,3.6662,3.6196,3.6054,3.5976,3.627,3.7326,3.7591,3.7919,3.9062,3.9345,3.9361,3.9487,4.0323,4.0911,4.0626,4.1374,4.1949,4.1625,4.1672,4.1654,4.1654,4.1654,4.1654,4.172,4.1654,4.1654,4.1654,4.1588,4.1588,4.1588,4.1588,4.139,4.0799,4.0799,4.0161,3.8855,3.8855,3.8427,3.7701,3.7853,3.7929,3.7929,3.8127,3.8202,3.1558,3.1129,3.0887,3.0896,3.1121,3.1472,3.1921,3.2245,3.2472,3.2446,3.2115,3.194,3.2397,3.2115,3.2325,3.3857,3.4428,3.5721,3.859,3.9722,4.0849,4.2468,4.2765,4.2911,4.3114,4.2562,4.1978,4.1488,4.156,4.1542,4.1453,4.1542,4.1604,4.1604,4.1604,4.1604,4.1604,4.1453,4.1255,4.11,4.0741,4.05,4.0303,3.9867,3.9642,3.9642,3.9432,3.9272,3.9272,3.9272,3.9272,3.9272,3.9056,3.9002,3.9013,3.9273,3.8835,3.8186,3.8918,3.8521,3.7705,3.7847,3.7902,3.7876,3.7876,3.77,3.7449,3.7373,3.7134,3.6968,3.6892,3.7126,3.7577,3.8044,3.8466,3.9015,3.9945,4.0166,4.0277,4.0688,4.1118,4.1373,4.1193,4.1546,4.1785,4.1588,4.1588,4.1588,4.1588,4.1588,4.1588,4.1588,4.1588,4.1588,4.1588,4.1588,4.1588,4.1588,4.1588,4.1522,4.1256,4.1256,4.0904,4.0005,4.0005,3.9508,3.8516,3.859,3.8366,3.7929,3.8142,3.8142,3.2607,3.249,3.2483,3.2488,3.2479,3.261,3.3128,3.3248,3.3252,3.3248,3.285,3.2641,3.3169,3.2835,3.2958,3.4316,3.5014,3.6364,3.9068,4.0639,4.199,4.3325,4.3728,4.3992,4.4237,4.357,4.2798,4.2026,4.1955,4.185,4.1622,4.1604,4.1604,4.1604,4.1604,4.1604,4.1604,4.1604,4.156,4.1408,4.1117,4.1052,4.1164,4.0644,4.0527,4.0747,4.033,4.0117,4.0117,3.9901,3.9776,3.9721,3.9404,3.9291,3.93,3.9573,3.9311,3.885,3.914,3.8739,3.8057,3.7849,3.7626,3.748,3.748,3.748,3.748,3.748,3.748,3.7528,3.7733,3.8144,3.8618,3.9029,3.9487,4.0024,4.0735,4.0893,4.1035,4.1494,4.1588,4.1588,4.1588,4.1588,4.1588,4.1588,4.1588,4.1588,4.1588,4.1588,4.1588,4.1588,4.1588,4.1588,4.1588,4.1588,4.1588,4.1588,4.1588,4.1588,4.1588,4.1588,4.1323,4.0715,4.0715,4.0146,3.8943,3.8943,3.8501,3.7777,3.7991,3.7991,3.4083,3.4066,3.4077,3.4093,3.4059,3.4059,3.4076,3.4068,3.4077,3.4098,3.4077,3.4086,3.4086,3.4086,3.4351,3.5238,3.6731,3.8382,4.0035,4.2356,4.4167,4.4975,4.4378,4.4202,4.501,4.436,4.3588,4.2851,4.2798,4.2447,4.1639,4.1604,4.1604,4.1604,4.1604,4.1604,4.1604,4.1604,4.1408,4.1024,4.1024,4.1233,4.1612,4.1561,4.2022,4.2723,4.2252,4.2092,4.2038,4.1229,4.0901,4.0843,4.0491,4.0388,4.0388,4.0404,4.024,3.9856,3.9182,3.8718,3.8381,3.7701,3.748,3.748,3.748,3.748,3.748,3.748,3.748,3.7638,3.8318,3.8507,3.8855,4.0245,4.0577,4.0767,4.143,4.1573,4.1573,4.1588,4.1588,4.1588,4.1588,4.1588,4.1588,4.1588,4.1588,4.1588,4.1588,4.1588,4.1588,4.1588,4.1588,4.1588,4.1588,4.1588,4.1588,4.1588,4.1588,4.1588,4.1588,4.1588,4.1241,4.0547,4.0478,3.9834,3.8546,3.8546,3.8188,3.7625,3.7625,3.7701,3.472,3.4835,3.4846,3.4852,3.4835,3.4835,3.4835,3.4863,3.4863,3.4861,3.4438,3.4266,3.4743,3.4461,3.4691,3.6551,3.7287,3.8643,4.1324,4.2485,4.3717,4.5659,4.6213,4.6169,4.5423,4.5059,4.4536,4.3761,4.3142,4.2693,4.2447,4.2429,4.2166,4.1622,4.1604,4.1604,4.1604,4.1604,4.156,4.1426,4.1967,4.2306,4.241,4.2656,4.2904,4.3145,4.274,4.2428,4.2199,4.1599,4.1576,4.1805,4.1071,4.113,4.1564,4.131,4.0896,4.0357,4.0119,3.9359,3.8476,3.8254,3.7859,3.7575,3.8033,3.8191,3.8286,3.8728,3.8539,3.8349,3.9013,3.9566,4.0056,4.0498,4.0956,4.1336,4.1541,4.1588,4.1588,4.1588,4.1588,4.1588,4.1588,4.1588,4.1588,4.1588,4.1588,4.1588,4.1588,4.1588,4.1588,4.1588,4.1588,4.1588,4.1588,4.1588,4.1588,4.1588,4.1588,4.1588,4.1588,4.1588,4.1522,4.1241,4.1241,4.0888,4.0076,3.9493,3.8767,3.7777,3.7777,3.7915,3.5255,3.5635,3.5611,3.5611,3.5611,3.5611,3.5611,3.5614,3.5631,3.563,3.5253,3.5061,3.553,3.5299,3.5479,3.6894,3.7956,3.9399,4.1712,4.291,4.3997,4.5268,4.6192,4.6288,4.5174,4.5205,4.5123,4.4675,4.3797,4.3188,4.2879,4.2816,4.2587,4.2078,4.2324,4.2464,4.2464,4.2464,4.2464,4.2464,4.2991,4.3377,4.3693,4.3877,4.4098,4.4193,4.3855,4.3367,0.0,4.2318,4.2075,4.1999,4.1437,4.1453,4.1785,4.1654,4.1336,4.0941,4.0688,4.004,3.925,3.8981,3.8586,3.8381,3.9076,3.9108,3.8965,3.9376,3.9202,3.9044,3.974,4.0261,4.0656,4.0909,4.1288,4.1588,4.1588,4.1588,4.1588,4.1588,4.1588,4.1588,4.1588,4.1588,4.1588,4.1588,4.1588,4.1588,4.1588,4.1588,4.1588,4.1588,4.1588,4.1588,4.1588,4.1588,4.1588,4.1588,4.1588,4.1588,4.1588,4.1588,4.1588,4.1588,4.1588,4.1323,4.0799,3.9778,3.8914,3.8127,3.7915,3.7915,0.0,3.6256,3.6232,3.6284,3.6266,3.6215,3.6232,3.6172,0.0,3.6232,3.6232,3.6284,3.6446,3.6481,3.6575,3.6772,3.8811,4.0646,4.1512,4.3724,4.5005,4.4254,4.49,4.5134,4.4395,4.4979,4.5439,4.5475,4.464,4.387,4.319,4.3012,4.2921,4.2973,4.3623,4.3957,4.3904,4.3904,4.3904,4.3904,4.3957,4.4378,4.5098,4.515,4.5408,4.5786,4.5389,4.4635,4.3656,4.3157,4.2365,4.1654,4.1588,4.1522,4.1323,4.1522,4.1588,4.1494,4.0893,4.064,4.0482,3.974,3.9534,3.9708,4.0388,4.0087,3.9518,3.9629,3.9613,3.9756,4.0482,4.0672,4.083,4.1446,4.1588,4.1588,4.1588,4.1588,4.1588,4.1588,4.1588,4.1588,4.1588,4.1588,4.1588,4.1588,4.1588,4.1588,4.1588,4.1588,4.1588,4.1588,4.1588,4.1588,4.1588,4.1588,4.1588,4.1588,4.1588,4.1588,4.1588,4.1588,4.1588,4.1588,4.1588,4.1323,4.0799,3.958,3.8782,3.8546,3.7976,3.7763,3.5696,0.0,3.5576,3.6163,3.587,3.5449,0.0,3.501,3.4797,3.5351,0.0,3.5975,3.7721,3.7109,3.7123,3.9545,4.0474,4.1456,4.294,4.5393,4.6509,4.5182,4.5835,4.5904,4.4565,4.5115,4.5559,4.5577,4.4731,4.4456,4.488,4.4286,4.4188,4.4695,4.4871,4.4613,4.3904,4.3904,4.3904,4.3904,4.4518,4.4922,4.5115,4.5694,4.5898,4.5786,4.5337,4.4729,4.4037,4.3169,4.2585,4.2174,4.1785,4.1588,4.1522,4.1588,4.1588,4.1573,4.1415,4.102,4.0482,3.974,3.9882,4.0372,4.0546,4.0087,3.9724,4.0798,4.0735,4.0498,4.1178,4.1351,4.1399,4.1541,4.1588,4.1588,4.1588,4.1588,4.1588,4.1588,4.1588,4.1588,4.1588,4.1588,4.1588,4.1588,4.1588,4.1588,4.1588,4.1588,4.1588,4.1588,4.1588,4.1588,4.1588,4.1588,4.1588,4.1588,4.1588,4.1588,4.1588,4.1588,4.1588,4.1588,4.1588,4.1241,4.0562,4.0424,3.9793,3.8708,3.8723,3.8516,3.5084,3.5682,3.5875,3.6606,3.612,3.5479,3.5486,0.0,0.0,0.0,0.0,0.0,3.7255,3.7199,3.7432,3.9138,4.0756,4.2502,4.4579,4.5786,4.6051,4.49,4.4887,4.4865,4.452,4.484,4.5419,4.6193,4.5417,4.4981,4.5035,4.4936,4.4845,4.4852,4.5541,4.5429,4.4466,4.4448,4.4448,4.4466,4.5238,4.5607,4.5624,4.588,4.5854,4.558,4.5213,4.4507,4.3512,4.3108,4.2459,4.1817,4.1654,4.1522,4.1456,4.1588,4.1588,4.1588,4.1588,4.1351,4.0988,4.0577,4.0719,4.1051,4.1051,4.0783,4.0609,4.1383,4.1336,4.113,4.1494,4.1588,4.1588,4.1588,4.1588,4.1588,4.1456,4.1522,4.1588,4.1456,4.1522,4.1588,4.1588,4.1588,4.1588,4.1588,4.1588,4.1588,4.1588,4.1588,4.1588,4.1588,4.1588,4.1588,4.1588,4.1588,4.1588,4.1588,4.1588,4.1588,4.1588,4.1588,4.1588,4.1588,4.1588,4.1374,4.1024,4.0851,4.0439,3.9722,3.9651,3.922,3.451,3.5808,3.6577,3.7075,3.6516,3.5852,3.5884,0.0,0.0,0.0,0.0,0.0,0.0,3.7492,3.8019,3.8218,4.0854,4.3603,4.5681,4.5501,4.4812,4.4008,4.3349,4.3226,4.4014,4.4218,4.492,4.6516,4.5944,4.5347,4.4885,4.5204,4.5149,4.4678,4.5733,4.5894,4.5163,4.5251,4.5321,4.5321,4.5954,4.6221,4.6172,4.5887,4.5632,4.5336,4.5015,4.4128,4.2986,4.308,4.2365,4.1303,4.1604,4.1588,4.139,4.1522,4.1588,4.1588,4.1588,4.1588,4.1588,4.1588,4.1588,4.1588,4.1588,4.1588,4.1588,4.1588,4.1588,4.1588,4.1588,4.1522,4.1522,4.1522,4.1522,4.1456,4.1323,4.139,4.1522,4.1323,4.1456,4.1588,4.1588,4.1588,4.1588,4.1588,4.1588,4.1588,4.1588,4.1588,4.1588,4.1588,4.1588,4.1588,4.1588,4.1588,4.1588,4.1588,4.1588,4.1588,4.1588,4.1588,4.1588,4.1588,4.1588,4.1588,4.1588,4.1122,4.0851,4.0851,4.0493,3.9935,3.532,3.6577,3.7171,3.6559,3.6256,3.6184,3.6262,0.0,0.0,0.0,0.0,0.0,0.0,3.9629,3.9904,4.0985,4.2878,4.4424,4.5005,4.5185,4.4712,4.3195,4.3014,4.2846,4.2273,4.2908,4.3757,4.4796,4.476,4.5267,4.6569,4.5419,4.5267,4.6404,4.5391,4.4999,4.5428,4.6065,4.6365,4.6365,4.6394,4.6235,4.6038,4.5887,4.5529,4.5032,4.4541,4.4071,4.3638,4.3218,4.2743,4.219,4.2254,4.198,4.1588,4.1588,4.1588,4.1588,4.1588,4.1588,4.1588,4.139,4.1456,4.1588,4.139,4.1456,4.1588,4.1588,4.1588,4.1588,4.139,4.1323,4.1339,4.1221,4.1169,4.1169,4.1169,4.1205,4.1323,4.1323,4.1456,4.1588,4.1588,4.1588,4.1588,4.1588,4.1588,4.1588,4.1588,4.1588,4.1588,4.1588,4.1588,4.1588,4.1588,4.1588,4.1588,4.1588,4.1588,4.1588,4.1588,4.1588,4.1588,4.1588,4.1588,4.1588,4.1588,4.1522,4.1307,4.094,4.0873,4.06,3.5375,3.6316,3.679,3.7275,3.7338,3.718,3.679,0.0,0.0,0.0,0.0,0.0,0.0,3.9663,4.0823,4.2924,4.3992,4.4668,4.4869,4.4681,4.4091,4.2938,4.2502,4.2344,4.2432,4.2794,4.3412,4.4307,4.4378,4.4547,4.4876,4.5036,4.4991,4.4804,4.5336,4.5602,4.5492,4.6218,4.633,4.5894,4.5686,4.5702,4.587,4.5131,4.4852,4.4978,4.4592,4.4179,4.3772,4.3202,4.2648,4.2174,4.1866,4.1554,4.1355,4.1355,4.1355,4.1355,4.1355,4.1355,4.1288,4.1221,4.1339,4.139,4.1323,4.1456,4.1588,4.1588,4.1522,4.139,4.1323,4.1272,4.1153,4.1102,4.1117,4.1117,4.1117,4.1221,4.1323,4.1323,4.1456,4.1588,4.1588,4.1588,4.1588,4.1588,4.1588,4.1588,4.1588,4.1588,4.1588,4.1588,4.1588,4.1588,4.1588,4.1588,4.1588,4.1588,4.1588,4.1588,4.1588,4.1588,4.1588,4.1588,4.1588,4.1588,4.1588,4.1736,4.167,4.1522,4.1704,4.1425,3.5254,3.5951,3.634,3.7744,0.0,3.8016,3.8194,3.7202,0.0,0.0,0.0,0.0,3.8754,4.0067,4.1829,4.4394,4.4823,4.4799,4.4593,4.4055,4.336,4.2622,4.199,4.1894,4.2599,4.2669,4.3031,4.3925,4.3978,4.3828,4.3404,4.4554,4.4731,4.3704,4.5386,4.6059,4.551,4.6041,4.6083,4.56,4.5374,4.5428,4.5717,4.4698,4.4502,4.4886,4.4682,4.4253,4.368,4.3169,4.2615,4.1964,4.1472,4.1236,4.1117,4.1117,4.1117,4.1117,4.1117,4.1117,4.1117,4.1034,4.1153,4.1256,4.1189,4.1323,4.1472,4.1472,4.1406,4.1256,4.1256,4.1153,4.1034,4.0966,4.0966,4.0966,4.1034,4.1153,4.1272,4.1323,4.1456,4.1588,4.1588,4.1588,4.1588,4.1588,4.1588,4.1588,4.1588,4.1588,4.1588,4.1588,4.1588,4.1588,4.1588,4.1588,4.1588,4.1588,4.1588,4.1588,4.1588,4.1588,4.1588,4.1588,4.1588,4.1588,4.167,4.1833,4.1963,4.2028,4.2254,4.2109,3.5236,3.5951,3.6213,3.707,3.7288,0.0,4.1211,4.0562,0.0,4.3378,0.0,4.1175,4.1304,4.2343,4.37,4.533,4.5478,4.4953,4.3794,4.3156,4.2587,4.178,4.1639,4.1622,4.1674,4.1692,4.207,4.3014,4.3067,4.3438,4.4147,4.4324,4.4678,4.5298,4.5439,4.5492,4.5492,4.5545,4.5882,4.6501,4.6358,4.6035,4.558,4.5372,4.5035,4.4626,4.4626,4.4179,4.3512,4.3453,4.2785,4.1803,4.1803,4.1507,4.1117,4.1117,4.1117,4.1117,4.1117,4.1117,4.1034,4.0882,4.095,4.1102,4.0867,4.095,4.1117,4.1117,4.1117,4.1102,4.1102,4.095,4.0799,4.0593,4.0524,4.0593,4.0799,4.0966,4.1169,4.1256,4.1456,4.1588,4.1588,4.1588,4.1588,4.1588,4.1588,4.1588,4.1588,4.1588,4.1588,4.1588,4.1588,4.1588,4.1588,4.1588,4.1588,4.1588,4.1588,4.1588,4.1588,4.1588,4.1588,4.1588,4.1588,4.167,4.1898,4.1898,4.2077,4.2381,4.2381,4.2381,3.396,3.5508,3.688,3.7744,3.7945,0.0,0.0,4.0258,4.0427,4.2695,4.2154,4.1304,4.156,4.2274,4.3094,4.3801,4.4085,4.3903,4.3044,4.2835,4.2517,4.171,4.1604,4.1604,4.1604,4.1604,4.1727,4.2088,4.2105,4.2273,4.2599,4.3092,4.3286,4.3075,4.3973,4.4254,4.3832,4.4272,4.4577,4.4681,4.4065,4.4101,4.4699,4.387,4.3875,4.4587,4.4587,4.444,4.4105,4.3213,4.2645,4.2157,4.1343,4.0851,4.0746,4.0746,4.0746,4.0746,4.0746,4.0746,4.0746,4.0662,4.073,4.0882,4.0799,4.095,4.1117,4.1117,4.1034,4.0882,4.0882,4.0867,4.073,4.0524,4.0593,4.073,4.095,4.1086,4.1272,4.1456,4.1522,4.1588,4.1588,4.1588,4.1588,4.1588,4.1588,4.1588,4.1588,4.1588,4.1588,4.1588,4.1588,4.1588,4.1588,4.1588,4.1588,4.1588,4.1588,4.1588,4.1588,4.1588,4.1588,4.1588,4.1588,4.167,4.1898,4.2012,4.2125,4.2381,4.2508,4.2508,3.381,3.5442,3.7025,3.8095,0.0,0.0,4.0229,4.0203,4.04,4.2286,4.2249,4.1876,4.1959,4.2383,4.281,4.2908,4.3045,4.2936,4.2591,4.245,4.2174,4.1674,4.1604,4.1604,4.1604,4.156,4.156,4.1604,4.156,4.156,4.1604,4.2359,4.2552,4.2008,4.3237,4.3553,4.2816,4.3307,4.3273,4.2758,4.2354,4.2834,4.4096,4.3437,4.3681,4.4587,4.4587,4.444,4.4179,4.2953,4.2269,4.1771,4.0836,4.0524,4.0524,4.0524,4.0524,4.0524,4.0524,4.0524,4.0524,4.0524,4.0593,4.073,4.073,4.0814,4.0898,4.0898,4.0882,4.0799,4.073,4.073,4.0662,4.0401,4.0593,4.0799,4.0677,4.1003,4.1241,4.1091,4.1241,4.1323,4.1107,4.1091,4.1091,4.1091,4.1091,4.1091,4.1091,4.1107,4.1174,4.1256,4.1256,4.1256,4.1256,4.1256,4.1256,4.1256,4.146,4.1543,4.1472,4.1527,4.1586,4.1586,4.1789,4.205,4.2351,4.2452,4.2568,4.2781,4.2831,4.2831,3.5131,3.589,3.6395,3.7885,0.0,0.0,4.1635,4.0943,4.0537,4.3002,4.3497,4.3321,4.2808,4.3028,4.3255,4.3162,4.2619,4.225,4.2392,4.1823,4.1471,4.156,4.1604,4.1604,4.1604,4.1471,4.1471,4.1604,4.1471,4.1471,4.1604,4.2359,4.2798,4.2798,4.35,4.3535,4.2798,4.2798,4.2258,4.1226,4.176,4.2687,4.3902,4.4636,4.4814,4.4587,4.4587,4.4179,4.3453,4.2769,4.1706,4.0524,4.0524,4.0524,4.0524,4.0524,4.0524,4.0524,4.0524,4.0524,4.0524,4.0524,4.0524,4.0524,4.0524,4.0524,4.0524,4.0524,4.0662,4.073,4.0524,4.0539,4.0385,4.0066,4.0401,4.0593,3.9824,4.0578,4.1039,4.01,4.0409,4.0578,3.9975,3.9889,3.9889,3.9889,3.9889,3.9889,3.9889,4.006,4.0285,4.0455,4.0524,4.0524,4.0524,4.0524,4.0524,4.0539,4.11,4.1372,4.1102,4.1395,4.1484,4.1484,4.213,4.2757,4.331,4.331,4.338,4.3589,4.3589,4.338,3.3259,3.5,0.0,3.6692,0.0,0.0,0.0,4.1097,0.0,4.3222,4.3463,4.3228,4.2519,4.2418,4.2234,4.1841,4.1569,4.147,4.1557,4.1394,4.1318,4.1426,4.1471,4.1471,4.1471,4.1515,4.1453,4.1346,4.1453,4.1471,4.1318,4.1726,4.1866,4.1666,4.2076,4.2139,4.1821,4.2143,4.2111,4.1778,4.2689,4.3098,4.3082,4.362,4.4156,4.4587,4.4587,4.4514,4.4179,4.297,4.2029,4.1158,4.0715,4.0524,4.0524,4.0524,4.0524,4.0524,4.0524,4.0524,4.0524,4.0524,4.0524,4.0524,4.0524,4.0524,4.0524,4.0524,4.0524,4.0524,4.0207,4.0137,4.0137,3.9996,3.998,3.9965,3.9753,4.0005,4.0255,3.996,4.0045,4.0115,3.9905,3.9889,3.9889,3.9889,3.9889,3.9975,4.006,4.0285,4.0455,4.0455,4.0524,4.0524,4.0524,4.0524,4.0724,4.1131,4.1133,4.1148,4.1372,4.1878,4.2176,4.2176,4.2375,4.2597,4.2854,4.2854,4.2996,4.3169,4.3169,4.3098,3.4164,3.5957,0.0,3.7551,3.9058,4.0606,4.0818,4.1607,4.2525,4.3314,4.3463,4.3246,4.2594,4.2253,4.1872,4.1345,4.1138,4.1029,4.1152,4.1152,4.118,4.1318,4.1318,4.1213,4.1006,4.1206,4.1258,4.0882,4.1206,4.1335,4.1209,4.1346,4.1363,4.1209,4.1363,4.1363,4.1163,4.1722,4.1926,4.1697,4.2923,4.3291,4.2814,4.3521,4.413,4.4587,4.4587,4.444,4.4105,4.297,4.2078,4.1459,4.0783,4.0524,4.0524,4.0524,4.0524,4.0524,4.0524,4.0524,4.0524,4.0524,4.0524,4.0524,4.0524,4.0401,4.0331,4.0331,4.0176,4.0021,3.9824,3.9625,3.9538,3.9538,3.961,3.961,3.9162,3.9493,3.9763,3.9334,3.9421,3.9493,3.9262,3.9262,3.9349,3.9349,3.9406,3.9565,3.9722,3.9879,3.995,4.0036,4.0036,4.0036,4.0036,4.0294,4.0614,4.1024,4.1306,4.1593,4.183,4.2225,4.2423,4.2423,4.2697,4.2969,4.3251,4.3251,4.3251,4.3414,4.3414,4.3267,3.6614,3.7778,3.875,3.9388,3.9745,4.0322,4.1937,4.2249,4.2433,4.3314,4.3497,4.3303,4.2736,4.2404,4.2015,4.142,4.1082,4.0935,4.1047,4.1093,4.1123,4.1163,4.1209,4.0993,4.0438,4.0815,4.0891,4.0403,4.0833,4.1123,4.1163,4.1209,4.1163,4.1163,4.1146,4.1053,4.0772,4.1533,4.1714,4.1322,4.2757,4.33,4.3109,4.408,4.457,4.457,4.4514,4.4105,4.3453,4.2707,4.2013,4.1459,4.0783,4.0524,4.0524,4.0524,4.0524,4.0524,4.0524,4.0524,4.0524,4.0524,4.0524,4.0455,4.0455,4.0261,3.9996,3.9925,3.9681,3.9364,3.9364,3.9075,3.8782,3.8782,3.9162,3.9307,3.8427,3.9045,3.9478,3.8412,3.8649,3.887,3.8277,3.8366,3.8516,3.8516,3.8723,3.887,3.9104,3.9104,3.9207,3.9499,3.9514,3.9529,3.9589,4.0142,4.0516,4.0576,4.1698,4.2387,4.2447,4.2447,4.2447,4.2447,4.303,4.3503,4.391,4.391,4.391,4.391,4.391,4.3738,3.5332,3.6437,0.0,3.7882,3.8933,4.0322,4.1937,4.1809,4.1772,4.3185,4.3497,4.3173,4.2105,4.2067,4.1837,4.0787,4.0781,4.0935,4.0935,4.0935,4.0982,4.114,4.1123,4.1071,4.0961,4.1111,4.1065,4.0787,4.1001,4.1134,4.0965,4.1117,4.1024,4.0662,4.0819,4.0724,4.0436,4.146,4.2033,4.2064,4.3233,4.3822,4.3863,4.4088,4.4229,4.4155,4.3756,4.3486,4.3229,4.2157,4.1641,4.1459,4.0783,4.0524,4.0524,4.0524,4.0524,4.0524,4.0524,4.0524,4.0524,4.0524,4.0524,4.0455,4.0207,4.0066,3.9925,3.961,3.9451,3.9292,3.9002,3.8855,3.8708,3.8412,3.8427,3.8501,3.8277,3.8412,3.8486,3.8277,3.8277,3.8352,3.8202,3.8366,3.859,3.8723,3.8943,3.9031,3.9104,3.9265,3.9531,4.0127,4.0187,4.0397,4.092,4.1085,4.1384,4.1908,4.2207,4.2581,4.3105,4.3135,4.3135,4.3135,4.3254,4.3329,4.3423,4.3423,4.3423,4.3423,4.3423,4.3423,3.5866,0.0,0.0,3.7912,3.8951,4.0162,4.1152,4.1235,4.1342,4.2232,4.2249,4.1902,4.1034,4.0867,4.0707,4.0237,4.0336,4.055,4.0866,4.0935,4.1,4.0982,4.0982,4.0891,4.0574,4.0851,4.0903,4.0447,4.0804,4.0995,4.0935,4.0853,4.0806,4.068,4.0549,4.0523,4.0731,4.1499,4.2076,4.2423,4.3331,4.3822,4.3864,4.4039,4.4097,4.4097,4.3502,4.3306,4.3185,4.1965,4.1525,4.1459,4.0783,4.0524,4.0524,4.0524,4.0524,4.0524,4.0524,4.0524,4.0524,4.0524,4.0401,4.0191,4.0066,3.9696,3.9394,3.9162,3.9002,3.8797,3.8575,3.8501,3.8501,3.8277,3.8202,3.8202,3.8202,3.8202,3.8202,3.8277,3.8366,3.8352,3.8501,3.8649,3.8885,3.9031,3.9445,3.9727,3.9727,4.0084,4.0487,4.0831,4.0876,4.101,4.1354,4.1669,4.1998,4.2419,4.2656,4.297,4.3329,4.3329,4.3329,4.3329,4.3329,4.3329,4.3329,4.3329,4.3329,4.3329,4.3329,4.3329,3.6474,0.0,3.7589,3.8475,3.9203,3.9768,4.0127,4.0375,4.0643,4.0917,4.0817,4.0491,3.9835,3.9558,3.9417,3.9475,3.9697,4.0078,4.0642,4.0896,4.1047,4.0935,4.0935,4.0676,4.013,4.0555,4.0659,4.0112,4.0573,4.0888,4.0823,4.0631,4.0583,4.068,4.0271,4.034,4.1047,4.1485,4.1999,4.2535,4.328,4.3628,4.3628,4.3923,4.4039,4.3864,4.3339,4.3064,4.2863,4.1787,4.1343,4.1276,4.0715,4.0524,4.0524,4.0524,4.0524,4.0524,4.0524,4.0524,4.0524,4.0524,4.0261,3.9996,3.9925,3.9394,3.8723,3.8649,3.8427,3.8142,3.8202,3.8202,3.8202,3.8202,3.8202,3.8202,3.8202,3.8202,3.8277,3.8441,3.8516,3.859,3.8797,3.912,3.9356,3.9516,4.0142,4.0561,4.0561,4.1055,4.1429,4.1534,4.1549,4.1594,4.1713,4.2222,4.2536,4.2536,4.303,4.3329,4.3329,4.3329,4.3329,4.3329,4.3329,4.3329,4.3329,4.3329,4.3329,4.3329,4.3329,4.3329,3.4805,0.0,3.7589,3.8475,3.8781,3.8962,3.9363,3.895,3.8791,3.9779,4.0384,4.0239,3.8795,3.9005,3.9065,3.7984,3.8915,3.9796,3.9991,4.055,4.0935,4.1047,4.0982,4.0836,4.078,4.0866,4.0836,4.078,4.0866,4.0776,4.0583,4.0534,4.032,3.9884,3.9781,3.9993,4.0529,4.1117,4.1789,4.2518,4.3414,4.3763,4.3628,4.3923,4.3747,4.3023,4.2492,4.2029,4.1507,4.0919,4.0646,4.0646,4.0524,4.0524,4.0524,4.0524,4.0524,4.0524,4.0524,4.0524,4.0524,4.0524,4.0261,3.9925,3.961,3.9017,3.8441,3.8156,3.8005,3.8005,3.8127,3.8202,3.8202,3.8441,3.8366,3.8202,3.8202,3.8366,3.8441,3.8516,3.8649,3.8797,3.9031,3.9565,4.0025,4.0262,4.0831,4.125,4.125,4.1324,4.1594,4.2162,4.2314,4.2462,4.303,4.315,4.321,4.321,4.3284,4.3329,4.3329,4.3329,4.3329,4.3329,4.3329,4.3329,4.3329,4.3329,4.3329,4.3329,4.3329,4.3329,3.498,3.6431,3.7649,3.8505,3.8707,3.8734,3.8905,3.8472,3.8329,3.9065,3.927,3.9093,3.8369,3.8006,3.7742,3.7568,3.8476,3.9323,3.9738,4.0481,4.1047,4.1093,4.0982,4.0935,4.0982,4.0935,4.0888,4.0888,4.0888,4.0776,4.0517,4.0387,4.0171,3.9918,3.9625,3.9834,4.0638,4.1117,4.2005,4.3148,4.3538,4.3704,4.3628,4.3509,4.3251,4.2899,4.2412,4.19,4.1256,4.073,4.0524,4.0524,4.0524,4.0524,4.0524,4.0524,4.0524,4.0524,4.0524,4.0524,4.0524,4.0524,4.0106,3.961,3.9307,3.8797,3.8292,3.8005,3.8005,3.8066,3.8202,3.8202,3.8202,3.8277,3.8277,3.8202,3.8202,3.8366,3.859,3.8811,3.9328,3.9728,3.9816,4.0353,4.086,4.095,4.1504,4.1938,4.1938,4.216,4.241,4.2708,4.2738,4.2842,4.314,4.325,4.3329,4.3329,4.3329,4.3329,4.3329,4.3329,4.3329,4.3329,4.3329,4.3329,4.3329,4.3329,4.3329,4.3329,4.3329,4.3329,3.4757,3.6346,3.7601,3.8345,3.8774,3.8889,3.856,3.8205,3.8061,3.839,3.8066,3.7819,3.8222,3.7648,3.7265,3.7776,3.852,3.9185,3.9675,4.0481,4.1047,4.1111,4.0982,4.0935,4.1047,4.0935,4.0871,4.0776,4.0776,4.0631,4.032,4.0138,3.9986,3.9884,3.952,3.981,4.0942,4.1637,4.2535,4.3628,4.3628,4.3568,4.3388,4.3129,4.2821,4.2508,4.2142,4.1688,4.1055,4.0646,4.0524,4.0524,4.0524,4.0524,4.0524,4.0524,4.0524,4.0524,4.0524,4.0524,4.0524,4.0524,4.0021,3.9379,3.9235,3.8649,3.8066,3.7929,3.8005,3.8142,3.8202,3.8202,3.8202,3.8277,3.8202,3.8202,3.8352,3.8501,3.8782,3.9327,3.9979,4.0442,4.0621,4.119,4.1624,4.1624,4.2192,4.2518,4.2518,4.2778,4.2915,4.2915,4.2996,4.2981,4.2981,4.317,4.3329,4.3329,4.3329,4.3329,4.3329,4.3329,4.3329,4.3329,4.3329,4.3329,4.3329,4.3329,4.3329,4.3329,4.3329,4.3329,3.3153,3.5302,3.733,3.7902,3.8933,3.9549,3.8394,3.7831,3.7514,3.7567,3.6947,3.6843,3.8294,3.8641,3.8641,3.857,3.9146,3.9709,3.9853,4.0481,4.0935,4.1093,4.0982,4.0888,4.0935,4.0871,4.0776,4.0534,4.0534,4.0271,3.9781,3.9729,3.9625,3.9325,3.9325,3.9951,4.1342,4.28,4.3545,4.3628,4.3763,4.3525,4.2961,4.3157,4.2569,4.139,4.1374,4.1055,4.0524,4.0524,4.0524,4.0524,4.0524,4.0524,4.0524,4.0524,4.0524,4.0524,4.0524,4.0524,4.0524,4.0524,4.0021,3.9364,3.9379,3.8723,3.7929,3.7929,3.7929,3.7929,3.8127,3.8202,3.8277,3.8441,3.8366,3.8277,3.8708,3.8797,3.9121,4.0144,4.0382,4.0591,4.122,4.1878,4.2312,4.2312,4.2693,4.2936,4.2936,4.282,4.2688,4.2688,4.2915,4.2981,4.2981,4.317,4.3329,4.3329,4.3329,4.3329,4.3329,4.3329,4.3329,4.3329,4.3329,4.3329,4.3329,4.3329,4.3329,4.3329,4.3329,4.3329,3.3319,3.476,3.5939,3.6157,3.7286,3.8043,3.69,3.6876,3.7206,3.743,3.7267,3.737,3.8405,3.8242,3.8087,3.8508,3.9215,3.9698,3.9744,4.0435,4.0935,4.1093,4.0982,4.0935,4.1047,4.0935,4.0776,4.0534,4.0485,4.0288,3.9729,3.9677,3.9573,3.9325,3.9272,3.9967,4.1409,4.1939,4.2684,4.3628,4.3388,4.3146,4.2899,4.2285,4.1754,4.1256,4.0919,4.0662,4.0524,4.0524,4.0524,4.0524,4.0524,4.0524,4.0524,4.0524,4.0524,4.0524,4.0524,4.0524,4.0455,4.0261,3.9824,3.9307,3.8943,3.8501,3.8066,3.7929,3.8005,3.8142,3.8202,3.8202,3.8202,3.8277,3.8277,3.8277,3.8575,3.9061,3.9579,3.9905,4.0707,4.1344,4.1566,4.2159,4.2589,4.2589,4.2702,4.285,4.285,4.2607,4.2541,4.2688,4.2754,4.2835,4.2981,4.317,4.3329,4.3329,4.3329,4.3329,4.3329,4.3329,4.3329,4.3329,4.3329,4.3329,4.3329,4.3329,4.3329,4.3329,4.3329,4.3329,3.2583,3.389,3.4955,3.5634,3.6471,3.7128,3.7158,3.6838,3.6711,3.7353,3.7267,3.7318,3.8077,3.7818,3.7801,3.8801,3.9595,4.0095,4.0095,4.0543,4.0888,4.0888,4.084,4.0776,4.0745,4.068,4.0534,4.0271,4.0221,4.0037,3.9573,3.9573,3.9468,3.9325,3.952,4.0216,4.1409,4.1486,4.2169,4.3388,4.2883,4.2508,4.2302,4.1638,4.1189,4.0987,4.0662,4.0524,4.0524,4.0524,4.0524,4.0524,4.0524,4.0524,4.0524,4.0524,4.0524,4.0455,4.0401,4.0331,4.0261,3.991,3.9538,3.9147,3.8723,3.8427,3.8202,3.8066,3.8066,3.8202,3.8202,3.8202,3.8202,3.8202,3.8202,3.826,3.8658,3.9264,3.9782,4.0079,4.0993,4.1789,4.201,4.2408,4.2688,4.2688,4.2622,4.2622,4.2622,4.2392,4.2325,4.2459,4.2541,4.2688,4.2915,4.3076,4.325,4.3329,4.3329,4.3329,4.3329,4.3329,4.3329,4.3329,4.3329,4.3329,4.3329,4.3329,4.3329,4.3329,4.3329,4.3329,0.0,0.0,0.0,3.6403,3.6627,3.6967,3.9242,3.7707,3.6116,3.7249,3.6853,3.6542,3.7335,3.7508,3.7974,3.9405,4.0319,4.0853,4.0888,4.0871,4.0776,4.0534,4.0468,4.0387,4.0138,4.007,3.9969,3.9729,3.9677,3.9573,3.9325,3.9272,3.9272,3.9272,3.9967,4.0696,4.1409,4.1655,4.2167,4.2899,4.2302,4.1785,4.1323,4.1256,4.0987,4.0524,4.0524,4.0524,4.0524,4.0524,4.0524,4.0524,4.0524,4.0524,4.0524,4.0524,4.0524,4.0455,4.0137,4.0011,3.9925,3.9523,3.9147,3.8782,3.8797,3.8501,3.8202,3.8202,3.8202,3.8202,3.8202,3.8202,3.8202,3.8202,3.8202,3.8391,3.9059,3.9357,3.9777,4.0669,4.1317,4.1951,4.2585,4.2688,4.2688,4.2688,4.2555,4.2392,4.2392,4.2242,4.2092,4.2092,4.2325,4.2474,4.2688,4.2915,4.3076,4.325,4.3329,4.3329,4.3329,4.3329,4.3329,4.3329,4.3329,4.3329,4.3329,4.3329,4.3329,4.3329,4.3329,4.3329,3.0747,0.0,0.0,0.0,0.0,0.0,3.6596,3.5965,3.5775,3.7206,3.6955,3.6644,3.7379,3.8027,3.8355,3.8156,3.9181,4.0233,4.0802,4.0728,4.0583,4.0534,4.0337,4.0171,4.0138,4.007,3.9969,3.9729,3.9677,3.9573,3.9325,3.9272,3.9272,3.9272,3.9471,4.0166,4.1409,4.1164,4.1662,4.2899,4.198,4.144,4.1323,4.0919,4.0662,4.0524,4.0524,4.0524,4.0524,4.0524,4.0524,4.0524,4.0524,4.0524,4.0524,4.0524,4.0524,4.0455,4.0137,4.0011,3.9854,3.9162,3.8855,3.8708,3.8412,3.8277,3.8202,3.8202,3.8202,3.8202,3.8202,3.8202,3.8202,3.8202,3.8202,3.8391,3.9059,3.9615,4.011,4.0858,4.1528,4.2038,4.2213,4.2242,4.2242,4.2242,4.2242,4.2175,4.2175,4.2175,4.2175,4.2325,4.2474,4.2688,4.2915,4.3076,4.325,4.3329,4.3329,4.3329,4.3329,4.3329,4.3329,4.3329,4.3329,4.3329,4.3329,4.3329,4.3329,4.3329,4.3329,4.3329,3.1237,3.2422,3.3589,3.4132,0.0,0.0,3.6589,3.6195,3.6052,3.7453,3.7205,3.6732,3.6696,3.7134,3.7391,3.7244,3.7946,3.8917,4.0092,4.0263,4.0271,4.0171,4.0037,3.9884,3.9781,3.9781,3.9677,3.952,3.952,3.9468,3.9325,3.9023,3.9023,3.9272,3.8788,3.9364,4.1107,4.0285,4.0639,4.2238,4.1323,4.0919,4.0987,4.0662,4.0524,4.0524,4.0524,4.0524,4.0524,4.0524,4.0524,4.0524,4.0524,4.0524,4.0524,4.0524,4.0385,4.0106,3.9768,3.9481,3.9177,3.8501,3.8352,3.8352,3.8142,3.8127,3.8202,3.8202,3.8202,3.8202,3.8202,3.8202,3.8202,3.8202,3.8202,3.8391,3.9059,3.9668,4.0292,4.096,4.1642,4.2092,4.2092,4.2092,4.2092,4.2092,4.2092,4.2092,4.2092,4.2092,4.2175,4.2242,4.2474,4.2703,4.2835,4.3076,4.325,4.325,4.3329,4.3329,4.3329,4.3329,4.3329,4.3329,4.3329,4.3329,4.3329,4.3329,4.3329,4.3329,4.3329,4.3329,3.2214,3.2493,3.3157,3.5098,3.5105,0.0,3.7724,3.7172,3.6483,3.7729,3.7405,3.6655,3.5785,3.569,3.591,3.6451,3.6738,3.7411,3.9024,3.9661,3.9885,3.9713,3.9677,3.9573,3.9325,3.9272,3.9272,3.9272,3.9272,3.9272,3.9202,3.8645,3.859,3.9148,3.8026,3.8408,4.0524,3.9298,3.9567,4.1256,4.0608,4.0331,4.0455,4.0455,4.0455,4.0524,4.0524,4.0524,4.0524,4.0524,4.0524,4.0524,4.0524,4.0524,4.0455,4.0455,4.0106,3.961,3.9177,3.8649,3.8127,3.7763,3.7701,3.7853,3.7853,3.7991,3.8127,3.8127,3.8202,3.8202,3.8202,3.8202,3.8202,3.8202,3.8202,3.8391,3.9059,3.9625,4.022,4.096,4.1642,4.2092,4.2092,4.2092,4.2092,4.2092,4.2092,4.2092,4.2092,4.2092,4.2092,4.2092,4.2325,4.2541,4.2688,4.2915,4.3076,4.325,4.3329,4.3329,4.3329,4.3329,4.3329,4.3329,4.3329,4.3329,4.3329,4.3329,4.3329,4.3329,4.3329,4.3329,3.353,3.4798,3.5993,3.5166,3.6197,0.0,3.6063,3.5535,3.5625,3.6808,3.6503,3.5953,3.5718,3.6186,3.6265,3.5142,3.6249,3.7681,3.8901,3.8958,3.9076,3.9662,3.952,3.9379,3.9325,3.9272,3.9272,3.9272,3.9272,3.9077,3.8535,3.8351,3.8351,3.8463,3.778,3.8153,3.9626,3.9044,3.942,4.0805,4.0316,4.0137,4.0331,4.0331,4.0401,4.0524,4.0524,4.0524,4.0524,4.0524,4.0524,4.0524,4.0524,4.0524,4.0455,4.0036,3.9753,3.9538,3.8649,3.8277,3.8127,3.7763,3.7625,3.7701,3.7701,3.7687,3.7763,3.7929,3.8066,3.8202,3.8202,3.8202,3.8202,3.8202,3.8202,3.8391,3.9059,3.9291,3.9712,4.0873,4.1642,4.2092,4.2092,4.2092,4.2092,4.2092,4.2092,4.2092,4.2092,4.2092,4.2175,4.231,4.2541,4.2688,4.2915,4.317,4.325,4.3329,4.3329,4.3329,4.3329,4.3329,4.3329,4.3329,4.3329,4.3329,4.3329,4.3329,4.3329,4.3329,4.3329,4.3329,3.5029,3.5588,3.6282,3.6013,3.6784,0.0,0.0,3.6224,3.5951,3.7009,3.6417,3.5622,3.552,3.5698,3.5753,3.5417,3.6178,3.7101,3.7936,3.8905,3.9618,3.9984,4.0242,4.0216,3.9852,4.0133,4.0073,3.9401,3.9673,3.9422,3.8382,3.8054,3.7995,3.8307,3.742,3.7621,3.9029,3.8734,3.9154,4.037,3.998,3.9996,4.0137,4.0137,4.0277,4.0401,4.0401,4.047,4.0524,4.0524,4.0524,4.0524,4.0524,4.0524,4.0455,3.9895,3.9538,3.9162,3.8427,3.7976,3.7749,3.761,3.7701,3.7777,3.7777,3.7839,3.7915,3.7991,3.8127,3.8202,3.8202,3.8202,3.8202,3.8202,3.8202,3.8289,3.8638,3.8971,3.9479,4.0423,4.1134,4.17,4.2034,4.2092,4.2092,4.2092,4.2092,4.2175,4.2242,4.2242,4.2325,4.2541,4.2769,4.2915,4.2981,4.317,4.3329,4.3329,4.3329,4.3329,4.3329,4.3329,4.3329,4.3329,4.3329,4.3329,4.3329,4.309,4.309,4.3329,4.3329,4.317,3.6236,3.5972,3.5931,3.6383,3.6646,3.6911,0.0,0.0,0.0,3.6846,3.61,3.5202,3.4692,3.4748,3.5,3.556,3.6072,3.6604,3.71,3.8966,4.0211,4.0001,4.058,4.0723,4.0034,4.0479,4.032,3.9085,3.9645,3.9494,3.8276,3.7684,3.7683,3.8387,3.7288,3.7307,3.8611,3.8469,3.8877,3.9854,3.9696,3.9768,3.9925,3.9925,4.0066,4.0277,4.0277,4.0331,4.0316,4.0401,4.0385,4.0316,4.0455,4.047,4.0331,3.9753,3.9235,3.8649,3.8202,3.7763,3.738,3.7534,3.7701,3.7853,3.7853,3.7991,3.8127,3.8127,3.8202,3.8202,3.8202,3.8202,3.8202,3.8202,3.8202,3.8202,3.8202,3.8623,3.9218,3.9958,4.0539,4.1163,4.1961,4.2092,4.2092,4.2092,4.2092,4.2242,4.2392,4.2474,4.2541,4.2769,4.2915,4.2996,4.3076,4.325,4.3329,4.3329,4.3329,4.3329,4.3329,4.3329,4.325,4.317,4.317,4.317,4.3076,4.2754,4.2769,4.317,4.309,4.2835,3.6353,3.6603,3.6655,3.4743,3.5101,3.5606,3.4435,0.0,3.4578,3.4345,0.0,3.4253,3.2514,0.0,0.0,3.3647,3.5596,3.7218,3.7441,3.8809,3.9427,3.8557,3.909,3.9292,3.8593,3.8602,3.8375,3.7658,3.8187,3.8243,3.7527,3.7446,3.7707,3.8373,3.7691,3.7683,3.8412,3.8417,3.8736,3.9496,3.9409,3.9553,3.9768,3.9768,3.9839,4.0066,4.0207,4.0121,3.9824,3.998,3.9839,3.9595,4.0231,4.0331,3.9996,3.9394,3.8885,3.8441,3.7839,3.761,3.7548,3.7625,3.7625,3.7625,3.7625,3.7777,3.7929,3.7929,3.8066,3.8202,3.8202,3.8202,3.8202,3.8202,3.8202,3.8202,3.8202,3.826,3.8667,3.9871,4.0162,4.0612,4.1874,4.2092,4.2092,4.2092,4.2242,4.2392,4.2392,4.2541,4.2769,4.29,4.2996,4.3076,4.325,4.325,4.3329,4.3329,4.3329,4.3329,4.3329,4.3329,4.309,4.2769,4.2769,4.2592,4.2155,4.2073,4.2333,4.2769,4.2333,4.2155,3.6328,3.6277,3.6283,3.5788,3.5727,3.5688,3.5121,3.4159,3.3458,3.3615,0.0,0.0,0.0,0.0,0.0,0.0,3.5489,3.6043,3.6297,3.7335,3.8117,3.8472,3.9495,3.9993,3.9599,3.9599,3.8996,3.756,3.8394,3.8339,3.6975,3.7192,3.751,3.7782,3.7901,3.8108,3.8392,3.8796,3.9125,3.9424,3.9424,3.9337,3.9162,3.9394,3.9481,3.9481,3.9538,3.9538,3.9523,3.9394,3.925,3.9235,3.9595,3.9681,3.961,3.8943,3.8664,3.8441,3.7929,3.7777,3.7777,3.7915,3.7976,3.7976,3.7976,3.7991,3.8066,3.8066,3.8127,3.8202,3.8202,3.8202,3.8202,3.8202,3.8202,3.8202,3.8202,3.8507,3.9044,3.9929,4.0408,4.0974,4.1932,4.2175,4.2242,4.2242,4.2325,4.2459,4.2688,4.2688,4.285,4.317,4.3155,4.325,4.325,4.3329,4.3329,4.3329,4.3329,4.317,4.293,4.293,4.2754,4.2333,4.2252,4.217,4.199,4.131,4.1141,4.1324,4.1825,4.184,3.5973,3.5661,3.5583,3.5857,3.5475,3.5057,3.5267,3.4005,3.2963,3.347,3.3176,0.0,0.0,0.0,3.435,3.5566,0.0,3.5353,3.5641,3.6238,3.6915,3.7743,3.8905,3.9704,3.9672,3.9494,3.8787,3.7295,3.8028,3.7946,3.6558,3.7075,3.7494,3.7674,3.8317,3.8676,3.8676,3.8975,3.923,3.9424,3.9086,3.8926,3.8782,3.8958,3.8958,3.8885,3.8885,3.8943,3.9002,3.8708,3.8649,3.8649,3.8738,3.887,3.8943,3.8649,3.8516,3.8366,3.8066,3.8005,3.8005,3.8127,3.8202,3.8202,3.8202,3.8202,3.8202,3.8202,3.8202,3.8202,3.8202,3.8202,3.8202,3.8202,3.8202,3.826,3.8434,3.8855,3.9436,4.022,4.0771,4.1308,4.1976,4.2242,4.2325,4.2325,4.2392,4.2541,4.2835,4.285,4.293,4.325,4.3329,4.3329,4.3329,4.3329,4.325,4.317,4.317,4.2835,4.217,4.2087,4.1811,4.1,4.1099,4.1113,4.0944,4.0187,3.9853,3.9853,4.0703,4.0887,3.5041,3.4835,3.4526,3.374,3.3161,3.2912,3.3411,3.3277,3.3222,3.3716,3.4203,3.441,3.3702,3.3952,3.4392,3.5052,3.5577,0.0,0.0,3.6126,3.608,3.5665,3.6303,3.7089,3.7653,3.7013,3.6476,3.6461,3.6476,3.6484,3.6514,3.7075,3.7704,3.8347,3.9035,3.9394,3.9394,3.8751,3.8751,3.9409,3.8379,3.8178,3.8782,3.8427,3.8202,3.8202,3.8441,3.8277,3.7962,3.8113,3.7976,3.7701,3.7853,3.7929,3.8005,3.8575,3.856,3.8202,3.8202,3.8202,3.8202,3.8202,3.8202,3.8202,3.8202,3.8202,3.8202,3.8202,3.8202,3.8202,3.8202,3.8202,3.8202,3.8202,3.8202,3.8376,3.903,3.9189,3.9567,4.0815,4.1091,4.1308,4.1976,4.2092,4.2092,4.2092,4.2242,4.2459,4.2688,4.2835,4.3076,4.325,4.3329,4.3329,4.3329,4.3329,4.317,4.2769,4.2688,4.2073,4.0689,4.0689,3.9958,3.8505,3.8787,3.8738,3.8328,3.8509,3.8599,3.8599,3.8599,3.8599,3.4947,3.4783,3.4556,3.4007,3.3697,3.3353,3.2783,3.2604,3.2582,3.2629,3.3138,3.363,3.3624,3.4125,3.4711,3.5251,3.5147,3.4971,0.0,3.45,3.4469,3.5118,3.5692,3.629,3.6951,3.6784,3.6383,3.5846,3.6196,3.6239,3.5884,3.6447,3.709,3.7719,3.8392,3.896,3.9424,3.8736,3.837,3.8379,3.7571,3.7315,3.743,3.7578,3.7661,3.7839,3.7839,3.7839,3.7687,3.7519,3.7457,3.7625,3.7701,3.7839,3.8142,3.8352,3.8352,3.8202,3.8202,3.8202,3.8202,3.8202,3.8202,3.8202,3.8202,3.8202,3.8202,3.8202,3.8202,3.8202,3.8202,3.8202,3.8202,3.8202,3.8277,3.8425,3.8658,3.9525,4.0334,4.0602,4.1376,4.1884,4.1408,4.1367,4.1437,4.159,4.1673,4.1561,4.138,4.1825,4.2266,4.2415,4.2996,4.309,4.2496,4.1601,4.0802,4.0362,4.0362,3.9917,3.9142,3.9129,3.8801,3.8043,3.8043,3.8056,3.79,3.752,3.7348,3.7256,3.679,3.7243,3.4087,3.4137,3.4112,3.3696,3.3643,3.354,3.3087,3.2986,3.3033,3.3087,3.3606,3.4154,3.4364,3.4756,3.5164,3.5843,3.5336,3.4737,0.0,3.4298,3.4363,3.4699,3.5137,3.5685,3.6415,3.6321,3.6037,3.5569,3.6073,3.6152,3.5519,3.6342,3.6896,3.7075,3.7704,3.8292,3.8835,3.8098,3.7734,3.768,3.6799,3.6372,3.6368,3.6716,3.6957,3.7068,3.7281,3.738,3.738,3.7148,3.7148,3.738,3.7457,3.7687,3.7976,3.8127,3.8202,3.8202,3.8142,3.8066,3.8066,3.7991,3.8066,3.8066,3.8066,3.8127,3.8202,3.8202,3.8202,3.8202,3.8202,3.8202,3.8202,3.8202,3.8366,3.8647,3.9115,4.003,4.089,4.119,4.1616,4.1854,4.124,4.0633,4.0407,4.0464,4.0548,4.0449,4.0181,4.0448,4.0839,4.142,4.1855,4.1811,4.1253,4.029,3.9393,3.8849,3.8849,3.8492,3.7717,3.7625,3.7376,3.679,3.679,3.6883,3.6883,3.6534,3.6358,3.625,3.5895,3.6439]},{"header":{"parameterUnit":"m.s-1","parameterCategory":1,"la1":30.6,"la2":29.2853,"lo1":-89.7004,"lo2":-87.6739,"dy":0.0162,"dx":0.0183,"nx":112,"ny":82,"refTime":"2024-08-15T18:00:00:Z","depth":0,"parameterNumber":3,"parameterNumberName":"V-component_of_WINDS"},"data":[0.0,0.0,0.0,0.0,0.0,0.0,0.0,0.0,0.0,0.0,0.0,0.0,0.0,0.0,0.0,0.0,0.0,0.0,0.0,0.0,0.0,0.0,0.0,0.0,0.0,0.0,0.0,0.0,0.0,0.0,0.0,0.0,0.0,0.0,0.0,0.0,0.0,0.0,0.0,0.0,0.0,0.0,0.0,0.0,0.0,0.0,0.0,0.0,0.0,0.0,0.0,0.0,0.0,0.0,0.0,0.0,0.0,0.0,0.0,0.0,0.0,0.0,0.0,0.0,0.0,0.0,0.0,0.0,0.0,0.0,0.0,0.0,0.0,0.0,0.0,0.0,0.0,0.0,0.0,0.0,0.0,0.0,0.0,0.0,0.0,0.0,0.0,0.0,0.0,0.0,-1.8287,-1.8448,-1.8446,-1.8409,-1.8215,-1.779,-1.7392,-1.7026,0.0,0.0,0.0,0.0,0.0,0.0,0.0,0.0,0.0,0.0,0.0,0.0,0.0,0.0,0.0,0.0,0.0,0.0,0.0,0.0,0.0,0.0,0.0,0.0,0.0,0.0,0.0,0.0,0.0,0.0,0.0,0.0,0.0,0.0,0.0,0.0,0.0,0.0,0.0,0.0,0.0,0.0,0.0,0.0,0.0,0.0,0.0,0.0,0.0,0.0,0.0,0.0,0.0,0.0,0.0,0.0,0.0,0.0,0.0,0.0,0.0,0.0,0.0,0.0,0.0,0.0,0.0,0.0,0.0,0.0,0.0,0.0,0.0,0.0,0.0,0.0,0.0,0.0,0.0,0.0,0.0,0.0,0.0,0.0,0.0,0.0,0.0,0.0,0.0,0.0,0.0,0.0,0.0,0.0,0.0,0.0,0.0,0.0,0.0,0.0,0.0,0.0,0.0,0.0,-1.7328,-1.7556,-1.7678,-1.75,-1.6889,-1.6983,-1.6882,-1.6314,0.0,0.0,0.0,0.0,0.0,0.0,0.0,0.0,0.0,0.0,0.0,0.0,0.0,0.0,0.0,0.0,0.0,0.0,0.0,0.0,0.0,0.0,0.0,0.0,0.0,0.0,0.0,0.0,0.0,0.0,0.0,0.0,0.0,0.0,0.0,0.0,0.0,0.0,0.0,0.0,0.0,0.0,0.0,0.0,0.0,0.0,0.0,0.0,0.0,0.0,0.0,0.0,0.0,0.0,0.0,0.0,0.0,0.0,0.0,0.0,0.0,0.0,0.0,0.0,0.0,0.0,0.0,0.0,0.0,0.0,0.0,0.0,0.0,0.0,0.0,0.0,0.0,0.0,0.0,0.0,0.0,0.0,0.0,0.0,0.0,0.0,0.0,0.0,0.0,0.0,0.0,0.0,0.0,0.0,0.0,0.0,0.0,0.0,0.0,0.0,0.0,0.0,0.0,-1.7402,-1.7471,-1.752,-1.7278,-1.6934,-1.6548,-1.6379,-1.613,-1.5513,-1.5439,0.0,0.0,0.0,0.0,0.0,0.0,0.0,0.0,0.0,0.0,0.0,0.0,0.0,0.0,0.0,0.0,0.0,0.0,0.0,0.0,0.0,0.0,0.0,0.0,0.0,0.0,0.0,0.0,0.0,0.0,0.0,0.0,0.0,0.0,0.0,0.0,0.0,0.0,0.0,0.0,0.0,0.0,0.0,0.0,0.0,0.0,0.0,0.0,0.0,0.0,0.0,0.0,0.0,0.0,0.0,0.0,0.0,0.0,0.0,0.0,0.0,0.0,0.0,0.0,0.0,0.0,0.0,0.0,0.0,0.0,0.0,0.0,0.0,0.0,0.0,0.0,0.0,0.0,0.0,0.0,0.0,0.0,0.0,0.0,0.0,0.0,0.0,0.0,0.0,0.0,0.0,0.0,0.0,0.0,0.0,0.0,0.0,0.0,0.0,0.0,0.0,0.0,-1.7698,-1.765,-1.7337,-1.6763,-1.6345,-1.6114,-1.5722,-1.5288,-1.4906,-1.4505,0.0,0.0,0.0,0.0,0.0,0.0,0.0,0.0,0.0,0.0,0.0,0.0,0.0,0.0,0.0,0.0,0.0,0.0,0.0,0.0,0.0,0.0,0.0,0.0,0.0,0.0,0.0,0.0,0.0,0.0,0.0,0.0,0.0,0.0,0.0,0.0,0.0,0.0,0.0,0.0,0.0,0.0,0.0,0.0,0.0,0.0,0.0,0.0,0.0,0.0,0.0,0.0,0.0,0.0,0.0,0.0,0.0,0.0,0.0,0.0,0.0,0.0,0.0,0.0,0.0,0.0,0.0,0.0,0.0,0.0,0.0,0.0,0.0,0.0,0.0,0.0,0.0,0.0,0.0,0.0,0.0,0.0,0.0,0.0,0.0,0.0,0.0,0.0,0.0,0.0,0.0,0.0,0.0,0.0,0.0,0.0,0.0,0.0,0.0,0.0,0.0,0.0,-1.7109,-1.7122,-1.6405,-1.5932,-1.5463,-1.4887,-1.4619,-1.4497,-1.4468,-1.3796,0.0,0.0,0.0,0.0,0.0,0.0,0.0,0.0,0.0,0.0,0.0,0.0,0.0,0.0,0.0,0.0,0.0,0.0,0.0,0.0,0.0,0.0,0.0,0.0,0.0,0.0,0.0,0.0,0.0,0.0,0.0,0.0,0.0,0.0,0.0,0.0,0.0,0.0,0.0,0.0,0.0,0.0,0.0,0.0,0.0,0.0,0.0,0.0,0.0,0.0,0.0,0.0,0.0,0.0,0.0,0.0,0.0,0.0,0.0,0.0,0.0,0.0,0.0,0.0,0.0,0.0,0.0,0.0,0.0,0.0,0.0,0.0,0.0,0.0,0.0,0.0,0.0,0.0,0.0,0.0,0.0,0.0,0.0,0.0,0.0,0.0,0.0,0.0,0.0,0.0,0.0,0.0,0.0,0.0,0.0,0.0,0.0,0.0,0.0,0.0,0.0,0.0,-1.6718,-1.684,-1.6411,-1.5894,-1.5355,-1.4743,-1.4634,-1.4335,-1.3774,0.0,0.0,0.0,0.0,0.0,0.0,0.0,0.0,0.0,0.0,0.0,0.0,0.0,0.0,0.0,0.0,0.0,0.0,0.0,0.0,0.0,0.0,0.0,0.0,0.0,0.0,0.0,0.0,0.0,0.0,0.0,0.0,0.0,0.0,0.0,0.0,0.0,0.0,0.0,0.0,0.0,0.0,0.0,0.0,0.0,0.0,0.0,0.0,0.0,0.0,0.0,0.0,0.0,0.0,0.0,0.0,0.0,0.0,0.0,0.0,0.0,0.0,0.0,0.0,0.0,0.0,0.0,0.0,0.0,0.0,0.0,0.0,0.0,0.0,0.0,0.0,0.0,0.0,0.0,0.0,0.0,0.0,0.0,0.0,0.0,0.0,0.0,0.0,0.0,0.0,0.0,0.0,0.0,0.0,0.0,0.0,0.0,0.0,0.0,0.0,0.0,0.0,-1.5977,-1.6453,-1.6603,-1.6539,-1.5845,-1.5158,-1.475,-1.4372,-1.393,-1.3332,0.0,0.0,0.0,0.0,0.0,0.0,0.0,0.0,0.0,0.0,0.0,0.0,0.0,0.0,0.0,0.0,0.0,0.0,0.0,0.0,0.0,0.0,0.0,0.0,0.0,0.0,0.0,0.0,0.0,0.0,0.0,0.0,0.0,0.0,0.0,0.0,0.0,0.0,0.0,0.0,0.0,0.0,0.0,0.0,0.0,0.0,0.0,0.0,0.0,0.0,0.0,0.0,0.0,0.0,0.0,0.0,0.0,0.0,0.0,0.0,0.0,0.0,0.0,0.0,0.0,0.0,0.0,0.0,0.0,0.0,0.0,0.0,0.0,0.0,0.0,0.0,0.0,0.0,0.0,0.0,0.0,0.0,0.0,0.0,0.0,0.0,0.0,0.0,0.0,0.0,0.0,0.0,0.0,0.0,0.0,0.0,0.0,0.0,0.0,0.0,0.0,0.0,-1.5952,-1.6365,-1.657,-1.657,-1.5506,-1.4826,-1.4826,-1.3753,-1.3132,0.0,0.0,0.0,0.0,0.0,0.0,0.0,0.0,0.0,0.0,0.0,0.0,0.0,0.0,0.0,0.0,0.0,0.0,0.0,0.0,0.0,0.0,0.0,0.0,0.0,0.0,0.0,0.0,0.0,0.0,0.0,0.0,0.0,0.0,0.0,0.0,0.0,0.0,0.0,0.0,0.0,0.0,0.0,0.0,0.0,0.0,0.0,0.0,0.0,0.0,0.0,0.0,0.0,0.0,0.0,0.0,0.0,0.0,0.0,0.0,0.0,0.0,0.0,0.0,0.0,0.0,0.0,0.0,0.0,0.0,0.0,0.0,0.0,0.0,0.0,0.0,0.0,0.0,0.0,0.0,0.0,0.0,0.0,0.0,0.0,0.0,0.0,0.0,0.0,0.0,0.0,0.0,0.0,0.0,0.0,0.0,0.0,0.0,0.0,0.0,0.0,0.0,0.0,-1.636,-1.6571,-1.657,-1.657,-1.5579,-1.4907,-1.5031,-1.3997,-1.33,-1.3314,0.0,0.0,0.0,0.0,0.0,0.0,0.0,0.0,0.0,0.0,0.0,0.0,0.0,0.0,0.0,0.0,0.0,0.0,0.0,0.0,0.0,0.0,0.0,0.0,0.0,0.0,0.0,0.0,0.0,0.0,0.0,0.0,0.0,0.0,0.0,0.0,0.0,0.0,0.0,0.0,0.0,0.0,0.0,0.0,0.0,0.0,0.0,0.0,0.0,0.0,0.0,0.0,0.0,0.0,0.0,0.0,0.0,0.0,0.0,0.0,0.0,0.0,0.0,0.0,0.0,0.0,0.0,0.0,0.0,0.0,0.0,0.0,0.0,0.0,0.0,0.0,0.0,0.0,0.0,0.0,0.0,0.0,0.0,0.0,0.0,0.0,0.0,0.0,0.0,0.0,0.0,0.0,0.0,0.0,0.0,0.0,0.0,0.0,0.0,0.0,0.0,0.0,-1.6442,-1.6581,-1.66,-1.66,-1.5548,-1.5016,-1.5214,-1.4195,-1.3643,-1.3685,0.0,0.0,0.0,0.0,0.0,0.0,0.0,0.0,0.0,0.0,0.0,0.0,0.0,0.0,0.0,0.0,0.0,0.0,0.0,0.0,0.0,0.0,0.0,0.0,0.0,0.0,0.0,0.0,0.0,0.0,0.0,0.0,0.0,0.0,0.0,0.0,0.0,0.0,0.0,0.0,0.0,0.0,0.0,0.0,0.0,0.0,0.0,0.0,0.0,0.0,0.0,0.0,0.0,0.0,0.0,0.0,0.0,0.0,0.0,0.0,0.0,0.0,0.0,0.0,0.0,0.0,0.0,0.0,0.0,0.0,0.0,0.0,0.0,0.0,0.0,0.0,0.0,0.0,0.0,0.0,0.0,0.0,0.0,0.0,0.0,0.0,0.0,0.0,0.0,0.0,0.0,0.0,0.0,0.0,0.0,0.0,0.0,0.0,0.0,0.0,0.0,0.0,-1.6383,-1.6615,-1.6673,-1.6673,-1.5726,-1.5198,-1.5459,-1.4598,-1.4138,-1.4384,0.0,0.0,0.0,0.0,0.0,0.0,0.0,0.0,0.0,0.0,0.0,0.0,0.0,0.0,0.0,0.0,0.0,0.0,0.0,0.0,0.0,0.0,0.0,0.0,0.0,0.0,0.0,0.0,0.0,0.0,0.0,0.0,0.0,0.0,0.0,0.0,0.0,0.0,0.0,0.0,0.0,0.0,0.0,0.0,0.0,0.0,0.0,0.0,0.0,0.0,0.0,0.0,0.0,0.0,0.0,0.0,0.0,0.0,0.0,0.0,-1.5477,-1.5461,0.0,0.0,0.0,0.0,0.0,0.0,0.0,0.0,0.0,0.0,0.0,0.0,0.0,0.0,0.0,0.0,0.0,0.0,0.0,0.0,0.0,0.0,0.0,0.0,0.0,0.0,0.0,0.0,0.0,0.0,0.0,0.0,0.0,0.0,0.0,0.0,0.0,0.0,0.0,0.0,-1.6608,-1.7081,-1.7323,-1.7323,-1.6939,-1.6558,-1.6189,-1.5338,-1.4895,-1.5018,-1.4612,0.0,0.0,0.0,0.0,0.0,0.0,0.0,0.0,0.0,0.0,0.0,0.0,0.0,0.0,0.0,0.0,0.0,0.0,0.0,0.0,0.0,0.0,0.0,0.0,0.0,0.0,0.0,0.0,0.0,0.0,0.0,0.0,0.0,0.0,0.0,0.0,0.0,0.0,0.0,0.0,0.0,0.0,0.0,0.0,0.0,0.0,0.0,0.0,0.0,0.0,0.0,0.0,0.0,0.0,0.0,0.0,0.0,0.0,0.0,-1.7521,-1.7168,0.0,0.0,0.0,0.0,0.0,0.0,0.0,0.0,0.0,0.0,0.0,0.0,0.0,0.0,0.0,0.0,0.0,0.0,0.0,0.0,0.0,0.0,0.0,0.0,0.0,0.0,0.0,0.0,0.0,0.0,0.0,0.0,0.0,0.0,0.0,0.0,0.0,0.0,0.0,0.0,-1.7188,-1.7387,-1.7536,-1.7735,-1.7205,-1.6691,-1.6592,-1.6147,-1.5918,-1.6039,-1.5817,0.0,0.0,0.0,0.0,0.0,0.0,0.0,0.0,0.0,0.0,0.0,0.0,0.0,0.0,0.0,0.0,0.0,0.0,0.0,0.0,0.0,0.0,0.0,0.0,0.0,0.0,0.0,0.0,0.0,0.0,0.0,0.0,0.0,0.0,0.0,0.0,0.0,0.0,0.0,0.0,0.0,0.0,0.0,0.0,0.0,0.0,0.0,0.0,0.0,0.0,0.0,0.0,0.0,-1.8419,-1.8329,-1.9073,-1.9573,-2.0143,-2.0836,-1.9743,-1.9304,-1.9316,-1.9323,0.0,0.0,0.0,0.0,0.0,0.0,0.0,0.0,0.0,0.0,0.0,0.0,0.0,0.0,0.0,0.0,0.0,0.0,0.0,0.0,0.0,0.0,-2.2768,-2.1682,-2.2391,-2.2989,-2.1693,0.0,0.0,0.0,0.0,0.0,0.0,0.0,0.0,0.0,0.0,0.0,-1.8057,-1.7831,-1.7729,-1.8216,-1.7396,-1.6871,-1.6924,-1.7114,-1.7185,-1.7059,-1.716,-1.7228,0.0,0.0,0.0,0.0,0.0,0.0,0.0,0.0,0.0,0.0,0.0,0.0,0.0,0.0,0.0,0.0,0.0,0.0,0.0,0.0,0.0,0.0,0.0,0.0,0.0,0.0,0.0,0.0,0.0,0.0,0.0,0.0,-1.327,-1.3992,0.0,0.0,0.0,0.0,0.0,0.0,0.0,0.0,0.0,0.0,0.0,0.0,0.0,-1.8588,-1.8793,-1.9233,-1.9479,-1.962,-1.9959,-2.0427,-2.1011,-2.1086,-2.1432,-2.207,-2.3035,0.0,-2.28,-2.1552,0.0,0.0,0.0,0.0,0.0,0.0,0.0,0.0,0.0,0.0,0.0,0.0,0.0,0.0,0.0,0.0,0.0,0.0,0.0,0.0,0.0,0.0,-2.486,-2.3734,-2.4501,-2.5395,-2.4997,-2.2932,-2.1236,-2.1788,-2.1201,-2.0065,0.0,0.0,0.0,0.0,0.0,0.0,-1.9239,-1.8685,-1.8358,-1.8832,-1.9034,-1.8732,-1.7582,-1.8692,-1.8969,-1.7746,-1.8402,-1.9022,-1.9552,-1.9745,0.0,0.0,0.0,0.0,0.0,0.0,0.0,0.0,0.0,0.0,0.0,0.0,0.0,0.0,0.0,0.0,0.0,0.0,0.0,0.0,0.0,0.0,0.0,0.0,0.0,0.0,0.0,0.0,0.0,-1.3609,-1.472,-1.4775,-1.5776,-1.6346,0.0,0.0,0.0,0.0,0.0,0.0,0.0,0.0,0.0,-1.9254,-1.9499,-1.9825,-2.0425,-2.0607,-2.0687,-2.0834,-2.1093,-2.1376,-2.1805,-2.2673,-2.3183,-2.3488,-2.4673,-2.5206,-2.5253,-2.3755,-2.2991,-2.2671,0.0,0.0,0.0,0.0,-2.2079,-2.1984,-2.3309,-2.3532,-2.3233,-2.3011,0.0,0.0,0.0,0.0,0.0,0.0,0.0,-2.3725,-2.3597,-2.4643,-2.5656,-2.5232,-2.5714,-2.6238,-2.6337,-2.5359,-2.4374,-2.4036,-2.3638,-2.2648,-2.0586,-2.0333,0.0,0.0,0.0,-2.0222,-2.1058,-2.0445,-2.007,-2.0543,-2.0159,-1.9619,-1.9072,-1.9699,-1.9884,-1.9294,-1.9705,-2.0067,-2.035,-2.0463,-2.0463,0.0,0.0,0.0,0.0,0.0,0.0,0.0,0.0,0.0,0.0,0.0,0.0,0.0,0.0,0.0,0.0,0.0,0.0,0.0,0.0,0.0,0.0,0.0,0.0,0.0,0.0,0.0,0.0,-1.4648,-1.5905,-1.5859,-1.7502,-1.8331,0.0,0.0,0.0,0.0,0.0,0.0,-1.918,-1.9153,-1.9505,-2.0346,-2.0617,-2.1094,-2.1871,-2.1782,-2.1883,-2.2252,-2.2295,-2.2489,-2.2925,-2.4192,-2.4779,-2.4933,-2.5688,-2.6202,-2.6522,-2.5229,-2.4481,-2.4142,-2.3708,-2.3538,-2.3647,-2.4082,-2.3906,-2.3751,-2.5322,-2.5566,-2.516,-2.49,-2.4822,-2.4484,-2.2931,0.0,0.0,0.0,0.0,-2.5496,-2.5511,-2.6031,-2.6462,-2.6282,-2.6274,-2.6408,-2.6671,-2.6997,-2.6968,-2.6103,-2.597,-2.5242,-2.3106,-2.2958,0.0,-2.1417,-2.1845,-2.2447,-2.2633,-2.1771,-2.134,-2.1788,-2.0919,-2.0284,-2.0093,-2.0492,-2.0684,-2.0403,-2.0672,-2.0815,-2.0873,-2.0976,-2.1149,-2.1252,0.0,0.0,0.0,0.0,0.0,0.0,0.0,0.0,0.0,0.0,0.0,0.0,0.0,0.0,0.0,0.0,0.0,0.0,0.0,0.0,0.0,0.0,0.0,0.0,0.0,0.0,0.0,0.0,0.0,-1.7629,-1.8665,0.0,0.0,0.0,0.0,-1.9172,-1.9403,-1.9905,-2.0726,-2.0929,-2.1303,-2.192,-2.18,-2.1897,-2.2371,-2.2392,-2.2777,-2.3519,-2.3666,-2.4383,-2.5382,-2.5523,-2.5758,-2.6131,-2.6131,-2.627,-2.6358,-2.5605,-2.577,-2.6476,-2.5772,-2.5617,-2.5824,-2.6321,-2.6364,-2.6271,-2.6782,-2.6918,-2.6824,-2.665,-2.6202,-2.5838,-2.5828,-2.5934,0.0,0.0,-2.7581,-2.8379,-2.7444,-2.7611,-2.7784,-2.6516,-2.609,-2.6021,-2.6047,-2.6571,-2.7192,-2.7848,-2.7936,-2.7445,-2.5803,0.0,-2.502,-2.3554,-2.3047,-2.2977,-2.3595,-2.221,-2.1377,-2.1829,-2.138,-2.0791,-2.0154,-2.1334,-2.1644,-2.0485,-2.102,-2.1415,-2.1522,-2.1712,-2.1842,-2.1829,-2.2085,0.0,0.0,0.0,0.0,0.0,0.0,0.0,0.0,0.0,0.0,0.0,0.0,0.0,0.0,0.0,0.0,0.0,0.0,0.0,0.0,0.0,0.0,0.0,0.0,0.0,0.0,0.0,0.0,-1.899,-2.037,0.0,-2.0216,-2.0354,-2.0533,-2.0617,-2.1125,-2.1532,-2.1859,-2.1941,-2.2025,-2.2101,-2.2035,-2.2035,-2.2025,-2.2025,-2.2402,-2.3224,-2.3329,-2.3885,-2.4876,-2.5176,-2.5382,-2.5611,-2.5901,-2.605,-2.6082,-2.5908,-2.6277,-2.6817,-2.6047,-2.6097,-2.6564,-2.6467,-2.6489,-2.6645,-2.6794,-2.6739,-2.6671,-2.6589,-2.6382,-2.6206,-2.6163,-2.647,-2.6922,-2.7052,-2.7444,-2.7769,-2.7413,-2.7077,-2.6751,-2.6126,-2.6067,-2.6086,-2.5946,-2.646,-2.6987,-2.7272,-2.775,-2.7888,-2.7078,-2.6676,-2.6117,-2.4885,-2.4636,-2.4637,-2.4696,-2.3639,-2.2919,-2.3077,-2.2308,-2.1717,-2.1466,-2.188,-2.2029,-2.1584,-2.1801,-2.1909,-2.1958,-2.2141,-2.2262,-2.2395,-2.2169,-2.1671,0.0,0.0,0.0,0.0,0.0,0.0,0.0,0.0,0.0,0.0,0.0,0.0,0.0,0.0,0.0,0.0,0.0,0.0,0.0,0.0,0.0,0.0,0.0,0.0,0.0,-1.8289,-2.0027,-1.996,-2.1523,-2.2179,-2.1163,-2.1523,-2.1797,-2.1713,-2.2147,-2.2402,-2.2402,-2.2402,-2.2327,-2.2111,-2.2101,-2.2025,-2.1807,-2.1878,-2.2306,-2.3032,-2.3174,-2.3639,-2.4481,-2.4878,-2.5167,-2.5259,-2.5746,-2.591,-2.5992,-2.6062,-2.6408,-2.6782,-2.632,-2.6464,-2.6769,-2.6455,-2.6477,-2.6658,-2.6658,-2.6589,-2.6465,-2.6396,-2.6383,-2.6314,-2.6201,-2.6645,-2.7111,-2.7183,-2.7413,-2.7515,-2.7305,-2.6876,-2.6416,-2.6021,-2.5962,-2.6062,-2.5927,-2.6349,-2.6837,-2.6837,-2.7473,-2.8013,-2.7978,-2.7544,-2.6989,-2.6201,-2.5995,-2.5729,-2.5336,-2.4554,-2.4025,-2.4025,-2.3244,-2.2654,-2.2411,-2.245,-2.2378,-2.2135,-2.2135,-2.227,-2.245,-2.2224,-2.2384,-2.2948,-2.2419,-2.2169,-2.2101,0.0,0.0,0.0,0.0,0.0,0.0,0.0,0.0,0.0,0.0,0.0,0.0,0.0,0.0,0.0,0.0,0.0,0.0,0.0,0.0,0.0,0.0,0.0,-1.7306,-1.8552,-1.977,-2.0747,-2.1956,-2.2445,-2.1764,-2.2147,-2.2424,-2.2424,-2.2445,-2.2456,-2.2456,-2.2445,-2.237,-2.2153,-2.2132,-2.2046,-2.1828,-2.2092,-2.2485,-2.3103,-2.3358,-2.3737,-2.4288,-2.4816,-2.505,-2.5074,-2.5628,-2.5931,-2.6151,-2.5931,-2.607,-2.6496,-2.6633,-2.6577,-2.6521,-2.6633,-2.6577,-2.6533,-2.6533,-2.6533,-2.6465,-2.627,-2.6213,-2.6213,-2.6201,-2.6496,-2.694,-2.7216,-2.7659,-2.7922,-2.7286,-2.7087,-2.6861,-2.6089,-2.5838,-2.5815,-2.5828,-2.6166,-2.6557,-2.6582,-2.7197,-2.7928,-2.8512,-2.8139,-2.768,-2.7521,-2.6858,0.0,-2.5372,-2.4843,-2.4518,-2.4518,-2.4061,-2.349,-2.2781,-2.2874,-2.2711,-2.1984,-2.2147,-2.245,-2.2955,-2.2116,-2.2238,-2.3501,-2.2985,-2.3022,-2.3653,0.0,0.0,0.0,0.0,0.0,0.0,0.0,0.0,0.0,0.0,0.0,0.0,0.0,0.0,0.0,0.0,0.0,0.0,0.0,0.0,0.0,-1.6178,-1.7512,-1.8648,-1.9707,-2.0821,-2.2062,-2.2616,-2.2723,-2.2222,-2.2864,-2.3297,-2.3154,-2.3643,-2.3926,-2.3926,-2.3759,-2.3513,-2.3356,-2.3016,-2.2692,-2.2304,-2.2264,-2.2485,-2.3092,-2.2659,-2.2912,-2.371,-2.3729,-2.379,-2.3968,-2.4509,-2.4743,-2.4809,-2.4743,-2.5098,-2.5715,-2.5715,-2.6033,-2.6483,-2.6055,-2.6168,-2.6533,-2.6533,-2.6533,-2.6465,-2.627,-2.6131,-2.598,-2.5828,-2.6195,-2.6726,-2.6895,-2.705,-2.7216,-2.7117,-2.665,-2.6159,-2.5936,-2.591,-2.5882,-2.5792,-2.5849,-2.5832,-2.5803,-2.5988,-2.6551,-2.7619,-2.7262,-2.6773,-2.6688,-2.6081,-2.5551,-2.5324,-2.4843,-2.4518,-2.4518,-2.3712,-2.3223,-2.349,-2.3136,-2.2845,-2.2735,-2.2763,-2.2759,-2.2774,-2.2754,-2.3164,-2.4054,-2.355,-2.3278,0.0,0.0,0.0,0.0,0.0,0.0,0.0,0.0,0.0,0.0,0.0,0.0,0.0,0.0,0.0,0.0,0.0,0.0,0.0,0.0,0.0,0.0,-1.7485,-1.8282,-1.9429,-2.0131,-2.0772,-2.1701,-2.2424,-2.2702,-2.2274,-2.3015,-2.3416,-2.3134,-2.3654,-2.3926,-2.3643,-2.3466,-2.331,-2.3076,-2.2812,-2.251,-2.2211,-2.2379,-2.2496,-2.2617,-2.2457,-2.2573,-2.2903,-2.3054,-2.3171,-2.3386,-2.3924,-2.4222,-2.43,-2.43,-2.4538,-2.4967,0.0,0.0,0.0,0.0,-2.6176,-2.6533,-2.6533,-2.6533,-2.6465,-2.6201,-2.5992,-2.5861,-2.5765,-2.594,-2.6209,-2.6426,-2.6452,-2.6476,-2.6582,-2.627,-2.5893,-2.5893,-2.5869,-2.5866,-2.5819,-2.5673,-2.5575,-2.5536,-2.5505,0.0,-2.6481,-2.6262,-2.6153,-2.6372,-2.5791,-2.5312,-2.5312,-2.5035,-2.4773,-2.4495,-2.4153,-2.3675,-2.319,-2.311,0.0,0.0,0.0,-2.319,-2.3173,-2.3845,0.0,0.0,0.0,0.0,0.0,0.0,0.0,0.0,-2.7598,-2.8533,0.0,0.0,0.0,0.0,0.0,0.0,0.0,0.0,0.0,0.0,0.0,0.0,0.0,0.0,0.0,0.0,-1.8868,-1.8779,-1.9515,-1.9858,-2.011,-2.0591,-2.1786,-2.2466,-2.2099,-2.281,-2.3165,-2.2746,-2.3144,-2.3152,-2.2583,-2.2562,0.0,0.0,0.0,-2.2109,-2.188,-2.248,-2.2435,-2.1919,-2.2477,-2.2521,-2.2113,-2.2564,-2.2893,-2.3086,-2.3571,-2.3908,-2.4051,-2.4051,-2.4087,-2.4263,-2.5108,-2.579,-2.6377,-2.644,-2.6533,-2.6533,-2.6465,0.0,0.0,-2.598,-2.584,-2.5881,-2.5795,-2.5661,-2.557,-2.5895,-2.5855,-2.5809,-2.5883,-2.5893,-2.5893,-2.5893,-2.5854,-2.5833,-2.5778,-2.5623,-2.5469,-2.5473,-2.5404,-2.5312,-2.5312,-2.5453,-2.5693,-2.6166,-2.5684,-2.5312,-2.5312,-2.5312,-2.5099,-2.4659,-2.4874,0.0,-2.2573,-2.2898,-2.3001,-2.2559,-2.3223,-2.3804,-2.4049,-2.5135,-2.5253,-2.4305,-2.4694,-2.5462,-2.6526,-2.7204,-2.7894,-2.8509,-2.8451,-2.9302,0.0,0.0,0.0,0.0,0.0,0.0,0.0,0.0,0.0,0.0,0.0,0.0,0.0,0.0,0.0,-1.8655,-1.8525,-1.8306,-1.7787,-1.8276,-1.9408,-2.1095,-2.1627,-2.2019,-2.2307,-2.2851,-2.315,-2.3065,-2.347,-2.3694,-2.3519,-2.3382,-2.3234,-2.3234,-2.2867,-2.259,-2.2366,-2.2359,-2.2147,-2.1919,-2.2059,0.0,-2.2101,-2.2194,-2.2298,-2.2404,-2.2513,-2.2561,-2.2623,-2.2623,-2.2929,-2.353,-2.4892,-2.5473,-2.5702,-2.6289,-2.6533,-2.6465,-2.6339,-2.627,-2.6201,-2.5758,-2.5676,-2.5664,-2.5472,-2.5475,0.0,-2.5647,-2.5748,-2.5809,-2.5883,-2.5893,-2.5893,-2.5893,-2.5868,-2.5825,-2.5686,-2.5634,-2.5549,-2.5391,-2.531,-2.5312,-2.5312,-2.5312,-2.5419,-2.5527,-2.5372,-2.5312,-2.5312,-2.5312,-2.5241,-2.517,-2.4299,-2.3683,-2.3765,-2.29,-2.272,-2.3689,-2.4774,-2.548,-2.5875,-2.5997,-2.5997,-2.5946,-2.5618,-2.5496,-2.5581,-2.7124,-2.8226,-2.8826,-3.0211,-3.1021,0.0,0.0,0.0,0.0,0.0,0.0,0.0,0.0,0.0,0.0,0.0,-1.8951,-1.9723,0.0,-2.0072,-1.9984,-1.9878,-1.9411,-1.8572,-1.8667,-1.9042,-1.9713,-2.0872,-2.1639,-2.1882,-2.2548,-2.2865,-2.2622,-2.3023,-2.3182,-2.2793,-2.2715,-2.2647,-2.2647,-2.2418,-2.2226,-2.2149,-2.2371,-2.2284,-2.1829,-2.2172,-2.2231,-2.1976,-2.1976,-2.2049,-2.2089,-2.2168,-2.2126,-2.2166,-2.2169,-2.2404,-2.2781,-2.3891,-2.474,-2.5448,-2.579,-2.6145,-2.6339,-2.6201,-2.6131,-2.598,-2.5688,-2.5606,-2.5557,-2.5416,-2.5419,-2.5539,-2.5587,-2.566,-2.5688,-2.5751,-2.5729,-2.5729,-2.5729,-2.5721,-2.5669,-2.555,-2.5504,-2.5388,-2.5344,-2.5241,-2.5241,-2.5312,-2.5182,-2.5052,-2.5182,-2.5241,-2.5312,-2.5182,-2.5241,-2.5016,-2.4383,-2.3936,-2.3338,-2.2596,-2.2376,-2.2839,-2.434,-2.5228,-2.5863,-2.6263,-2.6166,-2.6046,-2.5864,-2.5598,-2.5664,-2.6139,-2.7391,-2.8264,-2.8915,-3.1059,-3.2088,0.0,0.0,0.0,0.0,0.0,0.0,0.0,-1.8427,-1.8935,-2.0303,-2.0651,-2.0833,-2.1503,-2.1209,-2.0958,-2.1094,-2.0846,-2.0272,-1.9446,-1.9116,-1.8815,-1.8138,-1.9802,-2.1061,-2.146,-2.2074,-2.2355,-2.2056,-2.238,-2.2345,-2.1828,-2.1807,-2.1807,-2.1807,-2.1807,-2.1807,-2.1807,-2.2252,-2.2252,-2.1807,-2.2327,-2.2306,-2.1929,-2.1929,-2.1936,-2.1989,-2.1978,-2.1958,-2.1924,-2.2013,-2.2061,-2.2097,-2.2769,-2.3916,-2.5207,-2.5373,-2.5642,-2.6052,-2.6094,-2.6062,-2.584,-2.5606,-2.5535,-2.5521,-2.5494,-2.5485,-2.5498,-2.5538,-2.5573,-2.5608,-2.5608,-2.5608,-2.5608,-2.5608,-2.5537,-2.5526,-2.5507,-2.5406,-2.532,-2.5288,-2.5182,-2.5147,-2.5385,-2.5135,-2.5039,-2.5135,-2.5182,-2.5241,-2.5182,-2.5099,-2.4659,-2.3582,-2.3711,-2.3132,-2.1379,-2.2323,-2.3509,-2.4768,-2.5677,-2.6247,-2.6586,-2.6466,-2.6214,-2.5781,-2.5744,-2.6181,-2.7087,-2.7865,-2.8517,-2.9224,-3.1504,-3.2587,-1.9329,-1.9576,-1.9726,-2.1005,-2.0447,-2.0311,0.0,-2.2268,-2.1605,-2.3225,-2.2479,-2.1691,-2.2148,-2.1432,-2.0477,-1.9647,-1.9024,-1.8524,-1.8071,-1.822,-1.8281,-1.8138,-1.8731,-1.9887,-2.1607,-2.1349,-2.1312,-2.1807,-2.1849,-2.1859,-2.1807,-2.1807,-2.1807,-2.1807,-2.1807,-2.1807,-2.1807,-2.1883,-2.1883,-2.1807,-2.1883,-2.1934,-2.1929,-2.1929,-2.1936,-2.1989,-2.1554,-2.1407,-2.1363,-2.147,-2.1514,-2.1526,-2.2121,-2.3174,-2.4501,-2.517,-2.5448,-2.5505,-2.5807,-2.591,-2.5828,-2.5465,-2.5312,-2.53,-2.531,-2.5375,-2.5519,-2.5523,-2.5576,-2.5608,-2.5608,-2.5608,-2.5608,-2.5608,-2.5597,-2.5601,-2.5485,-2.5515,-2.5432,-2.5169,-2.5111,-2.5266,-2.5658,-2.568,-2.5587,-2.5313,-2.5182,-2.5182,-2.5241,-2.4647,-2.4192,-2.4047,-2.3404,-2.2778,-2.2443,-2.4073,-2.5231,-2.5367,-2.7172,-2.8227,-2.8246,-2.7789,-2.7512,-2.7452,-2.7334,-2.7287,-2.7434,-2.8466,-2.9504,-3.0618,-3.2009,-3.2359,-2.0834,-2.071,-2.0197,-2.0809,-2.0546,-2.0464,-2.1625,-2.1315,-2.1163,-2.2788,-2.2445,-2.1746,-2.1607,-2.1115,-2.0514,-1.9646,-1.9646,-1.9431,-1.8492,-1.8562,-1.8608,-1.8162,-1.8028,-1.8665,-2.0384,-2.048,-2.0741,-2.1558,-2.1731,-2.1807,-2.1807,-2.1807,-2.1807,-2.1807,-2.1807,-2.1807,-2.1807,-2.1807,-2.1807,-2.1807,-2.2087,-2.2262,-2.2465,-2.2587,-2.2371,-2.1953,-2.1745,-2.1393,-2.0915,-2.1279,-2.1626,-2.2098,-2.2567,-2.3356,-2.4181,-2.4467,-2.508,-2.566,-2.5742,-2.5688,-2.5535,-2.5382,-2.5312,-2.5312,-2.5312,-2.5366,-2.5391,-2.5391,-2.5413,-2.5431,-2.5431,-2.5431,-2.5431,-2.5431,-2.5431,-2.537,-2.5274,-2.5265,-2.5199,-2.4945,-2.4849,-2.5003,-2.568,-2.5616,-2.5651,-2.6164,-2.6188,-2.5956,-2.5562,-2.5252,-2.4801,-2.3952,-2.3145,-2.2757,-2.2968,-2.3567,-2.4157,-2.4641,-2.5795,-2.66,-2.6796,-2.7061,-2.726,-2.726,-2.7383,-2.7631,-2.7865,-2.8957,-2.9856,-3.0704,-3.2326,-3.3027,-2.1606,-2.1363,-2.0714,-2.0913,-2.0833,-2.0711,-2.0773,-2.073,-2.0942,-2.2004,-2.1912,-2.1526,-2.1166,-2.0679,-2.0257,-1.9808,-1.9983,-1.9837,-1.8805,-1.8873,-1.8773,-1.8036,-1.7557,-1.7737,-1.8974,-1.9392,-1.9899,-2.0924,-2.1262,-2.1492,-2.1568,-2.1731,-2.1807,-2.1807,-2.1807,-2.1807,-2.1807,-2.1807,-2.1807,-2.1818,-2.2351,-2.2647,-2.2825,-2.3137,-2.2888,-2.2168,-2.2094,-2.165,-2.0983,-2.1509,-2.2058,-2.258,-2.3107,-2.3646,-2.4157,-2.4147,-2.473,-2.5632,-2.5627,-2.5523,-2.5382,-2.5312,-2.5312,-2.5312,-2.5312,-2.5312,-2.5312,-2.5312,-2.5312,-2.5312,-2.5312,-2.5312,-2.5312,-2.5312,-2.5312,-2.5241,-2.5111,-2.5123,-2.5052,-2.479,-2.4751,-2.5008,-2.582,-2.5871,-2.6153,-2.6978,-2.7049,-2.6712,-2.5793,-2.5438,-2.487,-2.3735,-2.3207,-2.2988,-2.3422,-2.3547,-2.3865,-2.4585,-2.5235,-2.5811,-2.6352,-2.7114,-2.7521,-2.7521,-2.8014,-2.8462,-2.871,-2.9535,-3.0294,-3.1075,-3.2478,-3.3446,-2.1508,-2.1475,-2.1587,-2.24,-2.2205,-2.1909,-2.2082,-2.2125,-2.1991,-2.1531,-2.1163,-2.0997,-2.1337,-2.01,-1.9239,-1.9703,-1.9203,-1.8725,-1.8684,-1.87,-1.8456,-1.7688,-1.7171,-1.6981,-1.7545,-1.803,-1.8718,-1.9599,-2.0226,-2.0624,-2.0944,-2.1492,-2.1807,-2.1807,-2.1807,-2.1807,-2.1807,-2.1807,-2.1807,-2.1818,-2.2506,-2.2804,-2.2825,-2.3297,-2.3234,-2.2762,-2.2527,-2.218,-2.18,-2.2328,-2.2563,-2.268,-2.3356,-2.4026,-2.4542,-2.4536,-2.4655,-2.4913,-2.5423,-2.5606,-2.5535,-2.5382,-2.5312,-2.5312,-2.5312,-2.5312,-2.5312,-2.5312,-2.5312,-2.5312,-2.5312,-2.5312,-2.5312,-2.5312,-2.5312,-2.5241,-2.5111,-2.5123,-2.4981,-2.4562,-2.5043,-2.5695,-2.6188,-2.6848,-2.7368,-2.7475,-2.7476,-2.7115,-2.6039,-2.4657,-2.3735,-2.3535,-2.3502,-2.3686,-2.4145,-2.4765,-2.5421,-2.6091,-2.6741,-2.7487,-2.8383,-2.8767,-2.9003,-2.9003,-2.9858,-3.0317,-3.0317,-3.038,-3.0957,-3.2019,-3.2437,-3.3213,-2.0971,-2.1337,-2.1509,-2.1531,-2.113,-2.0742,-2.0787,-2.0523,-2.0281,-2.0358,-1.9828,-1.9364,-1.9452,-1.9158,-1.8816,-1.8607,-1.889,-1.8897,-1.829,-1.8942,-1.9103,-1.8216,-1.8826,-1.9049,-1.8504,-1.8424,-1.903,-2.0531,-2.1224,-2.1706,-2.1941,-2.2185,-2.2128,-2.1818,-2.1807,-2.1807,-2.1807,-2.1807,-2.2029,-2.2506,-2.3499,-2.3956,-2.394,-2.4252,-2.3907,-2.3036,-2.2956,-2.2511,-2.1807,-2.2413,-2.2886,-2.3362,-2.3947,-2.4471,-2.4997,-2.5093,-2.505,-2.5026,-2.5301,-2.5382,-2.5382,-2.5312,-2.5312,-2.5312,-2.5312,-2.5312,-2.5312,-2.5312,-2.5312,-2.5384,-2.5888,-2.5648,-2.548,-2.6348,-2.6166,-2.5853,-2.6089,-2.6086,-2.6012,-2.5714,-2.5855,-2.6288,-2.6884,-2.7275,-2.7246,-2.686,-2.6445,-2.6075,-2.5661,-2.4804,-2.422,-2.4206,-2.4057,-2.3947,-2.3917,-2.4013,-2.4348,-2.5009,-2.6069,-2.7058,-2.7983,-2.9015,-2.9671,-3.0044,-3.033,-3.0548,-3.0919,-3.0853,-3.1246,-3.2074,-3.2218,-3.3269,-2.0691,-2.1016,-2.1062,-2.0742,-2.0303,-1.9953,-1.9888,-1.9532,-1.9381,-1.9846,-1.9264,-1.8654,-1.8844,-1.871,-1.8509,-1.8172,-1.8708,-1.8899,-1.8081,-1.8608,-1.8827,-1.8412,-1.909,-1.9454,-1.8965,-1.9004,-1.9388,-2.0318,-2.1173,-2.1599,-2.1441,-2.1769,-2.1726,-2.1031,-2.1175,-2.1262,-2.1262,-2.1501,-2.22,-2.3318,-2.4059,-2.4503,-2.4786,-2.4861,-2.4378,-2.3524,-2.3598,-2.3246,-2.2563,-2.3113,-2.3583,-2.4057,-2.4346,-2.4703,-2.5049,-2.5217,-2.5154,-2.5084,-2.548,-2.5588,-2.5588,-2.5588,-2.5588,-2.5552,-2.536,-2.5312,-2.5312,-2.5312,-2.5444,-2.5673,-2.6166,-2.607,-2.6069,-2.6904,-2.6721,-2.6416,-2.6538,-2.6621,-2.6534,-2.637,-2.6523,-2.6836,-2.7335,-2.7144,-2.6887,-2.6554,-2.56,-2.4946,-2.5115,-2.4711,-2.4368,-2.4368,-2.4196,-2.3937,-2.3667,-2.358,-2.3901,-2.4823,-2.6048,-2.7213,-2.8433,-2.9819,-3.0618,-3.0808,-3.0855,-3.0984,-3.1138,-3.1005,-3.1365,-3.1984,-3.2266,-3.3442,-2.0631,-2.0567,-2.0237,-2.0085,-1.983,-1.9603,-1.9408,-1.9397,-1.9528,-1.9976,-1.9407,-1.8931,-1.9431,-1.8875,-1.8279,-1.8345,-1.8744,-1.8783,-1.8157,-1.7844,-1.7921,-1.8294,-1.8362,-1.8447,-1.8845,-1.9777,-1.9889,-1.8972,-2.0099,-2.0495,-1.9633,-2.0614,-2.0665,-1.9683,-2.0068,-2.0224,-2.0312,-2.0965,-2.2332,-2.421,-2.4231,-2.4535,-2.52,-2.4946,-2.464,-2.4262,-2.4438,-2.4302,-2.395,-2.4364,-2.454,-2.4498,-2.4638,-2.4705,-2.4751,-2.4955,-2.504,-2.4982,-2.5816,-2.6068,-2.602,-2.6093,-2.6081,-2.5961,-2.5456,-2.5312,-2.5312,-2.5336,-2.5709,-2.6105,-2.6166,-2.655,-2.6947,-2.6995,-2.6995,-2.6908,-2.6693,-2.6693,-2.6617,-2.6464,-2.6931,-2.7442,-2.7442,-2.6702,-2.6268,-2.6445,-2.5041,-2.4044,-2.4454,-2.4303,-2.4237,-2.4237,-2.3988,-2.3824,-2.366,-2.366,-2.4169,-2.5543,-2.6711,-2.8115,-2.9677,-3.1279,-3.1883,-3.1304,-3.1669,-3.1627,-3.1117,-3.1091,-3.1352,-3.1888,-3.2613,-3.3751,-1.9048,-1.9156,-1.9062,-1.9084,-1.8709,-1.8616,-1.9255,-1.9135,-1.9113,-1.99,-1.9065,-1.8307,-1.8509,-1.8291,-1.8027,-1.7807,-1.8657,-1.9236,-1.8739,-1.9316,-1.972,-1.9478,-2.0432,-2.0761,-2.0027,-2.0948,-2.1137,-2.0009,-2.0761,-2.123,-2.1118,-2.1372,-2.1277,-2.0724,-2.0797,-2.1115,-2.1605,-2.2869,-2.3629,-2.3961,-2.4451,-2.4681,-2.47,-2.4625,-2.4563,-2.4459,-2.4488,-2.4478,-2.4374,-2.4498,-2.454,-2.4529,-2.4575,-2.4534,-2.4545,-2.4757,-2.4766,-2.4854,-2.5532,-2.5608,-2.5409,-2.5947,-2.5829,-2.548,-2.5348,-2.5312,-2.5384,-2.5781,-2.5997,-2.6359,-2.7306,-2.7191,-2.7128,-2.8053,-2.7878,-2.7633,-2.7939,-2.8023,-2.8023,-2.7944,-2.7723,-2.7485,-2.7485,-2.686,-2.6196,-2.5611,-2.5584,-2.5259,-2.442,-2.4502,-2.4706,-2.4706,-2.5013,-2.5127,-2.5037,-2.5186,-2.5753,-2.6767,-2.8265,-2.9594,-3.0609,-3.186,-3.267,-3.2969,-3.2619,-3.262,-3.2934,-3.2476,-3.2333,-3.2476,-3.2698,-3.3536,-1.8239,-1.8375,-1.8353,-1.7869,-1.798,-1.8267,-1.8663,-1.8738,-1.891,-1.9922,-1.8854,-1.7842,-1.8104,-1.832,-1.818,-1.7495,-1.8477,-1.9219,-1.89,-1.9195,-1.9576,-1.9777,-2.068,-2.1089,-2.0392,-2.1076,-2.1266,-2.0382,-2.0962,-2.1195,-2.0848,-2.1012,-2.0829,-2.0108,-2.0268,-2.0679,-2.1353,-2.2784,-2.353,-2.3744,-2.4405,-2.4615,-2.454,-2.454,-2.454,-2.454,-2.454,-2.454,-2.454,-2.454,-2.454,-2.454,-2.454,-2.454,-2.4488,-2.4679,-2.4636,-2.4702,-2.5462,-2.534,-2.5058,-2.5768,-2.5808,-2.5597,-2.5733,-2.5804,-2.5912,-2.6518,-2.6907,-2.7235,-2.7843,-2.7888,-2.792,-2.8736,-2.8585,-2.8373,-2.8676,-2.8736,-2.8657,-2.8179,-2.7765,-2.7441,-2.7103,-2.6624,-2.6095,-2.568,-2.5738,-2.5597,-2.5171,-2.5201,-2.5186,-2.5186,-2.5491,-2.5725,-2.5725,-2.6066,-2.6589,-2.742,-2.8802,-3.0105,-3.1223,-3.2351,-3.3157,-3.3587,-3.326,-3.3117,-3.3195,-3.2855,-3.2829,-3.3091,-3.3091,-3.3847,-1.7885,-1.7853,-1.7673,-1.6719,-1.7284,-1.8015,-1.7924,-1.8239,-1.8784,-1.9705,-1.8596,-1.7579,-1.8046,-1.8409,-1.837,-1.7568,-1.8602,-1.942,-1.8993,-1.8667,-1.8811,-1.966,-2.0175,-2.0413,-2.0361,-2.0791,-2.0817,-2.0374,-2.0916,-2.0855,-1.9829,-2.0245,-2.0,-1.8986,-1.948,-2.0059,-2.057,-2.195,-2.2926,-2.3503,-2.4196,-2.454,-2.454,-2.454,-2.454,-2.454,-2.454,-2.454,-2.454,-2.454,-2.454,-2.454,-2.454,-2.454,-2.4488,-2.467,-2.4577,-2.4575,-2.5289,-2.5126,-2.4762,-2.561,-2.5816,-2.5819,-2.6125,-2.6287,-2.6542,-2.7274,-2.7863,-2.8332,-2.824,-2.8594,-2.8949,-2.9118,-2.9131,-2.9052,-2.9052,-2.8973,-2.8657,-2.7765,-2.7487,-2.7288,-2.6712,-2.6269,-2.6085,-2.6259,-2.5868,-2.5807,-2.6441,-2.609,-2.5828,-2.5919,-2.6131,-2.6243,-2.6243,-2.6785,-2.7317,-2.7887,-2.9071,-3.032,-3.1653,-3.276,-3.352,-3.3705,-3.3705,-3.3443,-3.2921,-3.2921,-3.3182,-3.3705,-3.3705,-3.4336,-1.7169,-1.6802,-1.6162,-1.6056,-1.6396,-1.689,-1.7235,-1.7671,-1.8127,-1.8696,-1.8046,-1.751,-1.7706,-1.8059,-1.8284,-1.8257,-2.0013,-2.1031,-2.0065,-1.9648,-1.9534,-2.009,-2.0359,-2.0522,-2.0667,-2.09,-2.0997,-2.0907,-2.0645,-2.0439,-2.0198,-2.0631,-2.0604,-2.0103,-2.0713,-2.1096,-2.1248,-2.2669,-2.3414,-2.3503,-2.4196,-2.454,-2.454,-2.454,-2.454,-2.454,-2.454,-2.454,-2.454,-2.454,-2.454,-2.454,-2.454,-2.454,-2.4529,-2.4532,-2.4324,-2.4033,-2.4566,-2.443,-2.4261,-2.5378,-2.5453,-2.5082,-2.5147,-2.5662,-2.6387,-2.7114,-2.7892,-2.871,-2.9222,-2.9474,-2.9549,-2.9561,-2.9172,-2.8882,-2.8882,-2.8419,-2.8042,-2.7881,-2.7375,-2.7048,-2.7386,-2.6932,-2.6555,-2.6831,-2.7241,-2.7532,-2.7431,-2.7077,-2.6894,-2.7249,-2.7877,-2.8207,-2.831,-2.8771,-2.9079,-2.9157,-3.0348,-3.1364,-3.2127,-3.2945,-3.3687,-3.4267,-3.4254,-3.4201,-3.411,-3.411,-3.4162,-3.4254,-3.4254,-3.4389,-1.6593,-1.6113,-1.5579,-1.5578,-1.6033,-1.6628,-1.7061,-1.7439,-1.7945,-1.8674,-1.7949,-1.7332,-1.7998,-1.7764,-1.7495,-1.7302,-1.9599,-2.1221,-2.0834,-2.0134,-1.9791,-2.0193,-2.0545,-2.0669,-2.0553,-2.0631,-2.0645,-2.0645,-2.0645,-2.0555,-2.0292,-2.0464,-2.0555,-2.0292,-2.0645,-2.0826,-2.0826,-2.1891,-2.2432,-2.2432,-2.3493,-2.4024,-2.4024,-2.4368,-2.454,-2.454,-2.454,-2.454,-2.454,-2.454,-2.4405,-2.4198,-2.4198,-2.4043,-2.3867,-2.4105,-2.4064,-2.395,-2.4385,-2.4565,-2.4714,-2.5276,-2.5348,-2.526,-2.597,-2.6527,-2.6954,-2.7699,-2.8258,-2.8631,-2.8876,-2.8937,-2.8949,-2.9028,-2.8882,-2.873,-2.8996,-2.8583,-2.8269,-2.8194,-2.7918,-2.7648,-2.7562,-2.7436,-2.7396,-2.7597,-2.808,-2.8477,-2.866,-2.8477,-2.8294,-2.8191,-2.8778,-2.9106,-2.9117,-2.9577,-2.9852,-2.9852,-3.0397,-3.1015,-3.1713,-3.2077,-3.2785,-3.3894,-3.3894,-3.4063,-3.4397,-3.4397,-3.4397,-3.4397,-3.4397,-3.4397,-1.6271,-1.5753,-1.5286,-1.5385,-1.5914,-1.6539,-1.6882,-1.7216,-1.7725,-1.8484,-1.7695,-1.7135,-1.7988,-1.7492,-1.6813,-1.6456,-1.876,-2.0732,-2.0988,-2.0348,-2.0084,-2.0542,-2.0793,-2.0845,-2.0702,-2.0516,-2.0464,-2.0464,-2.0736,-2.0727,-2.0464,-2.0382,-2.0292,-2.0292,-2.0292,-2.0292,-2.0292,-2.0997,-2.1445,-2.1615,-2.2872,-2.359,-2.3764,-2.4282,-2.454,-2.454,-2.454,-2.454,-2.454,-2.454,-2.4333,-2.4022,-2.4022,-2.3795,-2.3515,-2.3888,-2.4044,-2.4096,-2.4555,-2.4893,-2.523,-2.5421,-2.5529,-2.5713,-2.6759,-2.7246,-2.7486,-2.814,-2.8419,-2.8498,-2.8407,-2.8407,-2.8443,-2.8551,-2.8587,-2.865,-2.8987,-2.8857,-2.8568,-2.8436,-2.8434,-2.8327,-2.79,-2.8131,-2.8451,-2.8541,-2.8851,-2.9187,-2.9577,-2.9669,-2.9474,-2.9095,-2.9382,-2.9669,-2.9669,-3.0034,-3.0216,-3.0216,-3.0216,-3.0487,-3.1306,-3.1306,-3.2001,-3.3484,-3.3484,-3.381,-3.4564,-3.4481,-3.4494,-3.4481,-3.4397,-3.4397,-1.6386,-1.5814,-1.5349,-1.557,-1.602,-1.6333,-1.6379,-1.6683,-1.6978,-1.7047,-1.6978,-1.6908,-1.7056,-1.6945,-1.6856,-1.6884,-1.8224,-1.9562,-2.003,-2.0431,-2.0873,-2.1366,-2.1163,-2.1274,-2.2053,-2.1391,-2.0907,-2.0907,-2.0555,-2.0555,-2.0907,-2.0555,-2.0292,-2.0292,-2.0292,-2.0292,-2.0292,-2.0997,-2.1704,-2.2306,-2.3135,-2.3851,-2.4454,-2.4454,-2.454,-2.454,-2.454,-2.454,-2.454,-2.454,-2.4519,-2.4478,-2.4478,-2.4457,-2.4426,-2.4467,-2.4451,-2.4479,-2.4946,-2.5174,-2.5306,-2.6135,-2.6185,-2.5913,-2.5997,-2.6554,-2.7279,-2.7545,-2.8131,-2.8791,-2.8937,-2.9003,-2.898,-2.8901,-2.8845,-2.8834,-2.8773,-2.8717,-2.8729,-2.8689,-2.863,-2.8779,-2.9247,-2.9376,-2.951,-2.9966,-3.0,-3.0125,-3.0125,-3.0125,-3.0125,-3.0034,-3.0125,-3.0125,-3.0125,-3.0216,-3.0216,-3.0216,-3.0216,-3.0487,-3.1306,-3.1306,-3.2089,-3.3628,-3.3628,-3.4147,-3.5003,-3.4839,-3.4756,-3.4756,-3.4481,-3.4397,-1.678,-1.6464,-1.6337,-1.6775,-1.681,-1.6734,-1.6972,-1.7235,-1.7266,-1.6981,-1.6897,-1.6894,-1.6865,-1.6897,-1.6917,-1.6881,-1.7827,-1.8893,-1.9982,-2.013,-2.0366,-2.1058,-2.1206,-2.1395,-2.1731,-2.122,-2.0815,-2.0572,-2.0382,-2.0374,-2.0555,-2.0374,-2.0292,-2.0292,-2.0292,-2.0292,-2.0292,-2.0555,-2.0907,-2.1168,-2.1891,-2.2334,-2.2687,-2.3484,-2.3937,-2.3937,-2.4282,-2.454,-2.454,-2.454,-2.454,-2.454,-2.4882,-2.4967,-2.5094,-2.5626,-2.5583,-2.5395,-2.5881,-2.5983,-2.6035,-2.6378,-2.6539,-2.6644,-2.6644,-2.6891,-2.7208,-2.7278,-2.7603,-2.7857,-2.7926,-2.8231,-2.8445,-2.8409,-2.8594,-2.887,-2.9155,-2.9183,-2.9263,-2.9561,-2.96,-2.9647,-2.9929,-2.9908,-2.9943,-3.0216,-3.0216,-3.0216,-3.0216,-3.0216,-3.0216,-3.0216,-3.0216,-3.0216,-3.0216,-3.0216,-3.0216,-3.0216,-3.0216,-3.0306,-3.0668,-3.0668,-3.1104,-3.2251,-3.2251,-3.2859,-3.4076,-3.3992,-3.4243,-3.4756,-3.4494,-3.4494,-1.7429,-1.7275,-1.7454,-1.7731,-1.7543,-1.7339,-1.7614,-1.7678,-1.7588,-1.7216,-1.7009,-1.6902,-1.69,-1.6911,-1.6884,-1.6923,-1.784,-1.893,-2.0121,-2.0262,-2.048,-2.1131,-2.1328,-2.1456,-2.1576,-2.1251,-2.0874,-2.0497,-2.0463,-2.0412,-2.03,-2.0292,-2.0292,-2.0292,-2.0292,-2.0292,-2.0292,-2.0292,-2.0382,-2.0645,-2.1177,-2.1598,-2.1887,-2.2878,-2.3398,-2.3525,-2.4233,-2.4584,-2.4584,-2.4933,-2.5096,-2.5183,-2.5712,-2.5883,-2.6012,-2.6693,-2.6766,-2.6576,-2.6775,-2.6874,-2.6896,-2.6749,-2.6962,-2.7231,-2.7231,-2.7231,-2.7231,-2.7231,-2.7231,-2.7265,-2.7415,-2.7713,-2.8057,-2.8356,-2.8689,-2.9079,-2.9596,-2.9711,-2.9814,-3.0147,-3.0216,-3.0216,-3.0216,-3.0216,-3.0216,-3.0216,-3.0216,-3.0216,-3.0216,-3.0216,-3.0216,-3.0216,-3.0216,-3.0216,-3.0216,-3.0216,-3.0216,-3.0216,-3.0216,-3.0216,-3.0216,-3.0216,-3.0578,-3.1383,-3.1383,-3.2077,-3.3556,-3.3556,-3.4063,-3.4921,-3.466,-3.466,-1.8313,-1.8304,-1.8406,-1.8128,-1.8109,-1.8109,-1.8119,-1.7924,-1.7739,-1.7656,-1.727,-1.6902,-1.6902,-1.6902,-1.694,-1.6902,-1.8514,-1.9874,-2.0289,-2.0888,-2.1542,-2.1936,-2.1645,-2.1559,-2.1953,-2.1636,-2.1259,-2.09,-2.0874,-2.0703,-2.0309,-2.0292,-2.0292,-2.0292,-2.0292,-2.0292,-2.0292,-2.0292,-2.0645,-2.1356,-2.1356,-2.1924,-2.2947,-2.3038,-2.3174,-2.356,-2.4394,-2.467,-2.4762,-2.6014,-2.6562,-2.6651,-2.7183,-2.7371,-2.7371,-2.7382,-2.7656,-2.8038,-2.7435,-2.7617,-2.7885,-2.7392,-2.7231,-2.7231,-2.7231,-2.7231,-2.7231,-2.7231,-2.7231,-2.7346,-2.7839,-2.7977,-2.823,-2.924,-2.9481,-2.9619,-3.0101,-3.0204,-3.0204,-3.0216,-3.0216,-3.0216,-3.0216,-3.0216,-3.0216,-3.0216,-3.0216,-3.0216,-3.0216,-3.0216,-3.0216,-3.0216,-3.0216,-3.0216,-3.0216,-3.0216,-3.0216,-3.0216,-3.0216,-3.0216,-3.0216,-3.0216,-3.0656,-3.1536,-3.1625,-3.2401,-3.3953,-3.3953,-3.4384,-3.5086,-3.5086,-3.5003,-1.8364,-1.8522,-1.8626,-1.8531,-1.8522,-1.8522,-1.8522,-1.8635,-1.8635,-1.8051,-1.8311,-1.8508,-1.857,-1.8517,-1.8543,-1.8523,-1.9101,-1.9796,-2.0942,-2.1067,-2.144,-2.227,-2.2291,-2.2022,-2.1544,-2.1492,-2.1362,-2.099,-2.0925,-2.0823,-2.0703,-2.0694,-2.0566,-2.03,-2.0292,-2.0292,-2.0292,-2.0292,-2.0382,-2.0654,-2.0924,-2.1208,-2.1609,-2.2324,-2.2692,-2.282,-2.357,-2.4127,-2.4487,-2.5492,-2.6233,-2.689,-2.7964,-2.8533,-2.8834,-2.9195,-2.9171,-2.9053,-2.8881,-2.8465,-2.7954,-2.7793,-2.7506,-2.73,-2.7633,-2.7748,-2.7816,-2.8138,-2.8,-2.7862,-2.8344,-2.8746,-2.9102,-2.9424,-2.9757,-3.0032,-3.0181,-3.0216,-3.0216,-3.0216,-3.0216,-3.0216,-3.0216,-3.0216,-3.0216,-3.0216,-3.0216,-3.0216,-3.0216,-3.0216,-3.0216,-3.0216,-3.0216,-3.0216,-3.0216,-3.0216,-3.0216,-3.0216,-3.0216,-3.0216,-3.0216,-3.0216,-3.0306,-3.0656,-3.0656,-3.1092,-3.2164,-3.2846,-3.37,-3.4921,-3.4921,-3.4743,-1.8647,-1.8848,-1.8935,-1.8935,-1.8935,-1.8935,-1.8935,-1.9136,-1.9145,-1.8647,-1.8942,-1.9335,-1.9291,-1.9266,-1.9263,-1.9308,-2.0182,-2.117,-2.2062,-2.1746,-2.1578,-2.1957,-2.2156,-2.1954,-2.1065,-2.132,-2.1402,-2.107,-2.1007,-2.0831,-2.0798,-2.0883,-2.0771,-2.0523,-2.0643,-2.0711,-2.0711,-2.0711,-2.0711,-2.0711,-2.0968,-2.1156,-2.1311,-2.1996,-2.2469,-2.2883,-2.3564,-2.4411,0.0,-2.6187,-2.7193,-2.8196,-2.9015,-2.9568,-2.9943,-3.0125,-3.0032,-2.9745,-2.9561,-2.9091,-2.8517,-2.8322,-2.8035,-2.7885,-2.839,-2.8413,-2.831,-2.8609,-2.8482,-2.8367,-2.8873,-2.9251,-2.9538,-2.9722,-2.9998,-3.0216,-3.0216,-3.0216,-3.0216,-3.0216,-3.0216,-3.0216,-3.0216,-3.0216,-3.0216,-3.0216,-3.0216,-3.0216,-3.0216,-3.0216,-3.0216,-3.0216,-3.0216,-3.0216,-3.0216,-3.0216,-3.0216,-3.0216,-3.0216,-3.0216,-3.0216,-3.0216,-3.0216,-3.0216,-3.0216,-3.0578,-3.1306,-3.25,-3.353,-3.4481,-3.4743,-3.4743,0.0,-1.9177,-1.9265,-1.9292,-1.9283,-1.9256,-1.9265,-1.9335,0.0,-1.9265,-1.9265,-1.9292,-1.9277,-1.9295,-1.9243,-1.9245,-2.1513,-2.3349,-2.3367,-2.264,-2.1829,-2.1227,-2.1416,-2.1287,-2.0702,-2.0974,-2.1189,-2.1205,-2.1053,-2.0808,-2.0601,-2.0746,-2.0934,-2.096,-2.1276,-2.1439,-2.1413,-2.1413,-2.1413,-2.1413,-2.1439,-2.1645,-2.1996,-2.2021,-2.2516,-2.3329,-2.4134,-2.5382,-2.6884,-2.7893,-2.9117,-3.0125,-3.0216,-3.0306,-3.0578,-3.0306,-3.0216,-3.0147,-2.9711,-2.9527,-2.9412,-2.8873,-2.8723,-2.885,-2.9343,-2.9125,-2.8712,-2.8792,-2.8781,-2.8884,-2.9412,-2.955,-2.9665,-3.0112,-3.0216,-3.0216,-3.0216,-3.0216,-3.0216,-3.0216,-3.0216,-3.0216,-3.0216,-3.0216,-3.0216,-3.0216,-3.0216,-3.0216,-3.0216,-3.0216,-3.0216,-3.0216,-3.0216,-3.0216,-3.0216,-3.0216,-3.0216,-3.0216,-3.0216,-3.0216,-3.0216,-3.0216,-3.0216,-3.0216,-3.0216,-3.0578,-3.1306,-3.2772,-3.3713,-3.3953,-3.4647,-3.4908,-1.7122,0.0,-1.8916,-1.9228,-1.9072,-1.8948,0.0,-1.9307,-1.9288,-1.9294,0.0,-1.933,-1.9324,-1.9318,-1.912,-1.844,-2.0846,-2.2744,-2.2832,-2.2632,-2.2308,-2.1551,-2.1495,-2.1162,-2.0427,-2.0679,-2.0883,-2.0891,-2.0858,-2.0848,-2.1047,-2.0887,-2.0958,-2.1438,-2.1523,-2.1519,-2.1413,-2.1413,-2.1413,-2.1413,-2.1713,-2.191,-2.2004,-2.2287,-2.2759,-2.3329,-2.4106,-2.5178,-2.633,-2.7767,-2.8724,-2.9393,-2.9943,-3.0216,-3.0306,-3.0216,-3.0216,-3.0204,-3.0089,-2.9802,-2.9412,-2.8873,-2.8976,-2.9332,-2.9458,-2.9125,-2.8861,-2.9642,-2.9596,-2.9424,-2.9917,-3.0044,-3.0078,-3.0181,-3.0216,-3.0216,-3.0216,-3.0216,-3.0216,-3.0216,-3.0216,-3.0216,-3.0216,-3.0216,-3.0216,-3.0216,-3.0216,-3.0216,-3.0216,-3.0216,-3.0216,-3.0216,-3.0216,-3.0216,-3.0216,-3.0216,-3.0216,-3.0216,-3.0216,-3.0216,-3.0216,-3.0216,-3.0216,-3.0216,-3.0216,-3.0656,-3.1548,-3.1725,-3.2513,-3.3797,-3.381,-3.4076,-1.6174,-1.6924,-1.7692,-1.8152,-1.8206,-1.8175,-1.8374,0.0,0.0,0.0,0.0,0.0,-1.9291,-2.0514,-2.1178,-1.9942,-2.0766,-2.1773,-2.247,-2.2455,-2.2088,-2.1416,-2.117,-2.0802,-2.0289,-2.0435,-2.0579,-2.0809,-2.0818,-2.0737,-2.0761,-2.0835,-2.1031,-2.1153,-2.1478,-2.1668,-2.1687,-2.1679,-2.1679,-2.1687,-2.2064,-2.2244,-2.2252,-2.275,-2.3238,-2.3728,-2.4421,-2.5567,-2.7189,-2.7861,-2.891,-2.9966,-3.0125,-3.0306,-3.0397,-3.0216,-3.0216,-3.0216,-3.0216,-3.0044,-2.978,-2.9481,-2.9584,-2.9825,-2.9825,-2.963,-2.9504,-3.0067,-3.0032,-2.9883,-3.0147,-3.0216,-3.0216,-3.0216,-3.0216,-3.0216,-3.0397,-3.0306,-3.0216,-3.0397,-3.0306,-3.0216,-3.0216,-3.0216,-3.0216,-3.0216,-3.0216,-3.0216,-3.0216,-3.0216,-3.0216,-3.0216,-3.0216,-3.0216,-3.0216,-3.0216,-3.0216,-3.0216,-3.0216,-3.0216,-3.0216,-3.0216,-3.0216,-3.0216,-3.0216,-3.0476,-3.0913,-3.1205,-3.1737,-3.2599,-3.2686,-3.3202,-1.5455,-1.5756,-1.6094,-1.6798,-1.7125,-1.7293,-1.7405,0.0,0.0,0.0,0.0,0.0,0.0,-2.1428,-2.2732,-2.1294,-2.0704,-2.0914,-2.2404,-2.2192,-2.1735,-2.1109,-2.0676,-2.0387,-2.0175,-2.0151,-2.0353,-2.071,-2.0696,-2.0547,-2.0337,-2.072,-2.0933,-2.0834,-2.1204,-2.1645,-2.1906,-2.1948,-2.1982,-2.1982,-2.2289,-2.2544,-2.2644,-2.3129,-2.3628,-2.4233,-2.4824,-2.6254,-2.8049,-2.7977,-2.9117,-3.0703,-3.0227,-3.0216,-3.0487,-3.0306,-3.0216,-3.0216,-3.0216,-3.0216,-3.0216,-3.0216,-3.0216,-3.0216,-3.0216,-3.0216,-3.0216,-3.0216,-3.0216,-3.0216,-3.0216,-3.0306,-3.0306,-3.0306,-3.0306,-3.0397,-3.0578,-3.0487,-3.0306,-3.0578,-3.0397,-3.0216,-3.0216,-3.0216,-3.0216,-3.0216,-3.0216,-3.0216,-3.0216,-3.0216,-3.0216,-3.0216,-3.0216,-3.0216,-3.0216,-3.0216,-3.0216,-3.0216,-3.0216,-3.0216,-3.0216,-3.0216,-3.0216,-3.0216,-3.0216,-3.0216,-3.0216,-3.0847,-3.1205,-3.1205,-3.1637,-3.2339,-1.4091,-1.4041,-1.4455,-1.6182,-1.6618,-1.6681,-1.7296,0.0,0.0,0.0,0.0,0.0,0.0,-1.8902,-1.8502,-1.8247,-1.9654,-2.1189,-2.2316,-2.2038,-2.1447,-2.0951,-2.0516,-2.0094,-1.9937,-2.0008,-2.0172,-2.0297,-2.0281,-2.0392,-2.0734,-2.0341,-2.0392,-2.1148,-2.0686,-2.0745,-2.1304,-2.1603,-2.1744,-2.1744,-2.2005,-2.2426,-2.2828,-2.3129,-2.3827,-2.4833,-2.5586,-2.635,-2.7136,-2.7799,-2.856,-2.9405,-2.9312,-2.9669,-3.0216,-3.0216,-3.0216,-3.0216,-3.0216,-3.0216,-3.0216,-3.0487,-3.0397,-3.0216,-3.0487,-3.0397,-3.0216,-3.0216,-3.0216,-3.0216,-3.0487,-3.0578,-3.0589,-3.0781,-3.0883,-3.0883,-3.0883,-3.0769,-3.0578,-3.0578,-3.0397,-3.0216,-3.0216,-3.0216,-3.0216,-3.0216,-3.0216,-3.0216,-3.0216,-3.0216,-3.0216,-3.0216,-3.0216,-3.0216,-3.0216,-3.0216,-3.0216,-3.0216,-3.0216,-3.0216,-3.0216,-3.0216,-3.0216,-3.0216,-3.0216,-3.0216,-3.0216,-3.0306,-3.0566,-3.0991,-3.108,-3.1436,-1.3846,-1.385,-1.403,-1.5249,-1.5657,-1.5782,-1.5997,0.0,0.0,0.0,0.0,0.0,0.0,-1.9238,-2.0021,-2.0704,-2.1456,-2.2028,-2.2371,-2.1913,-2.1386,-2.0942,-2.05,-2.0197,-2.0239,-2.0297,-2.0359,-2.0426,-2.0459,-2.0419,-2.0451,-2.0524,-2.0622,-2.0655,-2.09,-2.1023,-2.1213,-2.1552,-2.1727,-2.1645,-2.2036,-2.2538,-2.312,-2.3619,-2.4226,-2.4932,-2.5616,-2.6284,-2.6955,-2.7788,-2.8631,-2.9393,-2.9863,-3.0329,-3.0601,-3.0601,-3.0601,-3.0601,-3.0601,-3.0601,-3.0691,-3.0781,-3.0589,-3.0487,-3.0578,-3.0397,-3.0216,-3.0216,-3.0306,-3.0487,-3.0578,-3.0679,-3.0871,-3.0972,-3.0984,-3.0984,-3.0984,-3.0781,-3.0578,-3.0578,-3.0397,-3.0216,-3.0216,-3.0216,-3.0216,-3.0216,-3.0216,-3.0216,-3.0216,-3.0216,-3.0216,-3.0216,-3.0216,-3.0216,-3.0216,-3.0216,-3.0216,-3.0216,-3.0216,-3.0216,-3.0216,-3.0216,-3.0216,-3.0216,-3.0216,-3.0216,-3.0216,-3.0045,-3.0136,-3.0306,-3.0023,-3.0374,-1.3887,-1.3981,-1.395,-1.4489,0.0,-1.4975,-1.4949,-1.522,0.0,0.0,0.0,0.0,-1.7254,-1.9434,-2.1543,-2.262,-2.2593,-2.2336,-2.2355,-2.1726,-2.1148,-2.0788,-2.048,-2.032,-2.0433,-2.0467,-2.0525,-2.0599,-2.0624,-2.0438,-2.0239,-2.0776,-2.0858,-2.038,-2.1164,-2.1478,-2.1222,-2.1469,-2.1611,-2.1628,-2.2008,-2.265,-2.342,-2.4017,-2.4541,-2.5137,-2.5538,-2.6197,-2.703,-2.7767,-2.8609,-2.9658,-3.0408,-3.0793,-3.0984,-3.0984,-3.0984,-3.0984,-3.0984,-3.0984,-3.0984,-3.1062,-3.0871,-3.0668,-3.0758,-3.0578,-3.0408,-3.0408,-3.0499,-3.0668,-3.0668,-3.0871,-3.1062,-3.1151,-3.1151,-3.1151,-3.1062,-3.0871,-3.0679,-3.0578,-3.0397,-3.0216,-3.0216,-3.0216,-3.0216,-3.0216,-3.0216,-3.0216,-3.0216,-3.0216,-3.0216,-3.0216,-3.0216,-3.0216,-3.0216,-3.0216,-3.0216,-3.0216,-3.0216,-3.0216,-3.0216,-3.0216,-3.0216,-3.0216,-3.0216,-3.0216,-3.0136,-2.9977,-2.9794,-2.9703,-2.9312,-2.9485,-1.388,-1.3981,-1.3901,-1.423,-1.4314,0.0,-1.5203,-1.5266,0.0,-1.6434,0.0,-1.7266,-1.6166,-1.7864,-1.9686,-2.0539,-2.0966,-2.1441,-2.2074,-2.1517,-2.0771,-2.0377,-2.0309,-2.03,-2.0326,-2.0335,-2.0405,-2.0516,-2.0542,-2.0487,-2.0586,-2.0669,-2.0834,-2.1123,-2.1189,-2.1213,-2.1213,-2.1238,-2.1395,-2.1684,-2.1988,-2.2702,-2.3728,-2.3998,-2.4707,-2.5635,-2.5635,-2.6284,-2.7189,-2.7284,-2.8319,-2.9818,-2.9818,-3.0295,-3.0984,-3.0984,-3.0984,-3.0984,-3.0984,-3.0984,-3.1062,-3.1229,-3.1139,-3.0972,-3.1217,-3.1139,-3.0984,-3.0984,-3.0984,-3.0972,-3.0972,-3.1139,-3.1306,-3.1572,-3.1661,-3.1572,-3.1306,-3.1151,-3.0883,-3.0668,-3.0397,-3.0216,-3.0216,-3.0216,-3.0216,-3.0216,-3.0216,-3.0216,-3.0216,-3.0216,-3.0216,-3.0216,-3.0216,-3.0216,-3.0216,-3.0216,-3.0216,-3.0216,-3.0216,-3.0216,-3.0216,-3.0216,-3.0216,-3.0216,-3.0216,-3.0136,-2.9886,-2.9886,-2.96,-2.9128,-2.9128,-2.9128,-1.3548,-1.3987,-1.4342,-1.4489,-1.4566,0.0,0.0,-1.4852,-1.5014,-1.5751,-1.5971,-1.6166,-1.6476,-1.8711,-2.0439,-2.0541,-2.1264,-2.177,-2.1696,-2.124,-2.0737,-2.0343,-2.0292,-2.0292,-2.0292,-2.0292,-2.0352,-2.0414,-2.0423,-2.039,-2.0433,-2.0669,-2.0762,-2.0661,-2.1092,-2.1227,-2.1024,-2.1235,-2.1502,-2.1913,-2.197,-2.2592,-2.3642,-2.4068,-2.4823,-2.5742,-2.5742,-2.5917,-2.637,-2.7662,-2.8495,-2.9246,-3.0453,-3.1205,-3.1407,-3.1407,-3.1407,-3.1407,-3.1407,-3.1407,-3.1407,-3.1484,-3.1395,-3.1229,-3.1306,-3.1139,-3.0984,-3.0984,-3.1062,-3.1229,-3.1229,-3.1217,-3.1395,-3.1661,-3.1572,-3.1395,-3.1139,-3.096,-3.0679,-3.0397,-3.0306,-3.0216,-3.0216,-3.0216,-3.0216,-3.0216,-3.0216,-3.0216,-3.0216,-3.0216,-3.0216,-3.0216,-3.0216,-3.0216,-3.0216,-3.0216,-3.0216,-3.0216,-3.0216,-3.0216,-3.0216,-3.0216,-3.0216,-3.0216,-3.0216,-3.0136,-2.9886,-2.9691,-2.9497,-2.9128,-2.8943,-2.8943,-1.366,-1.405,-1.4398,-1.4719,0.0,0.0,-1.5041,-1.4832,-1.4804,-1.5391,-1.5378,-1.5657,-1.6952,-1.9092,-2.0534,-2.0466,-2.1344,-2.1995,-2.1468,-2.1049,-2.0683,-2.0326,-2.0292,-2.0292,-2.0292,-2.0382,-2.0382,-2.0292,-2.0382,-2.0382,-2.0292,-2.066,-2.0754,-2.0489,-2.1088,-2.1242,-2.0883,-2.1122,-2.1457,-2.1786,-2.1931,-2.2656,-2.3818,-2.4326,-2.4966,-2.5742,-2.5742,-2.5917,-2.6284,-2.8028,-2.905,-2.9795,-3.1193,-3.1661,-3.1661,-3.1661,-3.1661,-3.1661,-3.1661,-3.1661,-3.1661,-3.1661,-3.1572,-3.1395,-3.1395,-3.1318,-3.1241,-3.1241,-3.1229,-3.1306,-3.1395,-3.1395,-3.1484,-3.1849,-3.1572,-3.1306,-3.1496,-3.1038,-3.0656,-3.0824,-3.0656,-3.0578,-3.0836,-3.0824,-3.0824,-3.0824,-3.0824,-3.0824,-3.0824,-3.0836,-3.0746,-3.0668,-3.0668,-3.0668,-3.0668,-3.0668,-3.0668,-3.0668,-3.0819,-3.074,-3.0408,-3.0729,-3.0912,-3.0912,-3.1064,-3.0974,-3.0629,-3.0421,-3.0224,-2.9956,-2.9851,-2.9851,-1.4194,-1.4137,-1.3971,-1.4828,0.0,0.0,-1.5463,-1.5308,-1.5055,-1.5651,-1.5832,-1.6197,-1.7404,-1.8597,-1.9485,-1.9784,-2.1017,-2.1877,-2.16,-2.1081,-2.0564,-2.0382,-2.0292,-2.0292,-2.0292,-2.0564,-2.0564,-2.0292,-2.0564,-2.0564,-2.0292,-2.066,-2.0874,-2.0874,-2.1216,-2.1234,-2.0874,-2.0874,-2.0954,-2.1006,-2.1971,-2.3057,-2.4335,-2.4742,-2.5226,-2.5742,-2.5742,-2.6284,-2.7284,-2.8308,-2.9886,-3.1661,-3.1661,-3.1661,-3.1661,-3.1661,-3.1661,-3.1661,-3.1661,-3.1661,-3.1661,-3.1661,-3.1661,-3.1661,-3.1661,-3.1661,-3.1661,-3.1661,-3.1484,-3.1395,-3.1661,-3.1673,-3.1837,-3.23,-3.1849,-3.1572,-3.2537,-3.156,-3.0925,-3.204,-3.1713,-3.156,-3.2227,-3.2302,-3.2302,-3.2302,-3.2302,-3.2302,-3.2302,-3.2152,-3.1901,-3.1749,-3.1661,-3.1661,-3.1661,-3.1661,-3.1661,-3.1673,-3.2256,-3.2034,-3.0972,-3.1908,-3.2557,-3.2557,-3.3063,-3.2957,-3.2194,-3.2194,-3.2099,-3.1815,-3.1815,-3.2099,-1.3353,-1.3787,0.0,-1.4177,0.0,0.0,0.0,-1.506,0.0,-1.5732,-1.5927,-1.6055,-1.6109,-1.7787,-1.9136,-1.8629,-2.0275,-2.1473,-2.1174,-2.0978,-2.0826,-2.0654,-2.0564,-2.0564,-2.0564,-2.0473,-2.0555,-2.0727,-2.0555,-2.0564,-2.0826,-2.0577,-2.0646,-2.1002,-2.075,-2.0666,-2.0737,-2.1357,-2.1805,-2.198,-2.342,-2.4013,-2.3881,-2.4679,-2.5237,-2.5742,-2.5742,-2.583,-2.6284,-2.8038,-2.9429,-3.0734,-3.1383,-3.1661,-3.1661,-3.1661,-3.1661,-3.1661,-3.1661,-3.1661,-3.1661,-3.1661,-3.1661,-3.1661,-3.1661,-3.1661,-3.1661,-3.1661,-3.1661,-3.1661,-3.2125,-3.2213,-3.2213,-3.2388,-3.2376,-3.2363,-3.2624,-3.2251,-3.1877,-3.2215,-3.214,-3.2052,-3.2314,-3.2302,-3.2302,-3.2302,-3.2302,-3.2227,-3.2152,-3.1901,-3.1749,-3.1749,-3.1661,-3.1661,-3.1661,-3.1661,-3.1817,-3.228,-3.2718,-3.2731,-3.2034,-3.2719,-3.31,-3.31,-3.3256,-3.3131,-3.2734,-3.2734,-3.2547,-3.2383,-3.2383,-3.2477,-1.3457,-1.3803,0.0,-1.4227,-1.4603,-1.498,-1.4856,-1.5144,-1.5478,-1.5765,-1.5927,-1.6062,-1.6244,-1.7827,-1.9082,-1.906,-2.0399,-2.1472,-2.1195,-2.1195,-2.1096,-2.0826,-2.0826,-2.0773,-2.0445,-2.0657,-2.0683,-2.0606,-2.0657,-2.0835,-2.0997,-2.0727,-2.0736,-2.0997,-2.0736,-2.0736,-2.1087,-2.1835,-2.241,-2.2994,-2.4285,-2.4743,-2.4594,-2.5127,-2.5478,-2.5742,-2.5742,-2.5917,-2.637,-2.8038,-2.9326,-3.026,-3.1294,-3.1661,-3.1661,-3.1661,-3.1661,-3.1661,-3.1661,-3.1661,-3.1661,-3.1661,-3.1661,-3.1661,-3.1661,-3.1849,-3.1937,-3.1937,-3.2101,-3.2264,-3.2537,-3.281,-3.2884,-3.2884,-3.2797,-3.2797,-3.33,-3.2846,-3.2488,-3.3006,-3.2932,-3.2846,-3.3091,-3.3091,-3.3018,-3.3018,-3.292,-3.276,-3.2599,-3.2438,-3.2351,-3.2276,-3.2276,-3.2276,-3.2276,-3.2484,-3.2742,-3.3073,-3.3748,-3.3983,-3.3722,-3.4041,-3.42,-3.42,-3.4421,-3.4332,-3.3944,-3.3944,-3.3944,-3.3767,-3.3767,-3.3956,-1.4055,-1.4125,-1.42,-1.4726,-1.4663,-1.4676,-1.5264,-1.5378,-1.5444,-1.5765,-1.5832,-1.619,-1.7375,-1.8218,-1.9147,-2.0314,-2.1159,-2.1651,-2.1482,-2.1392,-2.1293,-2.1087,-2.0997,-2.0775,-2.0272,-2.0909,-2.106,-2.0254,-2.0918,-2.1293,-2.1087,-2.0997,-2.1087,-2.1087,-2.1078,-2.1257,-2.1793,-2.2316,-2.3004,-2.3857,-2.481,-2.5506,-2.5903,-2.5836,-2.5732,-2.5732,-2.583,-2.637,-2.7284,-2.8402,-2.9418,-3.026,-3.1294,-3.1661,-3.1661,-3.1661,-3.1661,-3.1661,-3.1661,-3.1661,-3.1661,-3.1661,-3.1661,-3.1749,-3.1749,-3.2025,-3.2388,-3.2475,-3.2711,-3.3031,-3.3031,-3.3373,-3.3713,-3.3713,-3.33,-3.3129,-3.4147,-3.3348,-3.2834,-3.4134,-3.3894,-3.3641,-3.4314,-3.4243,-3.4076,-3.4076,-3.381,-3.3641,-3.3398,-3.3398,-3.3338,-3.3144,-3.3156,-3.3169,-3.3219,-3.3684,-3.3997,-3.4048,-3.4989,-3.5567,-3.5617,-3.5617,-3.5617,-3.5617,-3.6107,-3.6181,-3.5716,-3.5716,-3.5716,-3.5716,-3.5716,-3.5895,-1.374,-1.3805,0.0,-1.4069,-1.4267,-1.4676,-1.5264,-1.5217,-1.5204,-1.5718,-1.5832,-1.6035,-1.6798,-1.7965,-1.9066,-1.9783,-2.0891,-2.1651,-2.1651,-2.1651,-2.1562,-2.1302,-2.1293,-2.1266,-2.1096,-2.106,-2.115,-2.1346,-2.123,-2.1186,-2.1553,-2.1177,-2.1356,-2.2078,-2.1704,-2.1882,-2.253,-2.3696,-2.4268,-2.4408,-2.5849,-2.6461,-2.6355,-2.636,-2.6314,-2.64,-2.6945,-2.7305,-2.7673,-2.9246,-2.9977,-3.026,-3.1294,-3.1661,-3.1661,-3.1661,-3.1661,-3.1661,-3.1661,-3.1661,-3.1661,-3.1661,-3.1661,-3.1749,-3.2125,-3.23,-3.2475,-3.2797,-3.2957,-3.3116,-3.3458,-3.3628,-3.3797,-3.4134,-3.4147,-3.4063,-3.4314,-3.4134,-3.405,-3.4314,-3.4314,-3.423,-3.4397,-3.4243,-3.3992,-3.381,-3.3556,-3.3484,-3.3398,-3.324,-3.3318,-3.3671,-3.3721,-3.3897,-3.4336,-3.4474,-3.4726,-3.5165,-3.5416,-3.573,-3.6169,-3.6194,-3.6194,-3.6194,-3.6295,-3.6358,-3.6275,-3.6275,-3.6275,-3.6275,-3.6275,-3.6275,-1.3768,0.0,0.0,-1.3987,-1.4273,-1.4717,-1.5694,-1.5417,-1.5354,-1.6529,-1.6324,-1.6085,-1.6892,-1.7982,-1.909,-2.0061,-2.0774,-2.1335,-2.1615,-2.1651,-2.1571,-2.1562,-2.1562,-2.14,-2.1121,-2.1266,-2.1293,-2.128,-2.1355,-2.1454,-2.1651,-2.1722,-2.1811,-2.2087,-2.2246,-2.2694,-2.3279,-2.4445,-2.5157,-2.549,-2.6553,-2.6986,-2.688,-2.6592,-2.6496,-2.6496,-2.7315,-2.7589,-2.7778,-2.9521,-3.017,-3.026,-3.1294,-3.1661,-3.1661,-3.1661,-3.1661,-3.1661,-3.1661,-3.1661,-3.1661,-3.1661,-3.1849,-3.2113,-3.23,-3.2723,-3.3056,-3.33,-3.3458,-3.3725,-3.3979,-3.4063,-3.4063,-3.4314,-3.4397,-3.4397,-3.4397,-3.4397,-3.4397,-3.4314,-3.4243,-3.423,-3.4063,-3.3894,-3.3654,-3.3484,-3.3541,-3.3631,-3.3631,-3.3784,-3.3972,-3.4261,-3.4299,-3.4412,-3.47,-3.4964,-3.524,-3.5437,-3.5793,-3.6056,-3.6358,-3.6358,-3.6358,-3.6358,-3.6358,-3.6358,-3.6358,-3.6358,-3.6358,-3.6358,-3.6358,-3.6358,-1.3819,0.0,-1.396,-1.4099,-1.4269,-1.477,-1.6009,-1.5701,-1.5602,-1.7474,-1.6803,-1.6257,-1.7321,-1.8132,-1.9118,-2.044,-2.0775,-2.0974,-2.1496,-2.1516,-2.1482,-2.1651,-2.1651,-2.1514,-2.1002,-2.145,-2.1505,-2.0992,-2.1459,-2.1741,-2.182,-2.2176,-2.2264,-2.2087,-2.2784,-2.3526,-2.4058,-2.4927,-2.5737,-2.6579,-2.7044,-2.7262,-2.7262,-2.6784,-2.6592,-2.688,-2.761,-2.7966,-2.8236,-2.9806,-3.0453,-3.0543,-3.1383,-3.1661,-3.1661,-3.1661,-3.1661,-3.1661,-3.1661,-3.1661,-3.1661,-3.1661,-3.2025,-3.2388,-3.2475,-3.3056,-3.381,-3.3894,-3.4147,-3.4494,-3.4397,-3.4397,-3.4397,-3.4397,-3.4397,-3.4397,-3.4397,-3.4397,-3.4314,-3.416,-3.4076,-3.3992,-3.3725,-3.356,-3.3465,-3.3305,-3.3684,-3.4035,-3.4035,-3.4449,-3.4763,-3.4851,-3.4864,-3.4901,-3.5002,-3.5429,-3.5692,-3.5692,-3.6107,-3.6358,-3.6358,-3.6358,-3.6358,-3.6358,-3.6358,-3.6358,-3.6358,-3.6358,-3.6358,-3.6358,-3.6358,-3.6358,-1.3535,0.0,-1.396,-1.4099,-1.4115,-1.447,-1.5605,-1.5638,-1.5771,-1.74,-1.6727,-1.636,-1.7782,-1.8396,-1.8948,-1.9879,-2.0583,-2.1049,-2.0929,-2.1335,-2.1651,-2.1482,-2.1562,-2.1713,-2.1569,-2.1615,-2.1713,-2.1569,-2.1615,-2.1909,-2.2264,-2.2353,-2.2696,-2.3493,-2.3667,-2.4149,-2.4958,-2.5568,-2.6113,-2.6568,-2.6866,-2.7081,-2.7262,-2.6784,-2.7071,-2.8207,-2.8932,-2.9566,-3.0295,-3.1116,-3.1472,-3.1472,-3.1661,-3.1661,-3.1661,-3.1661,-3.1661,-3.1661,-3.1661,-3.1661,-3.1661,-3.1661,-3.2025,-3.2475,-3.2797,-3.3471,-3.416,-3.4507,-3.4673,-3.4673,-3.4481,-3.4397,-3.4397,-3.416,-3.4243,-3.4397,-3.4397,-3.4243,-3.416,-3.4076,-3.3894,-3.3725,-3.3484,-3.3792,-3.4034,-3.3784,-3.4261,-3.4613,-3.4613,-3.4675,-3.4901,-3.5378,-3.5349,-3.5629,-3.6107,-3.6207,-3.6257,-3.6257,-3.632,-3.6358,-3.6358,-3.6358,-3.6358,-3.6358,-3.6358,-3.6358,-3.6358,-3.6358,-3.6358,-3.6358,-3.6358,-3.6358,-1.3515,-1.3712,-1.3796,-1.4015,-1.4088,-1.4578,-1.6214,-1.6034,-1.6073,-1.8633,-1.8104,-1.7405,-1.8096,-1.8537,-1.9024,-1.9661,-2.0243,-2.0689,-2.0907,-2.1298,-2.1482,-2.1392,-2.1562,-2.1651,-2.1562,-2.1651,-2.1741,-2.1741,-2.1741,-2.1909,-2.2344,-2.2618,-2.296,-2.3396,-2.3927,-2.441,-2.4781,-2.5568,-2.6248,-2.6962,-2.7074,-2.7177,-2.7262,-2.7452,-2.782,-2.8395,-2.9013,-2.9749,-3.0668,-3.1395,-3.1661,-3.1661,-3.1661,-3.1661,-3.1661,-3.1661,-3.1661,-3.1661,-3.1661,-3.1661,-3.1661,-3.1661,-3.2189,-3.2797,-3.3129,-3.3725,-3.4327,-3.4673,-3.4673,-3.4577,-3.4397,-3.4397,-3.4397,-3.4314,-3.4314,-3.4397,-3.4397,-3.4243,-3.3992,-3.3738,-3.3738,-3.3781,-3.3707,-3.4161,-3.4438,-3.4361,-3.4826,-3.519,-3.519,-3.5533,-3.5903,-3.6155,-3.618,-3.6269,-3.6521,-3.6452,-3.6358,-3.6358,-3.6358,-3.6358,-3.6358,-3.6358,-3.6358,-3.6358,-3.6358,-3.6358,-3.6358,-3.6358,-3.6358,-3.6358,-3.6358,-3.6358,-1.3604,-1.377,-1.3872,-1.4337,-1.4304,-1.4831,-1.7067,-1.6612,-1.655,-1.9561,-1.9291,-1.865,-1.8849,-1.9079,-1.9399,-1.977,-2.0159,-2.0616,-2.0985,-2.1298,-2.1482,-2.1401,-2.1562,-2.1651,-2.1482,-2.1651,-2.1731,-2.1909,-2.1909,-2.2176,-2.2696,-2.3057,-2.3319,-2.3493,-2.41,-2.4635,-2.4844,-2.5766,-2.6579,-2.7262,-2.7262,-2.7357,-2.7641,-2.8008,-2.8477,-2.8943,-2.9371,-3.0011,-3.0937,-3.1472,-3.1661,-3.1661,-3.1661,-3.1661,-3.1661,-3.1661,-3.1661,-3.1661,-3.1661,-3.1661,-3.1661,-3.1661,-3.2264,-3.3043,-3.3215,-3.3894,-3.4577,-3.4756,-3.4673,-3.4494,-3.4397,-3.4397,-3.4397,-3.4314,-3.4397,-3.4397,-3.423,-3.4063,-3.3861,-3.3589,-3.3695,-3.3935,-3.4085,-3.4562,-3.4926,-3.4926,-3.5403,-3.5835,-3.5835,-3.6375,-3.6815,-3.6815,-3.6722,-3.6709,-3.6709,-3.6546,-3.6358,-3.6358,-3.6358,-3.6358,-3.6358,-3.6358,-3.6358,-3.6358,-3.6358,-3.6358,-3.6358,-3.6358,-3.6358,-3.6358,-3.6358,-3.6358,-1.3563,-1.3817,-1.4423,-1.5313,-1.5043,-1.5182,-1.7903,-1.754,-1.7294,-1.9452,-1.9542,-1.9487,-2.0254,-2.0223,-2.0223,-2.04,-2.0814,-2.1003,-2.0857,-2.1298,-2.1651,-2.1392,-2.1562,-2.1741,-2.1651,-2.1731,-2.1909,-2.2353,-2.2353,-2.2784,-2.3667,-2.3754,-2.3927,-2.4454,-2.4454,-2.4964,-2.5834,-2.6744,-2.721,-2.7262,-2.7081,-2.7462,-2.8301,-2.7893,-2.8713,-3.0487,-3.0476,-3.0937,-3.1661,-3.1661,-3.1661,-3.1661,-3.1661,-3.1661,-3.1661,-3.1661,-3.1661,-3.1661,-3.1661,-3.1661,-3.1661,-3.1661,-3.2264,-3.3031,-3.3043,-3.381,-3.4756,-3.4756,-3.4756,-3.4756,-3.4481,-3.4397,-3.4314,-3.416,-3.4243,-3.4314,-3.3797,-3.3725,-3.3709,-3.3834,-3.3884,-3.406,-3.4587,-3.514,-3.5504,-3.5504,-3.6142,-3.6671,-3.6671,-3.6896,-3.7108,-3.7108,-3.6815,-3.6709,-3.6709,-3.6546,-3.6358,-3.6358,-3.6358,-3.6358,-3.6358,-3.6358,-3.6358,-3.6358,-3.6358,-3.6358,-3.6358,-3.6358,-3.6358,-3.6358,-3.6358,-3.6358,-1.4574,-1.4934,-1.5255,-1.5441,-1.5731,-1.6246,-1.7502,-1.7688,-1.7946,-1.9589,-1.9815,-1.987,-2.042,-2.0227,-2.0145,-2.0475,-2.0851,-2.1108,-2.1021,-2.1386,-2.1651,-2.1392,-2.1562,-2.1651,-2.1482,-2.1651,-2.1909,-2.2353,-2.2441,-2.2794,-2.3754,-2.3841,-2.4013,-2.4454,-2.454,-2.4974,-2.5875,-2.6206,-2.6672,-2.7262,-2.7641,-2.8019,-2.8395,-2.9198,-2.992,-3.0668,-3.1116,-3.1484,-3.1661,-3.1661,-3.1661,-3.1661,-3.1661,-3.1661,-3.1661,-3.1661,-3.1661,-3.1661,-3.1661,-3.1661,-3.1749,-3.2025,-3.2537,-3.3129,-3.3556,-3.4063,-3.4577,-3.4756,-3.4673,-3.4494,-3.4397,-3.4397,-3.4397,-3.4314,-3.4314,-3.4314,-3.3979,-3.4105,-3.4254,-3.4385,-3.4921,-3.5467,-3.5658,-3.6167,-3.6536,-3.6536,-3.6794,-3.6922,-3.6922,-3.7201,-3.7307,-3.7108,-3.7002,-3.6909,-3.6709,-3.6546,-3.6358,-3.6358,-3.6358,-3.6358,-3.6358,-3.6358,-3.6358,-3.6358,-3.6358,-3.6358,-3.6358,-3.6358,-3.6358,-3.6358,-3.6358,-3.6358,-1.5021,-1.5356,-1.5655,-1.6146,-1.6333,-1.6823,-1.8224,-1.8167,-1.8204,-1.9652,-1.9815,-1.9842,-2.0246,-2.0108,-2.0099,-2.0631,-2.1053,-2.1319,-2.1319,-2.1557,-2.1741,-2.1741,-2.183,-2.1909,-2.2008,-2.2087,-2.2353,-2.2784,-2.2872,-2.3232,-2.4013,-2.4013,-2.4186,-2.4454,-2.4695,-2.513,-2.5875,-2.6302,-2.6865,-2.7641,-2.8384,-2.8943,-2.9209,-3.0114,-3.0758,-3.1026,-3.1484,-3.1661,-3.1661,-3.1661,-3.1661,-3.1661,-3.1661,-3.1661,-3.1661,-3.1661,-3.1661,-3.1749,-3.1849,-3.1937,-3.2025,-3.2463,-3.2884,-3.3288,-3.381,-3.4147,-3.4397,-3.4577,-3.4577,-3.4397,-3.4397,-3.4397,-3.4397,-3.4397,-3.4397,-3.445,-3.4504,-3.4585,-3.4735,-3.484,-3.5635,-3.6327,-3.6519,-3.6865,-3.7108,-3.7108,-3.7214,-3.7214,-3.7214,-3.7505,-3.7611,-3.74,-3.7307,-3.7108,-3.6815,-3.6628,-3.6452,-3.6358,-3.6358,-3.6358,-3.6358,-3.6358,-3.6358,-3.6358,-3.6358,-3.6358,-3.6358,-3.6358,-3.6358,-3.6358,-3.6358,-3.6358,0.0,0.0,0.0,-1.7363,-1.6885,-1.6847,-1.9995,-1.9006,-1.7909,-1.9598,-1.9595,-1.943,-1.9852,-1.9943,-2.0191,-2.0952,-2.1438,-2.1722,-2.1741,-2.1731,-2.1909,-2.2353,-2.2432,-2.2618,-2.3057,-2.3135,-2.3309,-2.3754,-2.3841,-2.4013,-2.4454,-2.454,-2.454,-2.454,-2.4974,-2.543,-2.5875,-2.7051,-2.7909,-2.8395,-2.9209,-2.9943,-3.0578,-3.0668,-3.1026,-3.1661,-3.1661,-3.1661,-3.1661,-3.1661,-3.1661,-3.1661,-3.1661,-3.1661,-3.1661,-3.1661,-3.1661,-3.1749,-3.2213,-3.24,-3.2475,-3.2871,-3.3288,-3.3713,-3.3725,-3.4063,-3.4397,-3.4397,-3.4397,-3.4397,-3.4397,-3.4397,-3.4397,-3.4397,-3.4397,-3.4567,-3.5168,-3.5128,-3.5037,-3.5353,-3.5917,-3.6468,-3.7019,-3.7108,-3.7108,-3.7108,-3.732,-3.7505,-3.7505,-3.7703,-3.79,-3.79,-3.7611,-3.7413,-3.7108,-3.6815,-3.6628,-3.6452,-3.6358,-3.6358,-3.6358,-3.6358,-3.6358,-3.6358,-3.6358,-3.6358,-3.6358,-3.6358,-3.6358,-3.6358,-3.6358,-3.6358,-1.5414,0.0,0.0,0.0,0.0,0.0,-1.8949,-1.8722,-1.8623,-1.9679,-1.9443,-1.9279,-1.977,-2.0007,-2.018,-2.0181,-2.0833,-2.1392,-2.1695,-2.1998,-2.2264,-2.2353,-2.2706,-2.296,-2.3057,-2.3135,-2.3309,-2.3754,-2.3841,-2.4013,-2.4454,-2.454,-2.454,-2.454,-2.4664,-2.5099,-2.5875,-2.6732,-2.7575,-2.8395,-2.9669,-3.0385,-3.0578,-3.1116,-3.1484,-3.1661,-3.1661,-3.1661,-3.1661,-3.1661,-3.1661,-3.1661,-3.1661,-3.1661,-3.1661,-3.1661,-3.1661,-3.1749,-3.2213,-3.24,-3.2562,-3.33,-3.3628,-3.3797,-3.4134,-3.4314,-3.4397,-3.4397,-3.4397,-3.4397,-3.4397,-3.4397,-3.4397,-3.4397,-3.4397,-3.4567,-3.5168,-3.5513,-3.5957,-3.6467,-3.7066,-3.7521,-3.7677,-3.7703,-3.7703,-3.7703,-3.7703,-3.7808,-3.7808,-3.7808,-3.7808,-3.7611,-3.7413,-3.7108,-3.6815,-3.6628,-3.6452,-3.6358,-3.6358,-3.6358,-3.6358,-3.6358,-3.6358,-3.6358,-3.6358,-3.6358,-3.6358,-3.6358,-3.6358,-3.6358,-3.6358,-3.6358,-1.583,-1.6431,-1.7022,-1.7204,0.0,0.0,-1.9047,-1.9043,-1.927,-2.0335,-2.0096,-1.9737,-2.0132,-2.0267,-2.0407,-2.0433,-2.0818,-2.124,-2.1655,-2.2318,-2.2784,-2.296,-2.3232,-2.3493,-2.3667,-2.3667,-2.3841,-2.41,-2.41,-2.4186,-2.4454,-2.4861,-2.4861,-2.454,-2.5189,-2.5808,-2.6315,-2.7558,-2.8588,-2.9301,-3.0578,-3.1116,-3.1026,-3.1484,-3.1661,-3.1661,-3.1661,-3.1661,-3.1661,-3.1661,-3.1661,-3.1661,-3.1661,-3.1661,-3.1661,-3.1661,-3.1837,-3.2189,-3.2636,-3.2982,-3.3313,-3.4063,-3.423,-3.423,-3.4494,-3.4481,-3.4397,-3.4397,-3.4397,-3.4397,-3.4397,-3.4397,-3.4397,-3.4397,-3.4397,-3.4567,-3.5168,-3.5717,-3.6279,-3.6881,-3.7495,-3.79,-3.79,-3.79,-3.79,-3.79,-3.79,-3.79,-3.79,-3.79,-3.7808,-3.7703,-3.7413,-3.7121,-3.6909,-3.6628,-3.6452,-3.6452,-3.6358,-3.6358,-3.6358,-3.6358,-3.6358,-3.6358,-3.6358,-3.6358,-3.6358,-3.6358,-3.6358,-3.6358,-3.6358,-3.6358,-1.5974,-1.6289,-1.6622,-1.7499,-1.779,0.0,-1.9743,-1.9661,-1.9706,-2.1129,-2.0948,-2.0528,-2.0557,-2.0605,-2.0732,-2.1045,-2.1211,-2.1491,-2.1854,-2.2553,-2.326,-2.3744,-2.3841,-2.4013,-2.4454,-2.454,-2.454,-2.454,-2.454,-2.454,-2.4615,-2.5337,-2.5421,-2.47,-2.6257,-2.7144,-2.7205,-2.8947,-3.0087,-3.0668,-3.1584,-3.1937,-3.1749,-3.1749,-3.1749,-3.1661,-3.1661,-3.1661,-3.1661,-3.1661,-3.1661,-3.1661,-3.1661,-3.1661,-3.1749,-3.1749,-3.2189,-3.2797,-3.3313,-3.3894,-3.4481,-3.4908,-3.5003,-3.4839,-3.4839,-3.466,-3.4481,-3.4481,-3.4397,-3.4397,-3.4397,-3.4397,-3.4397,-3.4397,-3.4397,-3.4567,-3.5168,-3.5678,-3.6214,-3.6881,-3.7495,-3.79,-3.79,-3.79,-3.79,-3.79,-3.79,-3.79,-3.79,-3.79,-3.79,-3.79,-3.7611,-3.7307,-3.7108,-3.6815,-3.6628,-3.6452,-3.6358,-3.6358,-3.6358,-3.6358,-3.6358,-3.6358,-3.6358,-3.6358,-3.6358,-3.6358,-3.6358,-3.6358,-3.6358,-3.6358,-1.6083,-1.6691,-1.7361,-1.6962,-1.7655,0.0,-1.8873,-1.8994,-1.9444,-2.0931,-2.0758,-2.0341,-2.0518,-2.0682,-2.0622,-2.0187,-2.1352,-2.2307,-2.2347,-2.2834,-2.3363,-2.3714,-2.41,-2.4368,-2.4454,-2.454,-2.454,-2.454,-2.454,-2.4775,-2.5505,-2.5746,-2.5746,-2.5579,-2.6577,-2.7467,-2.8396,-2.9289,-3.0248,-3.1169,-3.1925,-3.2213,-3.1937,-3.1937,-3.1849,-3.1661,-3.1661,-3.1661,-3.1661,-3.1661,-3.1661,-3.1661,-3.1661,-3.1661,-3.1749,-3.2276,-3.2624,-3.2884,-3.3894,-3.4314,-3.4481,-3.4908,-3.5086,-3.5003,-3.5003,-3.499,-3.4908,-3.4756,-3.4577,-3.4397,-3.4397,-3.4397,-3.4397,-3.4397,-3.4397,-3.4567,-3.5168,-3.5378,-3.5757,-3.6802,-3.7495,-3.79,-3.79,-3.79,-3.79,-3.79,-3.79,-3.79,-3.79,-3.79,-3.7808,-3.7598,-3.7307,-3.7108,-3.6815,-3.6546,-3.6452,-3.6358,-3.6358,-3.6358,-3.6358,-3.6358,-3.6358,-3.6358,-3.6358,-3.6358,-3.6358,-3.6358,-3.6358,-3.6358,-3.6358,-3.6358,-1.6614,-1.7166,-1.7794,-1.7274,-1.7743,0.0,0.0,-1.9362,-1.9621,-2.1367,-2.1025,-2.0566,-2.0819,-2.1133,-2.1271,-2.1071,-2.1738,-2.2403,-2.2794,-2.3608,-2.4278,-2.4502,-2.4903,-2.513,-2.4902,-2.5078,-2.5284,-2.5465,-2.5764,-2.6217,-2.6875,-2.7269,-2.7352,-2.6948,-2.8198,-2.8998,-2.9277,-3.0399,-3.1284,-3.1825,-3.2376,-3.2388,-3.2213,-3.2213,-3.2038,-3.1849,-3.1849,-3.1761,-3.1661,-3.1661,-3.1661,-3.1661,-3.1661,-3.1661,-3.1749,-3.245,-3.2884,-3.33,-3.4147,-3.4647,-3.4895,-3.5072,-3.5003,-3.4921,-3.4921,-3.4825,-3.4743,-3.466,-3.4481,-3.4397,-3.4397,-3.4397,-3.4397,-3.4397,-3.4397,-3.4476,-3.4789,-3.509,-3.5547,-3.6397,-3.7037,-3.7547,-3.7848,-3.79,-3.79,-3.79,-3.79,-3.7808,-3.7703,-3.7703,-3.7611,-3.7307,-3.7015,-3.6815,-3.6709,-3.6546,-3.6358,-3.6358,-3.6358,-3.6358,-3.6358,-3.6358,-3.6358,-3.6358,-3.6358,-3.6358,-3.6358,-3.664,-3.664,-3.6358,-3.6358,-3.6546,-1.7576,-1.7935,-1.8406,-1.7942,-1.8072,-1.8807,0.0,0.0,0.0,-2.203,-2.1906,-2.1466,-2.1363,-2.1607,-2.1977,-2.2113,-2.2213,-2.2541,-2.3408,-2.4586,-2.5249,-2.4995,-2.5357,-2.5571,-2.5382,-2.5664,-2.6059,-2.6612,-2.6867,-2.7398,-2.8194,-2.8916,-2.9046,-2.8405,-2.9927,-3.0617,-3.0302,-3.1571,-3.2334,-3.2562,-3.2723,-3.2636,-3.2475,-3.2475,-3.23,-3.2038,-3.2038,-3.1937,-3.1925,-3.1849,-3.1837,-3.1925,-3.1749,-3.1761,-3.1937,-3.2624,-3.3215,-3.3894,-3.4397,-3.4908,-3.5318,-3.5154,-3.5003,-3.4839,-3.4839,-3.466,-3.4481,-3.4481,-3.4397,-3.4397,-3.4397,-3.4397,-3.4397,-3.4397,-3.4397,-3.4397,-3.4397,-3.4776,-3.5312,-3.5979,-3.6502,-3.7063,-3.7782,-3.79,-3.79,-3.79,-3.79,-3.7703,-3.7505,-3.7413,-3.7307,-3.7015,-3.6815,-3.6722,-3.6628,-3.6452,-3.6358,-3.6358,-3.6358,-3.6358,-3.6358,-3.6358,-3.6452,-3.6546,-3.6546,-3.6546,-3.6628,-3.7002,-3.7015,-3.6546,-3.664,-3.6909,-1.9329,-1.9565,-1.9592,-1.857,-1.9058,-2.0042,-2.0998,0.0,-2.2241,-2.3057,0.0,-2.3541,-2.2035,0.0,0.0,-2.206,-2.246,-2.3256,-2.4431,-2.5444,-2.5604,-2.421,-2.4426,-2.4911,-2.5665,-2.5793,-2.6129,-2.6985,-2.6368,-2.6903,-2.9056,-2.9256,-2.946,-2.9846,-3.0795,-3.148,-3.1947,-3.2093,-3.2503,-3.2995,-3.3068,-3.2896,-3.2636,-3.2636,-3.255,-3.23,-3.2125,-3.2201,-3.2537,-3.2376,-3.255,-3.2785,-3.2001,-3.1937,-3.2388,-3.3056,-3.3654,-3.416,-3.4825,-3.5072,-3.5168,-3.5086,-3.5086,-3.5086,-3.5086,-3.4921,-3.4756,-3.4756,-3.4577,-3.4397,-3.4397,-3.4397,-3.4397,-3.4397,-3.4397,-3.4397,-3.4397,-3.445,-3.4816,-3.59,-3.6162,-3.6567,-3.7704,-3.79,-3.79,-3.79,-3.7703,-3.7505,-3.7505,-3.7307,-3.7015,-3.6803,-3.6722,-3.6628,-3.6452,-3.6452,-3.6358,-3.6358,-3.6358,-3.6358,-3.6358,-3.6358,-3.664,-3.7015,-3.7015,-3.7188,-3.7625,-3.7717,-3.7453,-3.7015,-3.7453,-3.7625,-1.9622,-1.9799,-2.0112,-1.9837,-1.9906,-2.0294,-2.1522,-2.1553,-2.1418,-2.2144,0.0,0.0,0.0,0.0,0.0,0.0,-2.349,-2.3856,-2.4946,-2.554,-2.5953,-2.595,-2.5894,-2.6096,-2.6584,-2.6584,-2.7053,-2.8175,-2.7767,-2.824,-2.9942,-3.0387,-3.0647,-3.0869,-3.1522,-3.1976,-3.2215,-3.2554,-3.283,-3.3081,-3.3081,-3.3154,-3.33,-3.3056,-3.2982,-3.2982,-3.2884,-3.2884,-3.2871,-3.3056,-3.3227,-3.3215,-3.2785,-3.2711,-3.2797,-3.3556,-3.3907,-3.416,-3.4756,-3.4921,-3.4921,-3.4743,-3.4647,-3.4647,-3.4647,-3.466,-3.4577,-3.4577,-3.4481,-3.4397,-3.4397,-3.4397,-3.4397,-3.4397,-3.4397,-3.4397,-3.4397,-3.4672,-3.5155,-3.5953,-3.6384,-3.6894,-3.7756,-3.7808,-3.7703,-3.7703,-3.7611,-3.74,-3.7108,-3.7108,-3.6922,-3.6546,-3.6534,-3.6452,-3.6452,-3.6358,-3.6358,-3.6358,-3.6358,-3.6546,-3.6828,-3.6828,-3.7002,-3.7453,-3.7546,-3.7638,-3.7808,-3.8522,-3.8702,-3.8535,-3.7991,-3.8004,-2.0146,-2.0382,-2.0751,-2.1016,-2.0896,-2.1064,-2.236,-2.2083,-2.1715,-2.2469,-2.2694,0.0,0.0,0.0,-2.4052,-2.4903,0.0,-2.4525,-2.554,-2.5848,-2.621,-2.6798,-2.7115,-2.7161,-2.7139,-2.7398,-2.7923,-2.8877,-2.8787,-2.9249,-3.0541,-3.111,-3.1461,-3.1612,-3.2152,-3.2453,-3.2453,-3.2704,-3.2918,-3.3081,-3.3089,-3.3246,-3.3713,-3.3569,-3.3569,-3.3654,-3.3654,-3.3556,-3.3458,-3.3797,-3.3894,-3.3894,-3.3823,-3.3641,-3.3556,-3.3894,-3.4076,-3.4243,-3.4577,-3.4673,-3.4673,-3.4481,-3.4397,-3.4397,-3.4397,-3.4397,-3.4397,-3.4397,-3.4397,-3.4397,-3.4397,-3.4397,-3.4397,-3.4397,-3.4397,-3.445,-3.4607,-3.4986,-3.5508,-3.6214,-3.6711,-3.7194,-3.7795,-3.7703,-3.7611,-3.7611,-3.7505,-3.7307,-3.6909,-3.6922,-3.6828,-3.6452,-3.6358,-3.6358,-3.6358,-3.6358,-3.6452,-3.6546,-3.6546,-3.6909,-3.7638,-3.773,-3.7978,-3.8738,-3.8662,-3.8675,-3.8854,-3.9664,-4.0027,-4.0027,-3.9135,-3.897,-2.1578,-2.1873,-2.1996,-2.1702,-2.2158,-2.2938,-2.3722,-2.4177,-2.4583,-2.5292,-2.6009,-2.6285,-2.586,-2.5238,-2.5102,-2.5819,-2.526,0.0,0.0,-2.6732,-2.6334,-2.544,-2.6986,-2.7696,-2.6857,-2.7765,-2.8498,-2.8486,-2.8498,-2.9151,-3.0503,-3.111,-3.1637,-3.2177,-3.2754,-3.3056,-3.3056,-3.2516,-3.2516,-3.3068,-3.2924,-3.3187,-3.3713,-3.4147,-3.4397,-3.4397,-3.416,-3.4314,-3.4634,-3.4468,-3.4647,-3.5003,-3.4839,-3.4756,-3.4673,-3.3979,-3.3966,-3.4397,-3.4397,-3.4397,-3.4397,-3.4397,-3.4397,-3.4397,-3.4397,-3.4397,-3.4397,-3.4397,-3.4397,-3.4397,-3.4397,-3.4397,-3.4397,-3.4397,-3.4397,-3.4554,-3.5142,-3.5286,-3.5626,-3.675,-3.6998,-3.7194,-3.7795,-3.79,-3.79,-3.79,-3.7703,-3.74,-3.7108,-3.6909,-3.6628,-3.6452,-3.6358,-3.6358,-3.6358,-3.6358,-3.6546,-3.7015,-3.7108,-3.7717,-3.9121,-3.9121,-3.9784,-4.1112,-4.0873,-4.1,-4.1463,-4.1296,-4.1212,-4.1212,-4.1212,-4.1212,-2.1731,-2.1735,-2.1803,-2.2402,-2.2516,-2.2816,-2.3927,-2.4236,-2.433,-2.4365,-2.4858,-2.5342,-2.5801,-2.595,-2.6276,-2.7049,-2.6606,-2.6353,0.0,-2.6713,-2.6689,-2.7191,-2.8264,-2.8609,-2.7718,-2.7971,-2.8554,-2.9287,-2.8791,-2.8955,-2.9977,-3.0583,-3.1122,-3.165,-3.2215,-3.2692,-3.3081,-3.2503,-3.2483,-3.2924,-3.2516,-3.2868,-3.3999,-3.3835,-3.4209,-3.4825,-3.4825,-3.4825,-3.499,-3.5141,-3.5236,-3.5086,-3.5003,-3.4825,-3.4494,-3.423,-3.423,-3.4397,-3.4397,-3.4397,-3.4397,-3.4397,-3.4397,-3.4397,-3.4397,-3.4397,-3.4397,-3.4397,-3.4397,-3.4397,-3.4397,-3.4397,-3.4397,-3.4397,-3.4314,-3.4295,-3.4504,-3.4969,-3.5528,-3.608,-3.6767,-3.7547,-3.8445,-3.8575,-3.8472,-3.8277,-3.8187,-3.8251,-3.8419,-3.7991,-3.7559,-3.7361,-3.6722,-3.664,-3.7268,-3.8121,-3.889,-3.9319,-3.9319,-3.9743,-4.0533,-4.0519,-4.0887,-4.1699,-4.1699,-4.1713,-4.1908,-4.2222,-4.24,-4.2482,-4.2886,-4.2467,-2.13,-2.1331,-2.1627,-2.2728,-2.3014,-2.3267,-2.4039,-2.4409,-2.4443,-2.4039,-2.4754,-2.562,-2.6249,-2.6669,-2.7227,-2.7753,-2.7483,-2.714,0.0,-2.716,-2.7456,-2.7849,-2.858,-2.8897,-2.845,-2.8633,-2.9052,-2.9714,-2.9473,-2.9406,-2.9804,-3.0495,-3.0959,-3.111,-3.1637,-3.2273,-3.3022,-3.211,-3.2086,-3.3044,-3.2272,-3.2606,-3.3913,-3.394,-3.4312,-3.5023,-3.5224,-3.5318,-3.5318,-3.5562,-3.5562,-3.5318,-3.5236,-3.499,-3.4647,-3.4481,-3.4397,-3.4397,-3.4494,-3.4577,-3.4577,-3.466,-3.4577,-3.4577,-3.4577,-3.4481,-3.4397,-3.4397,-3.4397,-3.4397,-3.4397,-3.4397,-3.4397,-3.4397,-3.4243,-3.4192,-3.4606,-3.5105,-3.5545,-3.6122,-3.7144,-3.8018,-3.8626,-3.8898,-3.8851,-3.8735,-3.8647,-3.8722,-3.8972,-3.8384,-3.8083,-3.8289,-3.7521,-3.7482,-3.8469,-3.942,-4.0262,-4.076,-4.076,-4.1098,-4.1889,-4.1971,-4.2246,-4.2886,-4.2886,-4.2805,-4.2805,-4.3155,-4.3329,-4.3394,-4.3738,-4.3235]}]]